GFSWCAN_sfc_dewp_000.txt.gz
Dewpoint
48 47 47 48 48 48 49 48 48 47 47 46 46 47 47 47 46 46 42 45 42 39 37 38 37 35 34 32 29 30 32 42 43 41 40 38 35 38 39 39 41 41 43 44 41 37 34 47 47 38 45 46 48 48
48 48 48 48 48 48 48 48 48 48 47 46 47 47 46 46 46 47 42 43 46 42 38 40 40 39 38 37 34 32 28 34 45 40 41 42 42 41 41 40 45 41 47 46 43 43 48 50 48 49 49 45 46 47
48 49 49 49 49 48 48 47 48 48 47 46 47 47 46 47 46 46 42 40 41 41 37 36 35 36 37 38 38 32 31 37 39 40 40 43 42 44 40 42 43 48 48 46 47 47 48 47 48 47 48 48 48 49
47 47 47 47 48 48 47 47 47 47 46 46 46 46 46 47 47 46 43 43 43 40 36 34 37 36 37 37 37 36 30 32 36 41 39 41 41 44 43 46 46 48 48 46 46 47 48 45 48 50 48 47 45 46
47 47 48 46 48 47 47 47 47 47 45 45 46 46 46 47 48 47 44 44 43 39 35 34 35 36 37 36 36 35 32 32 34 35 39 37 42 41 44 47 46 47 48 44 43 47 46 45 47 50 44 43 44 44
48 48 48 48 48 48 48 47 47 46 45 45 46 47 47 48 47 41 41 43 44 44 41 32 36 36 37 34 33 32 33 36 39 33 31 39 39 44 44 44 45 48 53 50 46 46 46 45 44 43 40 41 41 42
48 49 48 48 48 48 47 47 46 46 45 46 47 47 48 48 44 37 39 44 46 43 39 35 35 37 36 33 34 34 34 35 34 29 30 35 32 45 44 41 44 47 49 50 50 49 43 45 44 41 41 40 41 39
48 48 47 47 46 46 47 46 45 45 45 45 46 47 48 49 46 40 40 47 45 38 39 33 34 34 34 29 30 34 31 33 31 29 30 34 41 46 41 43 43 45 45 44 45 44 45 47 46 44 42 42 41 41
48 47 47 47 47 47 46 45 45 45 45 45 46 47 43 42 38 41 48 46 42 38 35 37 36 33 34 28 31 34 34 28 31 36 42 42 42 41 43 43 44 44 42 42 45 46 45 44 43 44 42 41 41 43
48 47 47 47 47 46 46 45 45 45 46 46 42 41 38 41 48 47 40 36 38 38 37 34 37 33 31 34 31 33 32 30 28 33 44 44 44 45 47 47 46 46 45 45 43 44 44 45 45 45 43 43 44 46
47 47 47 47 46 46 46 45 46 46 44 42 41 41 44 47 39 39 37 37 37 35 37 38 36 32 36 35 35 35 30 29 31 37 41 43 43 45 47 47 47 47 47 46 46 46 47 47 47 46 46 47 46 47
48 48 48 47 47 47 46 47 47 45 45 45 44 44 43 40 35 33 31 33 35 33 37 36 31 36 37 37 34 35 30 29 25 38 41 41 45 47 48 47 48 48 48 48 48 48 50 49 49 49 49 50 50 50
48 48 48 48 48 47 47 47 47 48 48 43 39 34 34 32 30 33 32 34 34 36 37 35 29 37 39 34 34 33 30 29 41 41 40 43 47 48 48 47 46 48 48 48 49 50 49 48 49 50 50 50 49 49
48 48 48 48 48 47 47 48 47 46 42 37 36 33 35 32 37 38 38 38 40 41 40 37 34 36 39 32 34 33 33 39 36 37 38 45 47 48 47 46 46 46 46 46 48 48 47 47 48 48 48 50 49 49
47 48 48 48 48 47 47 48 48 44 40 37 36 33 35 39 41 42 43 41 41 43 41 39 35 36 37 33 35 33 35 37 39 40 44 47 47 47 46 47 47 47 47 46 46 46 46 47 46 47 49 49 51 50
46 45 45 48 48 47 47 46 43 43 40 39 39 38 40 38 39 41 40 40 42 41 41 37 33 31 32 35 38 38 36 37 41 45 46 46 46 46 46 48 48 48 47 46 46 46 46 45 47 46 48 48 50 50
45 42 48 48 48 48 46 42 42 40 37 38 39 41 41 40 39 40 41 40 41 38 36 36 34 33 34 37 38 41 40 42 44 45 45 45 45 45 46 47 47 47 46 46 46 46 47 47 47 46 45 47 51 52
42 44 47 48 48 44 42 42 40 39 38 40 39 40 42 39 38 39 40 40 38 39 38 37 39 38 37 36 38 41 41 43 43 44 45 46 46 46 48 47 47 47 46 46 46 46 46 45 45 45 46 46 48 50
43 45 47 49 47 42 41 40 39 34 36 37 39 39 39 38 39 39 39 41 39 40 37 38 37 38 39 41 39 41 42 43 43 44 45 46 46 48 49 48 48 48 47 46 44 43 45 45 43 44 45 47 47 47
48 48 48 49 46 39 36 35 40 36 35 37 37 37 38 36 38 39 39 40 37 36 37 37 38 39 40 41 42 43 44 45 45 44 43 45 48 49 49 48 47 47 46 45 44 42 41 41 41 41 43 45 46 45
46 45 48 46 42 40 38 37 35 36 36 35 36 36 36 38 38 37 37 39 35 33 37 40 41 43 43 44 44 45 45 45 44 45 46 47 48 49 48 48 47 45 43 40 39 37 38 38 39 40 40 40 41 42
43 48 43 43 39 37 36 38 36 37 35 35 35 36 35 36 37 36 37 37 36 38 39 40 40 40 41 41 43 45 47 48 49 49 46 47 47 47 44 41 36 32 33 34 35 35 35 37 38 39 40 40 40 40
46 44 40 39 34 33 32 38 35 35 33 35 35 33 33 36 37 38 35 36 37 39 41 43 45 45 45 46 48 49 50 50 49 49 48 48 46 37 32 32 32 32 31 31 33 33 35 36 36 36 37 37 37 36
46 40 36 35 36 34 39 37 37 37 37 37 36 34 36 38 41 40 39 42 44 46 47 48 49 49 49 49 48 47 48 48 46 44 45 43 32 32 33 32 33 32 32 32 31 32 33 36 35 34 35 34 36 36
36 35 36 32 34 36 35 35 37 37 36 37 35 35 38 41 39 39 40 43 44 45 46 47 47 48 47 47 46 45 44 46 43 35 38 43 35 32 32 32 32 33 33 30 29 31 33 34 34 34 35 38 41 42
35 34 35 34 33 34 34 35 34 34 36 35 37 39 39 40 39 38 40 44 45 45 46 45 45 44 42 43 38 35 35 34 33 30 32 33 32 31 31 30 29 28 32 33 31 31 33 34 33 33 34 40 39 40
37 40 40 38 38 38 38 39 40 37 37 36 37 39 38 35 36 40 44 45 44 44 46 46 45 41 39 35 35 35 35 35 35 33 33 33 34 34 32 29 29 29 32 32 31 32 33 33 32 32 31 36 40 40
41 42 40 40 40 41 39 40 40 39 39 41 40 36 36 36 36 40 42 43 43 38 35 34 35 34 33 33 33 33 33 34 34 35 34 33 33 32 32 31 31 33 32 31 32 34 34 33 31 31 31 31 34 40
42 44 43 39 40 41 41 35 31 33 36 38 36 36 37 41 42 41 41 37 35 33 32 32 32 32 32 32 33 32 33 31 29 29 28 28 28 28 30 30 29 29 32 33 35 36 35 34 34 35 35 35 35 35
39 42 40 38 35 36 37 36 33 35 38 39 39 38 37 37 38 39 36 34 33 32 32 32 32 31 30 30 30 31 30 29 28 28 27 27 27 28 30 30 30 32 33 32 32 33 35 33 33 32 33 34 35 35
44 43 41 41 37 39 41 45 42 37 38 39 40 40 41 40 41 46 43 37 34 33 31 30 30 31 30 30 31 30 28 29 30 31 32 30 30 31 32 32 31 32 32 30 29 29 31 31 31 30 29 28 29 29
44 43 44 41 42 45 46 43 40 42 43 45 47 47 47 46 43 47 50 48 44 36 34 32 30 29 30 30 30 30 33 30 30 32 33 32 31 30 30 28 27 26 25 24 23 23 23 26 27 25 24 24 24 25
43 44 45 44 42 42 44 43 44 45 46 46 46 47 47 45 42 48 52 49 41 32 31 31 30 29 28 28 28 28 31 30 32 33 32 32 31 28 25 24 24 24 23 23 23 23 23 23 23 23 23 24 24 25

GFSWCAN_sfc_dewp_003.txt.gz
Dewpoint
47 47 47 47 48 48 47 48 48 48 48 48 47 46 46 47 47 48 45 46 44 38 31 32 32 33 35 34 31 29 28 36 44 45 41 38 36 39 38 42 41 42 43 45 46 42 36 48 48 42 48 50 49 50
47 47 47 47 48 47 48 48 48 48 48 48 47 46 45 46 46 47 44 43 48 42 33 37 37 38 39 37 35 33 30 31 38 39 43 44 45 43 45 36 43 42 45 46 47 47 49 49 51 51 50 50 50 52
47 47 47 47 47 46 47 48 48 48 48 47 46 45 45 47 46 47 43 42 42 38 33 33 30 32 34 36 36 32 30 34 43 40 43 45 46 48 46 45 41 48 49 46 50 52 48 49 49 50 52 52 52 53
48 47 47 47 47 46 47 47 47 47 46 46 45 46 45 44 45 45 45 43 43 37 32 27 35 34 36 35 36 36 33 35 36 46 44 44 45 45 47 49 48 48 49 48 48 49 47 46 49 49 50 50 50 51
48 48 48 48 48 47 47 47 48 47 45 45 45 45 45 45 46 49 48 44 42 35 31 29 31 35 35 35 36 37 37 36 32 42 42 38 41 43 48 51 46 47 49 47 43 51 50 49 48 48 47 47 47 48
49 49 49 48 47 48 48 47 46 46 44 45 46 46 45 46 47 41 38 44 44 42 37 29 33 36 37 38 37 37 37 36 33 38 38 37 40 45 49 45 45 49 50 53 48 50 48 44 43 43 45 44 44 44
48 48 47 47 47 47 47 46 46 45 45 45 45 46 47 48 47 38 35 42 44 41 37 34 32 36 38 36 35 34 35 35 38 36 34 37 38 47 46 42 45 47 49 49 49 47 44 43 42 42 43 42 43 42
48 47 47 47 47 47 47 46 46 45 45 45 46 47 47 48 46 40 42 46 44 37 36 34 32 36 34 32 33 36 34 35 36 33 36 43 47 49 43 45 46 45 46 47 47 47 47 47 46 44 44 44 45 43
48 47 47 47 47 46 46 45 45 45 45 46 47 46 44 43 37 39 50 48 45 37 34 37 35 33 37 31 33 36 35 30 34 42 43 43 43 42 46 47 47 47 44 45 49 49 49 48 47 46 44 45 45 45
47 47 47 48 47 47 47 46 46 46 47 45 43 41 38 41 47 47 46 40 38 39 38 35 35 33 34 36 34 35 35 33 41 41 44 45 44 48 49 49 50 49 49 47 47 46 47 46 46 47 47 47 47 46
49 48 48 47 47 47 47 47 48 47 45 43 42 41 44 46 41 40 38 37 38 38 39 38 38 37 40 40 37 37 33 34 36 42 41 43 42 47 50 49 49 48 48 48 49 49 49 49 47 47 47 48 48 48
48 48 49 48 48 47 47 47 48 45 46 45 46 47 45 41 39 35 34 34 35 34 39 38 34 39 43 40 36 38 32 32 34 43 41 40 45 48 48 47 47 47 48 49 49 47 47 47 47 48 48 48 49 50
48 49 48 48 48 48 48 48 48 48 48 46 42 38 37 37 35 33 35 34 36 38 39 38 36 40 45 36 36 37 32 36 43 41 40 44 49 49 48 46 46 47 47 46 46 46 45 45 47 48 48 50 50 49
48 48 48 49 48 48 48 48 48 47 45 40 38 35 36 36 37 38 38 40 40 43 41 40 38 39 42 35 36 33 36 40 38 37 38 46 48 49 48 48 47 47 47 45 46 45 45 45 45 46 49 50 51 51
46 47 47 47 48 48 48 48 47 47 43 39 37 32 34 39 41 42 44 43 43 46 44 42 38 41 38 35 38 34 36 37 40 39 43 48 49 49 49 49 48 48 48 47 47 47 46 46 46 46 48 50 52 52
47 45 44 48 49 48 48 46 45 46 42 40 40 39 41 40 39 39 40 39 40 41 45 38 35 36 32 39 38 38 36 36 42 46 48 49 50 50 51 50 50 49 49 48 49 49 48 48 48 49 49 50 52 53
44 43 46 48 48 49 46 45 45 41 41 40 39 42 42 41 40 39 40 39 41 40 37 38 36 36 38 37 38 42 38 42 46 48 49 50 51 51 51 50 50 50 49 49 49 49 51 50 49 48 49 50 52 53
42 44 46 48 49 46 44 44 42 40 38 40 39 40 41 43 41 39 39 40 40 40 40 40 40 38 38 37 38 42 45 46 47 48 49 50 51 52 52 51 51 51 50 50 50 49 49 49 47 46 51 51 50 51
47 48 49 49 48 45 42 40 41 37 37 38 39 39 40 40 40 41 40 41 40 41 41 41 38 37 40 44 43 45 47 48 47 48 48 49 51 52 52 52 51 51 49 49 48 44 44 48 45 43 44 45 44 44
49 49 49 49 47 45 39 41 42 39 38 40 38 37 39 39 41 40 40 40 38 41 41 39 39 43 44 45 46 47 47 49 49 46 46 48 50 52 51 50 48 49 43 44 40 39 40 40 40 41 41 42 41 40
47 47 48 47 45 44 43 41 40 41 42 40 40 40 40 40 39 39 40 40 39 39 40 42 43 45 46 47 47 48 50 50 50 51 49 49 49 48 43 38 36 35 34 34 34 34 35 35 36 36 37 38 38 40
47 48 46 44 41 40 41 42 41 41 39 37 38 40 40 39 40 42 41 39 40 41 43 42 43 44 46 48 49 49 50 51 52 51 47 48 49 36 35 33 32 32 31 32 32 31 32 33 34 33 33 33 35 34
48 46 43 41 38 37 36 40 38 39 38 38 38 37 38 40 42 43 40 42 42 44 45 45 47 49 49 51 52 52 52 52 53 53 52 52 40 34 33 34 32 31 30 30 31 30 31 36 34 33 33 34 35 35
47 43 40 39 39 37 41 39 40 39 40 38 37 36 38 40 43 43 41 44 49 49 51 51 52 53 53 52 51 50 49 50 44 46 52 37 32 34 35 33 31 30 30 29 28 29 31 33 34 31 32 34 38 40
38 38 39 35 39 38 37 38 38 38 38 39 39 40 41 44 42 42 42 46 49 49 50 50 51 50 47 39 37 38 42 37 36 36 45 37 36 34 34 34 33 30 30 28 27 28 31 32 31 30 30 35 38 35
35 39 37 39 39 38 39 38 38 38 38 38 39 42 42 42 37 37 43 47 48 48 48 47 41 38 38 38 35 34 36 37 37 34 35 36 35 33 31 30 29 28 28 29 29 29 31 32 31 31 29 30 34 33
38 41 43 43 42 41 41 42 43 41 39 38 40 41 40 35 34 43 49 48 45 44 45 42 40 35 36 34 35 35 36 36 38 37 37 36 35 34 32 30 29 28 30 31 31 32 33 33 32 31 31 31 31 31
43 43 42 43 41 42 41 41 40 39 38 42 41 37 36 37 39 41 40 38 37 36 35 34 35 34 34 33 33 31 31 30 33 35 34 32 32 31 33 32 32 34 34 34 34 34 34 34 34 34 35 35 36 37
42 45 45 43 40 42 42 39 33 34 38 40 37 38 39 38 38 38 38 35 34 32 32 32 32 32 31 33 32 30 30 29 29 28 28 27 27 28 32 33 33 33 33 33 35 33 32 30 30 29 30 30 31 33
42 44 42 40 38 38 40 39 37 38 40 39 38 40 42 44 46 44 39 36 34 31 32 31 31 31 29 29 28 29 29 29 30 29 27 27 29 31 31 31 30 29 27 27 26 25 31 27 28 25 25 25 25 25
47 45 42 42 41 40 45 47 42 40 40 39 41 42 44 44 46 49 49 48 43 38 34 31 29 29 28 28 28 28 26 29 32 33 32 31 30 29 27 26 24 24 24 23 22 22 22 22 22 22 22 22 22 23
47 44 45 42 44 48 50 47 47 42 45 45 45 47 47 46 43 46 51 49 43 32 33 30 27 26 27 27 28 29 32 29 28 27 27 25 24 24 23 23 23 22 23 22 22 21 21 21 20 21 21 21 22 22
45 46 46 45 44 43 47 46 46 45 45 44 45 47 45 44 41 48 44 39 31 29 29 29 27 26 28 28 29 29 29 27 29 32 32 32 31 28 23 22 23 22 22 21 21 20 21 21 21 21 22 22 22 22

GFSWCAN_sfc_dewp_006.txt.gz
Dewpoint
49 48 48 47 47 47 47 48 48 48 48 48 48 47 47 46 45 48 47 48 44 39 37 36 32 29 32 34 30 32 31 34 35 41 35 28 27 27 26 35 42 40 37 32 37 38 34 48 46 44 51 52 50 48
48 48 48 48 47 47 47 46 48 48 48 47 47 47 46 45 45 47 44 48 50 42 36 38 36 34 34 30 30 31 31 33 30 38 43 42 43 38 35 28 41 35 36 34 40 36 51 50 50 52 51 50 51 52
49 48 49 48 48 48 48 46 47 48 48 47 46 46 45 45 46 47 46 47 43 39 35 33 31 32 33 31 35 32 31 32 37 37 35 43 44 44 43 39 38 43 44 42 47 49 49 50 50 50 51 51 51 52
48 48 49 49 49 48 48 47 47 47 47 46 45 45 45 45 44 45 46 45 43 39 30 24 29 30 30 31 31 34 33 35 39 37 42 42 44 44 47 49 49 46 49 47 47 51 48 50 51 51 50 51 52 52
48 48 49 48 48 47 47 47 47 47 45 44 44 45 44 45 46 48 46 43 45 41 27 26 27 33 32 30 34 33 34 32 39 41 45 41 38 41 45 48 48 49 51 45 42 51 53 50 48 48 48 48 50 50
49 49 48 48 47 47 47 47 47 45 45 45 45 46 44 45 46 42 35 43 43 41 30 25 31 34 37 36 33 35 36 36 37 36 46 44 38 43 47 45 46 49 52 53 50 51 49 49 47 44 45 45 45 46
49 48 48 48 48 47 47 47 46 45 45 46 46 46 46 46 43 38 36 39 43 40 36 33 31 35 38 38 37 36 37 37 34 35 41 45 44 47 44 43 46 49 51 50 49 48 47 49 49 48 44 42 43 43
48 48 47 48 47 47 46 46 46 45 45 45 46 46 47 48 46 38 41 45 43 42 36 35 35 38 36 32 33 35 34 36 36 34 45 46 48 45 43 46 46 48 49 50 50 49 46 46 51 50 44 42 42 44
49 48 48 48 48 47 47 46 46 46 47 47 47 46 43 40 35 40 46 49 44 38 37 36 34 36 35 32 34 35 33 31 36 42 48 47 45 43 46 47 47 47 47 49 51 50 50 49 49 46 47 44 43 44
49 49 49 48 48 47 48 48 48 48 48 47 44 39 38 41 47 46 47 40 39 40 38 34 33 34 36 35 31 31 33 33 40 46 47 45 43 48 49 50 50 49 51 50 47 46 49 49 49 48 47 47 45 45
49 49 49 49 48 48 48 48 48 48 47 41 40 40 42 47 43 40 37 38 41 38 37 38 38 38 41 41 39 36 35 36 36 43 44 42 40 46 50 50 52 52 52 52 51 52 52 49 45 46 46 46 47 47
49 49 49 49 48 48 49 48 48 44 43 44 46 46 43 42 40 36 35 37 38 35 38 38 38 39 40 40 37 37 32 34 34 42 42 38 43 47 49 49 50 52 51 51 47 45 45 46 46 47 47 47 48 48
48 48 49 49 49 49 48 48 48 48 47 46 43 40 40 40 36 36 34 35 38 38 39 39 38 37 42 39 37 36 33 38 39 39 40 43 48 48 49 48 47 48 47 46 43 43 43 43 45 47 48 49 48 47
48 48 47 48 48 48 49 49 49 47 45 41 38 34 35 35 38 39 40 41 40 40 40 40 40 44 37 35 35 33 37 39 37 36 39 45 48 49 49 48 44 43 43 43 43 43 42 43 44 46 49 49 49 50
48 48 47 46 47 49 49 48 47 48 46 39 37 32 36 39 41 40 41 39 39 40 41 37 35 35 35 35 35 35 35 37 39 39 45 50 51 50 49 48 47 46 45 45 45 44 44 43 43 45 49 50 51 52
48 47 44 46 48 49 49 47 47 46 44 43 41 39 41 38 36 36 38 38 40 40 41 37 33 33 36 39 38 39 37 36 41 44 49 52 51 50 52 50 49 49 48 46 46 46 45 45 47 48 46 48 49 52
48 41 47 48 49 49 47 45 45 42 40 38 38 40 40 38 36 35 37 38 41 39 36 36 36 38 40 38 38 40 36 38 47 49 52 52 52 52 53 51 50 49 50 49 48 48 50 48 46 46 47 49 48 50
42 44 48 48 49 48 46 44 42 38 36 36 35 36 38 38 38 38 39 40 40 40 40 39 39 37 38 37 38 44 46 49 51 53 52 51 54 54 52 52 52 51 51 50 50 49 49 47 42 40 45 47 43 42
46 48 49 49 49 46 42 41 43 36 34 35 36 36 38 37 40 41 40 41 42 43 41 37 37 38 42 45 45 48 49 50 51 48 49 53 54 53 54 53 52 51 49 47 45 41 43 47 43 41 39 39 38 38
49 49 49 49 48 45 38 42 43 37 36 37 37 38 38 38 39 39 39 40 39 38 38 37 38 41 40 42 44 44 45 48 52 49 50 54 47 49 49 46 42 43 40 42 38 37 37 37 36 37 37 39 39 39
47 47 48 46 44 44 41 40 39 41 40 37 38 39 38 39 39 39 39 38 36 37 36 38 39 41 48 47 46 46 48 50 53 53 51 47 41 38 37 36 37 35 34 34 34 34 34 34 34 33 34 34 34 35
47 48 45 45 43 42 42 41 40 41 39 38 38 39 39 39 41 42 43 42 44 46 47 48 49 50 50 52 52 52 54 53 53 54 48 49 40 39 38 35 34 33 33 33 32 32 31 31 31 30 30 31 33 33
49 47 45 43 41 40 40 42 41 41 40 40 41 40 40 41 43 46 44 46 47 49 49 51 52 52 54 53 53 53 51 50 52 54 54 52 39 36 35 34 32 32 32 32 32 31 30 33 31 29 29 31 33 34
47 45 43 42 42 41 43 43 43 43 43 42 40 39 41 44 47 44 42 46 51 54 54 52 54 52 47 47 38 38 38 36 35 38 40 36 35 36 36 33 32 31 32 31 30 30 29 29 32 28 29 29 32 33
41 40 42 39 44 42 40 40 41 42 39 41 42 42 43 46 42 42 42 46 51 51 51 49 39 37 35 35 34 34 39 33 32 32 36 36 35 34 34 34 34 32 30 29 29 28 28 27 29 29 30 28 31 31
37 42 40 42 43 42 42 40 41 41 40 40 41 43 44 42 35 38 43 48 49 43 40 37 35 34 34 33 32 31 30 31 33 32 35 34 34 33 32 32 31 31 30 29 30 29 29 29 30 31 30 30 33 31
40 44 45 46 44 43 43 44 45 43 39 39 41 40 36 33 35 42 41 40 36 36 36 35 34 32 32 31 31 30 28 29 34 34 34 32 31 31 31 30 31 32 32 33 31 31 32 31 31 31 30 31 31 31
45 45 42 44 43 43 40 40 37 35 36 41 39 36 36 37 37 38 36 37 35 34 33 33 33 32 32 31 30 29 27 26 27 27 27 28 28 28 32 30 32 35 34 32 31 31 30 30 30 29 29 28 28 28
44 45 47 43 41 41 41 38 35 36 39 38 39 38 36 37 37 36 38 39 40 38 38 39 33 31 30 29 27 25 27 26 27 27 26 24 25 27 29 28 27 27 26 25 32 29 26 24 26 25 25 24 24 24
42 44 42 40 38 39 44 42 39 39 38 40 42 43 45 46 47 49 49 48 48 46 37 31 29 28 27 25 23 24 24 27 28 27 26 26 25 25 25 24 23 22 22 23 22 22 28 24 24 22 22 22 22 21
45 43 40 41 41 43 44 40 41 42 43 44 46 45 44 47 48 50 49 47 38 31 31 29 28 26 24 22 24 24 23 26 27 27 26 24 23 24 23 24 22 22 22 22 21 20 20 20 20 20 20 21 22 22
43 43 43 38 42 48 48 45 44 42 41 43 44 46 44 44 42 46 37 34 31 30 32 29 26 24 25 25 26 26 30 25 25 25 25 24 23 23 22 21 21 21 21 20 20 19 20 20 19 20 20 20 21 21
39 37 38 35 35 35 43 46 45 45 43 42 46 47 44 43 41 46 36 33 31 29 28 27 25 24 27 26 26 25 28 25 28 30 30 29 29 27 22 20 20 20 20 20 19 19 19 20 19 20 20 21 21 22

GFSWCAN_sfc_dewp_009.txt.gz
Dewpoint
50 50 49 49 49 49 48 48 48 47 48 49 48 48 48 48 47 47 46 49 44 39 37 37 33 32 28 29 28 40 28 33 31 33 30 24 22 22 24 29 31 29 31 28 32 31 30 46 43 40 51 51 51 51
50 50 49 49 50 50 49 49 48 47 48 48 47 47 47 46 46 46 45 48 47 42 37 38 37 35 33 31 28 28 31 33 32 41 43 41 43 42 33 27 30 28 30 30 33 35 52 52 50 51 51 51 51 51
50 50 49 50 50 49 48 48 48 48 48 48 47 46 45 46 46 47 43 48 47 42 38 33 31 32 33 32 31 28 29 32 33 39 36 39 43 50 43 34 32 39 36 36 45 50 51 51 51 51 52 51 50 51
50 49 49 49 49 48 48 48 48 48 48 46 45 45 45 45 46 47 48 49 46 42 34 27 26 27 27 28 31 30 32 35 36 36 36 41 43 50 48 50 51 51 50 43 50 51 51 52 52 53 54 53 52 54
50 49 49 49 49 48 48 48 47 47 46 45 45 45 46 45 46 46 47 48 50 43 33 29 29 29 26 26 29 30 30 33 31 36 43 43 43 47 49 52 46 51 50 53 47 51 52 51 51 51 51 52 53 54
50 49 49 49 49 48 47 47 47 46 46 46 47 46 45 46 47 46 43 47 45 48 37 25 30 32 35 28 33 33 31 34 36 41 43 45 43 43 47 46 47 51 54 54 52 51 48 48 47 48 46 47 48 49
49 49 49 49 49 48 47 47 47 46 46 45 45 46 47 47 42 45 41 40 41 40 35 33 37 36 38 34 32 34 36 36 43 43 39 46 43 47 45 43 48 50 52 52 52 51 49 48 49 49 46 43 43 42
50 50 49 49 49 48 48 48 48 48 47 47 47 47 47 48 46 40 42 45 41 41 40 36 34 42 38 34 34 36 35 36 45 42 43 45 47 49 43 47 47 49 50 50 49 51 50 51 53 51 51 50 42 42
49 49 49 49 49 48 49 49 49 49 49 49 48 48 44 41 35 47 46 46 43 40 38 38 37 37 36 41 40 32 31 30 37 35 46 48 44 42 46 47 49 50 49 50 51 51 51 49 47 50 51 49 47 45
49 49 49 49 49 49 49 49 49 48 48 49 45 42 42 38 46 47 49 45 43 41 39 35 35 40 39 33 27 27 31 32 35 45 48 44 42 47 49 49 51 51 50 49 48 49 50 49 50 50 48 49 51 50
49 49 49 49 49 49 49 49 49 49 48 42 38 38 41 48 42 45 41 41 41 38 37 39 41 41 39 43 38 45 44 38 39 42 44 40 40 46 48 49 50 52 52 50 50 51 52 53 52 50 49 49 50 47
49 48 49 48 49 49 49 49 50 46 43 44 43 44 44 42 42 38 39 41 39 38 44 44 41 38 37 41 44 39 38 43 37 48 40 37 43 48 48 48 50 52 50 49 48 48 48 46 47 49 50 49 48 48
48 48 48 48 48 48 48 50 50 50 48 46 45 42 40 42 37 36 35 39 40 43 45 45 43 39 40 44 45 45 34 38 41 42 38 41 45 49 50 50 49 48 46 46 45 45 43 43 46 47 48 47 48 49
49 49 49 48 48 48 49 50 49 47 45 42 40 36 37 38 39 40 40 40 44 43 42 44 41 39 37 36 39 34 41 42 37 37 39 44 47 47 49 48 44 42 43 42 42 42 41 42 45 47 48 49 49 52
48 48 49 48 49 49 49 50 48 48 45 40 39 34 39 41 42 43 42 40 37 36 37 43 36 35 35 36 37 37 35 37 38 40 44 47 50 49 47 45 44 43 43 43 43 42 42 42 44 45 48 48 50 51
48 48 45 48 49 49 49 49 48 47 47 45 43 39 40 39 35 34 36 35 38 38 41 37 35 36 38 39 40 38 37 36 39 46 49 51 51 49 49 49 46 45 44 45 43 43 43 43 45 45 44 45 46 49
49 42 48 48 49 49 50 46 45 39 38 35 35 32 33 34 36 37 38 37 40 37 34 35 38 38 38 37 38 39 37 40 46 48 52 51 52 51 51 51 49 46 47 46 46 47 47 45 45 44 45 45 45 47
42 43 48 49 49 47 46 43 40 33 31 32 32 33 35 36 38 39 38 40 40 39 38 37 38 38 37 38 39 45 47 50 51 52 54 54 53 53 55 53 52 50 49 47 46 47 47 45 42 40 43 44 45 42
46 47 49 50 49 47 40 39 41 34 31 33 34 35 35 37 40 39 39 42 40 39 38 38 38 39 43 46 47 49 51 53 53 54 55 53 54 53 51 50 50 48 46 45 44 40 41 44 40 38 37 38 37 38
49 49 49 50 49 44 37 40 41 36 33 35 35 35 35 37 38 38 36 36 37 37 37 36 37 40 41 47 49 51 54 56 54 52 46 47 46 46 46 43 40 43 40 42 39 37 36 36 35 35 34 36 36 36
48 48 49 47 45 43 41 39 38 38 38 36 36 36 36 40 41 42 45 40 39 40 40 46 49 51 51 53 53 53 52 52 52 50 46 40 40 39 38 38 39 36 35 34 34 34 34 32 32 31 31 31 32 32
48 49 47 47 45 43 44 43 41 41 40 37 41 41 41 42 42 43 46 44 45 49 51 52 54 53 52 52 53 51 54 53 53 52 47 48 45 42 40 36 35 34 33 33 32 31 31 31 31 29 29 29 32 31
49 49 47 45 44 43 42 45 42 42 42 41 42 40 41 43 45 46 45 48 49 51 55 54 52 52 49 45 45 43 46 45 37 39 39 37 37 37 35 34 32 33 32 32 32 31 30 32 31 29 29 29 29 32
47 46 45 44 45 43 44 43 44 43 42 41 42 42 42 46 50 47 43 47 51 54 49 49 41 40 39 46 36 36 36 34 33 34 36 33 33 34 36 34 32 31 32 31 30 30 29 28 31 28 29 29 29 29
44 43 46 42 47 42 38 38 40 39 36 39 40 41 42 47 40 41 42 47 48 39 39 39 38 37 35 34 32 31 36 29 31 32 34 33 33 32 32 32 34 33 32 31 31 30 29 29 29 29 29 29 31 30
41 44 43 41 42 40 38 36 36 38 38 36 37 40 42 42 36 39 42 41 37 36 36 36 35 34 34 33 31 29 27 27 31 30 32 30 30 30 30 30 30 31 32 31 30 29 29 29 29 30 28 29 32 29
39 41 47 48 43 42 42 41 41 38 34 36 37 36 34 35 36 37 38 37 36 36 36 36 35 33 33 32 31 30 27 27 30 28 28 31 29 30 29 28 30 30 30 30 28 27 27 26 25 25 26 26 26 25
45 44 43 43 43 42 40 37 34 34 35 37 39 37 37 37 37 36 39 40 41 42 41 39 36 32 30 28 25 23 25 25 27 27 26 25 27 27 29 26 26 33 27 26 24 23 24 23 22 22 23 23 23 23
44 42 43 41 39 38 40 40 37 38 39 38 40 39 40 45 46 42 42 42 43 46 42 32 30 28 25 23 23 22 24 25 26 26 25 23 23 22 24 23 22 22 22 22 31 27 25 22 23 22 23 22 22 22
39 40 41 39 40 42 42 39 40 41 41 41 42 42 44 46 48 49 48 45 39 32 31 29 27 25 21 20 21 23 23 24 24 23 22 21 20 21 22 22 22 22 22 22 21 20 29 23 24 21 22 21 21 21
38 36 37 41 39 41 40 42 42 42 42 42 43 43 42 43 46 44 36 35 31 30 29 27 24 22 22 21 23 23 22 24 25 25 24 20 20 21 22 22 20 21 21 21 20 19 19 20 19 20 20 21 22 22
36 35 34 33 38 43 44 46 43 42 40 41 40 41 41 45 43 38 35 33 30 28 31 27 23 22 24 23 24 24 30 24 25 24 24 20 20 22 21 19 19 20 21 20 19 19 20 20 19 20 20 21 22 22
35 34 34 32 33 31 39 46 46 44 39 37 43 45 40 40 38 37 35 34 31 27 26 24 23 24 27 26 25 24 27 25 28 29 28 27 27 26 22 21 22 22 22 21 21 21 22 22 21 22 21 21 20 20

GFSWCAN_sfc_dewp_012.txt.gz
Dewpoint
50 50 50 50 51 51 50 49 49 49 48 48 49 48 48 48 48 48 46 51 45 39 37 37 35 33 30 29 32 38 38 37 27 25 32 32 33 30 29 31 32 31 29 31 37 37 38 45 45 40 50 49 47 47
50 51 50 50 50 50 50 49 49 49 48 48 48 47 47 47 46 46 45 51 50 44 37 38 37 37 34 32 31 34 35 37 39 33 39 40 37 38 35 29 31 28 29 29 34 34 49 52 52 51 50 49 50 49
51 51 50 50 50 50 50 49 49 48 48 48 46 46 46 46 47 47 46 49 47 42 37 35 34 35 35 35 33 30 29 31 35 46 40 41 40 46 40 35 43 36 49 35 37 43 47 48 47 49 49 51 51 57
51 49 49 50 50 50 49 49 49 49 47 47 46 46 46 46 46 46 48 50 47 43 37 29 30 32 29 29 33 31 29 31 36 38 36 38 42 46 42 44 47 51 50 50 41 51 52 53 54 53 52 57 59 59
50 50 50 50 50 49 47 48 48 47 47 46 47 47 47 46 47 44 47 46 49 42 36 35 33 33 31 28 27 31 30 30 33 32 40 41 47 46 48 48 45 50 51 50 53 53 54 53 53 53 53 54 56 56
50 50 50 50 50 50 49 49 48 48 47 47 46 46 46 47 48 44 43 51 51 49 42 29 29 31 30 28 26 30 30 30 29 35 40 44 48 47 44 44 50 53 55 57 52 54 51 49 47 49 50 49 50 50
50 50 50 50 49 49 49 49 49 49 49 48 48 47 47 48 43 44 41 41 44 41 40 33 33 40 42 27 28 30 31 31 36 42 43 44 47 48 46 43 49 53 54 55 54 52 51 49 47 46 44 44 46 45
50 50 49 49 49 49 49 49 49 49 49 49 50 50 49 49 47 41 40 46 42 40 39 36 35 41 42 28 29 33 32 35 43 45 44 45 47 48 44 47 50 51 53 54 54 49 50 50 50 49 48 48 45 44
49 49 49 49 49 50 49 49 50 50 50 50 50 51 46 43 38 48 47 46 43 40 38 38 36 38 47 46 39 33 35 32 45 43 46 46 42 41 46 49 49 50 51 51 51 50 49 48 48 49 48 49 49 48
49 49 49 49 49 49 49 49 49 50 50 50 47 42 44 47 49 51 47 44 43 42 40 35 36 39 45 39 34 30 30 36 40 44 48 42 41 47 49 49 49 50 51 51 48 47 48 47 49 51 50 50 51 53
49 49 49 49 49 49 49 48 49 50 50 43 40 38 41 49 46 46 42 41 41 39 39 38 44 44 46 44 43 45 43 43 38 40 42 39 38 45 49 50 51 50 50 50 50 49 49 49 48 48 49 51 53 54
49 49 49 49 49 49 49 49 50 46 43 44 43 45 44 44 44 39 38 39 38 35 40 43 44 41 39 43 45 46 43 42 37 46 40 35 42 48 49 49 50 51 51 51 51 50 50 49 48 46 47 50 53 53
49 49 49 49 50 49 49 50 50 50 48 47 47 43 40 43 38 36 37 39 40 44 45 47 45 47 48 49 46 44 40 41 47 40 37 39 44 48 49 45 47 46 46 46 46 45 44 45 47 49 51 52 52 52
49 49 49 49 50 49 49 49 51 49 47 42 40 38 40 38 39 41 42 44 47 47 46 42 48 45 47 46 45 38 43 44 39 38 37 44 47 49 49 46 47 47 46 43 42 43 45 49 50 50 50 50 51 52
49 49 48 49 49 49 49 50 50 49 45 42 41 39 41 42 44 44 42 41 46 51 46 39 38 37 38 39 43 40 38 38 38 40 43 48 50 51 50 49 46 44 44 43 43 43 43 45 44 49 50 53 54 55
49 48 47 49 49 48 48 49 49 48 47 45 42 37 36 35 34 36 36 37 40 40 38 37 37 36 37 40 38 37 37 35 38 45 48 50 49 50 52 52 50 47 46 46 46 47 47 49 48 48 47 48 49 52
49 43 49 49 49 49 50 47 43 37 35 33 32 33 35 39 42 39 38 39 41 39 38 37 40 39 43 38 37 39 38 42 46 48 50 51 50 51 53 52 53 51 50 50 48 50 50 49 48 50 51 51 47 51
45 45 49 49 49 48 44 42 40 33 31 33 33 36 38 38 38 40 38 38 39 40 40 37 40 39 40 38 40 44 47 50 51 51 52 53 53 54 54 53 54 52 50 49 49 49 48 47 45 44 48 51 48 47
46 47 49 50 49 47 39 37 41 34 33 34 36 39 38 39 44 43 41 40 42 41 40 39 40 41 44 48 48 50 51 53 52 54 54 53 55 53 53 51 51 50 49 49 46 40 41 47 42 38 36 38 38 41
49 50 50 50 49 45 37 40 41 35 35 37 37 38 41 40 41 40 41 42 40 41 42 43 46 49 50 53 54 54 55 54 53 51 50 54 43 48 49 48 46 51 42 45 39 36 35 34 32 32 31 35 35 34
49 49 50 49 46 44 42 39 38 38 39 39 41 42 43 42 44 45 48 44 43 46 47 50 52 53 51 54 51 53 54 49 54 53 49 41 42 42 40 40 41 37 35 33 32 33 33 31 31 30 30 30 30 31
49 50 49 48 46 44 44 44 41 42 43 42 41 42 42 41 41 44 47 43 46 49 51 51 52 42 44 47 45 47 53 53 50 41 46 46 39 36 34 33 33 33 33 33 32 31 31 29 29 29 30 30 31 31
50 50 48 46 44 44 44 47 43 41 40 40 44 41 42 43 45 44 44 47 49 54 53 54 53 51 47 48 46 43 44 45 38 38 37 35 38 38 34 34 33 33 32 32 32 31 30 33 31 29 30 31 31 30
49 48 46 46 45 44 42 42 42 41 41 40 42 41 43 47 50 45 43 46 50 52 42 48 41 39 40 44 34 35 37 33 33 34 34 32 32 33 37 36 35 34 33 33 32 31 30 29 32 29 30 29 30 30
45 44 45 41 46 40 36 38 38 36 36 36 37 40 45 48 40 40 40 42 40 39 39 38 37 38 35 34 33 32 38 28 28 30 32 31 30 30 31 35 34 32 31 31 29 29 29 29 29 29 29 28 29 29
40 44 41 38 40 37 38 34 35 36 35 34 36 39 47 45 37 38 38 38 37 38 38 38 38 36 33 32 29 26 27 28 29 28 28 29 30 29 29 29 29 28 27 28 26 25 25 26 23 23 22 25 28 25
39 41 46 46 42 39 42 40 37 36 36 37 38 40 39 38 37 36 39 42 41 40 41 40 36 31 29 26 26 25 26 28 31 28 28 30 29 28 27 25 25 23 24 24 23 23 23 23 21 21 21 22 23 23
45 45 45 47 47 44 44 42 37 37 36 37 40 38 37 39 38 41 41 41 41 40 38 36 32 28 25 23 22 23 24 24 25 25 25 25 24 23 26 23 24 33 25 24 23 23 23 21 21 21 22 22 22 23
44 45 43 44 39 37 38 38 37 37 38 39 41 39 40 45 44 41 40 40 39 38 32 28 27 25 22 21 22 22 23 23 23 23 22 20 19 19 22 22 22 22 22 22 30 26 23 21 22 21 22 21 21 21
36 39 41 43 37 39 40 39 39 39 40 40 41 41 42 42 42 43 42 37 33 30 29 27 24 22 20 20 21 23 22 23 23 22 21 19 18 19 21 21 21 20 21 21 20 19 29 23 24 20 21 20 21 20
35 35 35 38 38 39 37 40 40 39 39 39 39 37 38 41 43 37 35 33 29 27 25 23 22 22 22 21 22 22 20 24 26 24 21 18 18 21 22 21 20 21 21 21 20 20 20 20 20 21 21 21 21 21
35 33 31 31 39 42 43 41 40 39 39 39 38 41 41 46 43 39 36 32 29 26 29 24 21 22 24 23 23 23 31 24 24 22 22 20 22 23 22 21 22 22 22 21 21 20 21 21 20 20 20 20 20 21
33 32 33 31 33 36 41 43 44 41 38 38 39 41 38 38 35 34 36 33 28 26 24 22 22 24 27 26 25 24 29 25 26 29 28 26 26 26 23 22 23 23 22 20 20 20 20 21 20 21 21 21 22 22

GFSWCAN_sfc_dewp_018.txt.gz
Dewpoint
51 51 51 50 51 51 51 51 51 50 49 49 48 49 48 48 48 45 43 46 44 39 35 35 36 34 34 34 32 33 36 36 35 34 35 32 31 32 36 36 36 38 40 39 37 30 28 46 43 30 40 52 48 47
51 51 51 51 51 51 51 51 50 51 50 49 48 48 48 48 47 47 40 44 47 42 38 39 39 39 38 37 34 34 36 38 38 35 37 38 34 37 36 34 43 40 44 40 43 42 50 53 48 55 58 59 60 60
51 51 51 51 51 51 51 51 50 50 50 49 49 49 48 49 48 47 43 43 43 41 38 36 37 38 39 39 38 37 39 38 41 43 39 37 36 41 33 39 43 46 49 47 43 48 51 52 57 60 58 58 57 58
50 50 50 50 50 50 50 50 50 50 50 49 49 49 49 49 49 47 43 45 45 42 35 34 36 34 35 35 37 40 39 34 40 43 38 37 37 43 40 43 43 47 49 48 48 49 51 51 54 57 57 57 55 57
50 50 50 50 50 50 50 50 50 50 50 50 49 50 50 50 50 47 45 44 46 41 35 34 37 38 38 40 39 36 38 37 34 35 37 36 42 42 45 45 45 49 48 47 47 51 49 51 52 56 55 54 53 55
49 50 50 50 50 50 50 50 50 50 50 50 50 49 50 50 51 44 40 44 46 47 40 33 35 36 35 43 42 35 34 34 33 30 34 42 45 42 40 40 46 49 53 54 51 54 52 51 51 50 49 51 52 52
50 50 50 50 50 50 49 49 50 50 51 50 50 51 51 51 48 41 37 43 47 44 39 35 33 37 45 43 33 33 34 32 32 40 40 42 43 45 43 39 45 51 53 53 54 54 51 52 50 50 48 49 50 51
50 50 49 49 49 49 49 50 50 51 51 51 51 51 51 51 50 47 46 47 46 41 42 35 33 38 46 43 40 41 31 40 42 43 43 42 43 45 42 46 48 51 53 51 51 52 52 53 53 52 51 49 47 47
49 49 49 49 49 49 50 50 51 51 51 51 51 51 49 47 44 46 47 47 43 40 37 37 35 35 46 43 45 44 45 40 45 41 41 43 41 40 43 47 49 50 51 50 51 51 51 50 50 52 52 51 47 45
49 49 49 49 49 49 50 50 50 51 50 51 49 44 42 46 50 50 47 43 42 42 40 36 40 37 42 44 43 43 44 40 37 41 45 39 40 44 49 50 51 50 50 51 48 48 48 49 50 51 53 54 53 48
49 50 49 50 50 50 50 50 50 50 49 44 41 40 43 51 48 45 39 37 39 37 39 39 40 39 45 41 41 45 42 42 34 40 38 36 37 43 49 50 51 52 51 51 51 51 51 50 50 51 52 52 53 54
49 49 49 49 49 50 50 50 50 47 45 44 45 46 45 45 43 39 35 36 34 34 42 41 43 45 47 48 43 44 39 40 36 44 38 34 39 45 48 50 51 52 52 52 53 50 50 50 50 49 49 52 52 53
49 49 49 49 49 50 50 50 50 50 49 47 44 44 40 40 38 32 32 36 37 40 43 45 44 45 46 47 43 41 40 40 45 36 33 36 43 47 49 51 51 51 50 51 52 52 51 51 52 51 50 52 53 53
49 49 49 49 49 50 50 50 50 49 46 43 40 33 39 38 40 41 43 43 45 45 45 45 46 44 45 44 45 41 43 42 37 34 34 43 46 48 49 50 49 50 49 51 49 47 47 49 51 51 52 52 52 52
49 49 49 49 49 50 49 49 51 48 46 42 40 37 40 43 43 44 44 43 45 45 45 45 44 43 42 40 40 40 38 35 36 38 43 47 49 49 50 50 48 47 46 47 48 49 49 49 49 49 50 51 52 51
50 49 48 49 49 49 49 50 50 49 47 44 42 42 43 42 43 42 43 45 44 40 43 43 41 39 40 40 38 37 36 34 40 45 47 48 48 49 49 51 49 47 46 43 38 37 39 38 39 41 40 45 48 49
49 46 49 49 49 49 50 47 49 47 40 40 40 45 46 45 44 42 41 45 42 41 40 42 40 39 42 39 37 41 40 43 46 47 49 49 49 49 50 49 49 49 47 38 36 33 33 34 35 35 36 38 38 40
46 47 48 49 49 49 49 48 43 39 38 42 42 44 45 45 44 43 41 40 40 41 42 42 45 40 38 37 39 43 46 47 48 48 48 48 49 49 51 50 48 39 40 37 34 32 31 31 34 34 33 35 36 38
46 47 49 50 49 47 47 42 43 40 40 42 45 45 43 44 44 43 43 42 39 39 40 42 41 39 41 45 45 46 47 47 47 48 49 49 50 49 47 46 42 37 36 35 33 32 31 31 32 34 33 34 36 37
49 50 51 51 51 46 43 42 46 40 39 43 45 43 42 42 43 42 42 41 42 39 35 37 38 42 40 41 45 47 48 49 47 44 44 44 46 44 42 40 39 36 35 33 33 34 30 30 31 33 35 36 36 36
50 51 51 51 50 48 45 42 42 42 43 43 44 44 43 43 41 40 40 42 38 40 41 42 38 39 38 35 34 34 38 45 42 37 38 38 36 34 37 36 35 35 34 35 33 33 33 32 33 34 35 35 36 38
50 51 50 52 47 47 45 46 43 46 44 43 42 43 41 40 41 41 43 39 41 44 46 44 44 41 34 33 34 34 33 36 37 36 38 38 33 32 31 33 33 31 31 31 33 31 29 28 28 30 30 31 37 39
50 50 50 50 45 40 40 48 43 44 42 45 47 42 42 42 43 44 40 42 43 44 43 43 42 41 41 38 35 34 33 31 31 33 36 36 34 30 28 27 29 30 27 27 29 28 26 30 27 26 29 28 28 32
50 48 46 46 45 40 46 43 45 44 46 45 44 40 42 43 45 40 39 40 43 42 41 41 41 40 36 33 32 32 32 30 29 32 34 34 30 28 26 25 25 27 27 25 26 26 25 24 28 25 26 27 27 29
42 40 45 38 46 44 42 40 40 39 40 43 42 41 40 45 38 36 39 41 43 42 41 41 40 37 30 30 30 28 28 28 26 29 28 27 27 27 26 25 24 25 27 25 26 25 24 24 24 25 26 26 26 27
39 46 41 44 42 42 43 39 40 41 39 39 41 44 45 41 36 35 38 41 41 41 41 41 37 27 28 29 26 25 25 25 24 25 24 24 24 25 25 23 23 24 27 26 25 23 23 24 24 25 25 25 28 24
40 43 45 48 46 45 44 44 44 38 35 36 40 40 37 34 35 37 40 42 41 45 42 39 29 25 25 27 26 25 24 23 22 22 24 22 22 24 25 24 23 25 26 25 25 23 23 23 24 24 24 24 23 24
44 45 42 45 46 47 42 37 36 36 37 39 40 37 35 35 34 39 41 42 42 41 38 27 25 25 26 26 25 24 24 24 22 20 20 20 21 23 24 24 24 32 26 24 24 23 24 24 24 25 25 24 23 24
46 47 47 44 44 44 39 37 36 37 38 39 38 36 37 41 42 41 41 42 30 27 26 26 25 24 24 25 25 25 24 22 21 19 18 18 20 22 24 24 25 25 25 25 30 29 29 25 25 24 24 23 22 23
44 47 45 42 37 38 39 39 39 39 39 40 40 41 41 42 42 43 36 34 29 26 25 25 25 24 23 24 24 23 23 22 22 21 19 19 20 23 25 25 24 24 25 25 23 23 30 25 25 23 23 23 23 23
45 43 41 40 40 42 44 43 42 41 40 39 40 39 40 41 42 40 36 32 27 25 24 24 25 25 24 24 24 24 22 23 23 22 22 22 23 24 25 25 25 24 24 25 23 21 21 22 22 23 24 24 24 24
40 35 36 39 42 44 43 41 40 40 40 41 40 41 42 43 41 41 39 32 28 25 30 27 25 25 25 25 26 25 28 23 23 23 23 23 24 24 24 24 25 25 25 24 24 23 24 23 24 24 24 25 25 25
36 38 38 42 42 42 45 46 45 43 41 40 43 43 43 39 34 37 35 33 29 27 27 28 28 29 26 26 28 27 28 24 25 28 28 28 29 27 24 24 25 26 25 24 25 25 25 25 25 25 26 26 26 28

GFSWCAN_sfc_dewp_021.txt.gz
Dewpoint
51 51 50 50 50 50 50 50 50 50 49 49 49 49 49 48 48 45 43 44 41 39 35 36 35 33 33 33 31 30 33 34 33 31 30 30 29 31 30 34 34 34 35 33 29 30 28 52 52 47 49 55 49 48
50 50 50 50 51 51 51 51 51 51 50 49 49 49 49 49 49 48 43 45 46 42 38 39 39 37 35 35 34 35 33 33 38 34 34 34 34 34 31 30 36 34 40 38 36 36 51 52 53 57 58 56 57 58
50 50 50 50 50 50 51 51 51 51 51 50 49 49 49 50 49 48 44 43 43 40 36 36 36 38 39 39 38 36 39 38 38 42 37 36 32 38 34 33 34 39 45 41 44 48 52 53 54 57 57 56 57 58
49 50 50 50 50 50 51 51 50 50 50 51 49 49 49 50 50 49 45 43 43 41 35 34 37 35 35 38 39 38 37 39 40 43 39 36 34 40 34 38 40 41 43 42 46 50 53 54 53 54 54 55 55 56
50 50 50 50 50 50 50 50 50 50 51 51 51 50 50 50 51 49 46 45 45 40 35 35 37 37 38 37 37 38 37 36 36 36 37 35 39 38 38 41 41 47 42 42 45 50 50 51 53 53 54 53 54 55
50 50 50 50 50 50 50 50 50 50 51 51 52 51 51 51 51 44 38 43 46 46 40 34 34 35 36 39 41 39 36 37 37 35 33 38 41 41 33 36 46 46 49 51 50 52 51 52 53 53 52 52 53 54
50 50 50 50 50 50 50 50 50 51 51 51 51 51 51 51 49 42 39 42 48 47 40 34 34 37 42 43 34 34 36 35 35 36 35 38 41 43 38 38 46 46 48 53 53 51 50 52 50 50 50 52 52 54
50 50 50 50 50 50 50 50 50 51 51 51 51 52 51 51 50 47 49 49 49 44 42 35 34 38 45 42 38 43 34 35 40 39 42 41 42 42 38 44 46 51 52 52 52 52 52 53 54 52 51 49 48 51
50 50 50 50 50 50 50 50 50 51 51 51 52 51 49 47 45 45 49 49 48 43 36 37 34 34 45 42 44 43 43 38 43 40 41 42 38 37 42 45 48 50 51 51 51 51 51 51 52 52 50 48 47 48
50 50 50 50 50 50 50 50 51 51 51 51 46 43 41 45 49 51 48 43 42 42 41 34 39 36 41 43 41 40 42 38 34 38 43 38 38 44 49 50 50 51 51 51 49 48 49 50 50 51 51 52 51 50
49 49 49 50 50 50 50 50 50 51 48 43 41 40 43 49 49 45 39 36 38 34 37 38 38 37 45 39 41 44 40 39 34 40 38 36 36 42 48 50 51 51 51 51 50 51 51 50 50 50 51 52 52 52
49 49 49 50 50 50 50 50 50 48 45 45 46 48 44 44 43 37 36 36 33 34 39 40 42 44 45 47 43 42 38 39 35 43 37 33 38 46 49 50 51 52 52 52 51 50 51 52 52 52 52 53 53 53
50 50 50 50 50 50 50 50 50 50 49 46 43 42 41 41 39 33 32 38 40 40 42 43 43 45 46 46 42 41 40 40 44 35 32 36 42 48 49 50 51 52 52 52 53 54 53 50 52 52 52 53 52 51
50 50 50 50 49 50 50 50 50 49 46 43 39 37 40 39 41 42 43 43 45 45 45 44 46 44 45 43 44 40 42 40 36 33 34 43 47 49 49 50 50 49 50 50 50 49 50 50 49 50 51 52 50 49
50 50 50 49 50 49 50 50 51 47 46 42 42 37 40 44 44 43 43 43 43 44 46 45 44 42 40 39 41 40 37 34 36 37 43 47 48 49 48 48 42 39 37 36 36 37 37 38 40 42 43 44 43 43
50 49 47 49 49 50 50 49 49 48 44 43 42 42 43 41 40 40 40 41 42 41 43 43 40 39 40 40 38 37 35 35 40 44 47 48 48 48 47 47 41 35 33 32 33 33 33 34 35 36 37 37 39 41
50 45 48 49 49 50 50 48 46 42 43 43 43 45 44 43 42 40 38 41 40 42 40 42 38 40 42 39 38 42 40 43 45 46 47 48 47 48 48 46 43 37 34 30 31 32 33 33 34 34 35 37 39 40
45 46 48 49 50 48 48 47 42 42 42 43 41 42 43 43 42 41 41 37 35 36 42 42 43 39 39 38 40 44 45 47 47 47 48 49 48 45 45 42 40 33 31 30 30 31 32 33 34 34 35 38 40 40
46 47 49 50 50 46 46 43 43 40 42 42 44 43 42 43 43 42 40 39 36 35 36 37 36 36 38 41 42 43 44 45 46 47 44 42 45 44 42 36 34 32 32 32 31 32 33 33 34 35 36 38 38 39
50 50 51 52 50 45 40 40 44 40 39 42 44 42 41 41 41 40 40 39 39 37 33 34 38 40 41 40 40 42 42 44 43 40 36 34 36 33 33 33 33 32 31 29 28 31 30 30 31 36 37 38 37 37
49 51 51 50 49 47 43 41 40 41 42 42 44 42 41 42 40 40 38 39 37 38 38 41 39 35 33 33 32 31 33 39 38 37 37 31 32 33 31 30 29 30 29 27 26 26 27 26 28 29 33 38 38 36
48 51 49 51 47 45 44 45 42 45 44 44 43 43 40 40 40 41 41 39 39 43 43 41 40 40 33 32 32 32 32 34 35 35 34 31 27 27 29 30 27 27 28 29 27 25 25 26 27 27 28 32 38 33
49 49 49 48 44 39 40 47 43 47 45 44 45 41 41 41 41 41 38 42 42 43 42 42 40 38 33 32 31 30 31 32 32 34 32 28 26 26 26 27 27 26 25 25 25 24 24 29 27 27 29 31 32 31
50 47 45 44 44 40 46 42 44 45 44 41 39 36 40 44 43 38 36 39 41 42 40 40 36 31 30 29 28 27 29 29 27 26 29 28 25 25 25 25 26 26 25 25 24 23 24 25 29 28 28 27 27 25
39 40 42 35 42 41 41 40 39 39 39 41 39 39 38 42 36 35 35 38 40 40 40 38 31 30 28 27 26 25 25 26 25 23 24 26 25 23 23 24 24 25 26 23 22 22 23 25 26 25 26 27 25 25
38 43 38 41 40 40 41 38 39 40 39 39 41 41 43 38 35 33 36 39 40 40 42 38 28 27 26 25 23 22 22 23 23 22 22 23 24 24 23 23 23 23 26 25 22 22 24 25 25 24 24 25 29 26
36 39 43 45 44 43 41 42 41 36 35 36 40 38 35 33 32 35 38 40 41 44 32 30 28 26 25 24 24 23 22 21 22 22 22 22 23 24 24 22 22 24 26 25 24 23 24 24 24 23 23 23 24 24
41 43 38 43 43 45 41 36 36 34 35 37 38 36 33 33 30 36 39 41 41 38 25 25 26 26 25 24 24 24 22 21 19 19 19 21 22 23 24 24 25 32 27 27 25 25 25 25 24 24 22 22 23 24
43 44 44 42 43 42 40 36 36 37 37 39 37 36 37 40 40 40 41 38 27 26 24 24 24 25 25 25 24 22 21 20 18 18 18 19 22 23 25 25 24 24 25 24 31 30 25 25 24 24 23 22 23 23
44 46 42 43 38 36 38 38 37 38 38 40 40 40 40 40 42 42 35 27 24 24 25 24 24 24 24 23 22 22 22 22 21 20 20 20 21 23 25 25 25 24 24 24 22 21 29 25 26 24 25 24 24 25
46 45 42 40 38 42 44 45 46 45 40 38 40 39 38 40 41 38 29 25 24 24 25 24 24 24 24 24 22 21 20 22 22 22 22 22 23 23 24 24 24 25 25 24 23 23 23 24 24 25 25 25 26 28
40 40 40 39 40 43 41 40 40 42 40 39 39 41 41 42 39 40 34 27 25 25 29 26 24 24 24 25 25 25 29 22 22 22 22 23 23 23 23 24 24 25 25 25 25 25 24 24 25 25 26 26 27 28
35 36 40 41 41 40 42 43 43 43 41 40 41 43 42 41 38 36 33 29 26 26 26 26 26 25 25 26 25 24 27 23 25 29 29 29 28 27 24 24 24 25 25 25 26 26 26 26 26 27 27 28 28 28

GFSWCAN_sfc_dewp_024.txt.gz
Dewpoint
50 50 50 50 50 50 51 51 51 51 50 50 50 49 49 49 50 46 44 45 43 39 35 35 35 34 32 32 30 32 32 34 35 32 29 29 27 28 27 25 29 28 29 29 27 28 24 50 51 49 50 56 55 57
50 50 50 50 50 50 51 51 51 51 51 50 50 50 50 50 50 49 43 44 46 42 39 39 38 37 35 35 32 35 34 33 33 32 32 32 30 32 32 27 33 29 34 33 28 28 40 52 53 55 56 54 55 56
50 50 50 50 50 50 50 51 51 51 51 51 50 50 51 51 50 50 45 46 44 41 35 35 36 38 39 38 37 35 38 36 38 41 37 36 32 34 30 33 34 35 37 36 38 40 41 53 54 55 55 55 56 57
50 50 50 50 50 50 50 50 50 50 51 51 51 51 51 52 51 50 46 46 44 41 34 32 37 36 37 39 39 37 36 39 40 42 37 35 34 38 35 36 35 35 35 36 37 40 50 53 52 53 54 55 56 56
50 50 50 50 50 50 50 50 50 51 51 51 51 51 51 51 51 50 48 46 46 39 33 33 37 37 37 37 38 38 37 36 37 38 37 36 39 38 38 36 33 36 36 37 39 41 48 50 51 53 53 53 56 56
49 49 50 50 50 50 50 50 51 51 51 51 51 52 52 52 51 46 39 44 47 46 39 35 37 35 36 38 37 36 37 37 37 37 36 38 41 38 33 33 38 45 46 48 45 48 50 52 53 53 53 54 56 56
49 50 50 50 50 50 50 50 50 50 51 51 51 52 52 52 49 43 41 45 47 47 40 34 35 38 39 42 38 38 37 38 36 37 35 35 38 40 36 32 36 41 45 47 48 52 51 52 51 53 53 54 55 56
50 50 50 50 50 50 50 50 50 50 51 51 51 52 52 51 50 47 49 49 48 44 41 34 35 38 41 39 38 38 35 36 37 38 41 39 41 41 32 37 39 42 44 47 51 53 53 53 52 52 52 53 52 52
49 50 50 50 50 50 50 50 50 51 51 51 51 51 49 48 46 46 50 51 49 42 35 36 34 33 43 42 42 41 42 38 43 39 40 40 35 32 37 41 47 49 48 50 52 53 52 51 51 52 52 52 52 52
49 49 49 50 50 50 50 50 50 51 51 50 45 41 41 45 49 50 47 43 41 41 40 35 39 35 41 42 41 40 42 38 35 37 42 35 34 39 46 50 50 50 51 51 49 49 50 49 50 51 52 52 52 52
49 49 50 50 50 50 50 50 51 50 48 43 41 39 44 48 49 45 39 36 36 34 35 36 37 36 43 38 40 42 39 38 33 39 37 35 35 43 48 50 51 52 52 52 51 52 52 52 51 51 52 52 52 53
49 49 49 50 50 50 50 50 50 49 45 46 47 48 46 44 43 38 37 36 33 34 39 38 41 41 43 45 42 42 37 39 34 42 36 32 42 47 48 49 51 53 53 53 53 53 52 53 54 53 52 52 52 53
48 48 50 50 50 50 51 50 50 51 49 46 43 40 43 43 38 36 34 39 41 42 42 42 42 45 46 46 42 42 39 37 42 35 31 39 46 47 46 46 46 47 49 50 50 51 51 50 51 51 51 52 53 54
48 50 50 50 50 50 50 50 51 49 45 41 39 37 41 38 40 42 41 42 44 45 44 44 44 43 43 41 43 39 41 40 35 32 35 42 44 44 44 44 44 44 44 44 45 44 43 43 41 43 43 47 50 50
50 50 50 50 49 50 50 51 51 47 45 41 42 37 40 44 44 44 44 41 40 44 44 43 42 41 41 40 41 39 37 33 35 37 41 44 45 44 42 41 38 39 39 40 41 38 38 42 41 39 41 42 42 42
50 49 46 49 49 50 50 49 49 46 45 43 42 40 42 38 37 37 36 36 35 42 43 42 41 39 40 41 38 37 35 35 40 44 46 47 46 46 44 40 34 32 32 35 39 37 37 37 38 40 40 40 39 39
50 45 48 49 50 50 49 46 44 44 44 42 41 42 41 41 40 38 36 33 35 38 41 42 39 39 42 38 39 41 40 42 44 44 46 46 44 42 41 38 36 33 33 33 34 35 36 38 38 39 39 39 38 39
44 45 49 49 50 48 48 44 43 42 40 41 39 41 42 41 40 39 39 38 33 34 41 39 40 37 36 35 36 40 42 44 45 42 42 44 41 40 38 36 34 33 33 33 33 34 35 36 37 37 38 39 38 38
46 48 49 50 50 46 43 41 43 40 41 41 42 42 40 41 40 40 38 38 37 35 35 36 35 35 36 39 39 39 41 42 41 41 39 38 37 37 37 32 30 28 27 28 29 30 32 34 37 38 38 37 36 37
50 50 51 51 49 43 39 41 43 40 39 40 41 40 40 40 41 39 38 38 37 38 35 33 35 37 38 39 40 39 40 41 42 34 32 33 32 30 31 31 29 27 26 26 26 30 28 31 32 36 37 35 33 33
48 50 51 50 48 45 42 41 41 41 41 39 42 41 39 41 40 40 39 39 38 37 36 39 38 35 33 33 33 33 35 36 35 33 33 29 31 31 29 29 28 26 25 25 25 26 28 27 28 32 35 32 31 31
47 50 48 50 46 44 43 44 42 44 43 43 44 44 39 38 38 39 40 38 38 39 39 38 38 36 31 31 32 31 33 35 33 31 31 30 27 27 28 29 27 26 26 26 26 25 26 27 30 33 35 31 30 29
49 49 48 47 43 37 39 46 42 43 39 41 41 38 39 39 40 40 37 38 38 40 39 38 36 33 30 30 30 30 30 31 30 29 28 26 26 26 26 27 27 26 24 24 25 25 27 31 32 30 29 28 26 26
49 46 44 43 43 39 44 41 44 43 42 39 38 35 38 41 40 37 34 37 39 40 38 35 32 27 27 28 26 26 27 28 26 26 27 26 24 24 25 26 26 26 25 24 24 25 27 28 30 27 26 25 24 24
39 40 40 32 40 40 39 39 39 39 38 39 38 37 37 39 35 34 34 37 39 39 39 33 31 28 25 24 24 24 25 24 23 23 24 25 24 24 24 25 25 26 26 23 24 25 26 26 27 27 26 24 24 23
35 41 36 39 38 38 39 36 38 39 39 39 39 40 40 36 33 32 34 37 39 40 39 37 28 25 24 24 21 21 22 23 23 22 23 23 24 23 23 23 23 23 26 26 24 25 25 25 25 25 25 26 29 24
33 37 41 44 42 42 39 40 40 36 35 36 39 37 35 31 28 32 37 39 40 42 36 34 29 25 23 22 23 23 22 21 24 23 23 23 24 24 24 23 23 24 27 26 25 26 25 24 24 23 23 24 25 23
40 42 37 41 42 43 40 36 34 32 34 37 37 34 32 30 27 33 38 40 40 37 26 26 27 25 24 24 24 22 21 21 21 21 21 23 24 24 25 25 26 31 28 29 26 27 26 25 24 23 23 23 23 24
41 43 42 40 42 42 42 36 33 36 37 39 35 34 35 38 39 39 41 37 27 25 25 25 25 25 24 23 23 22 21 20 20 19 20 21 22 23 25 25 25 25 25 24 30 32 28 26 25 24 24 24 24 26
44 45 40 41 39 37 38 38 35 38 39 39 39 39 40 40 41 42 36 26 26 26 26 25 25 24 23 22 22 23 23 22 21 21 21 21 22 23 25 25 25 25 25 24 23 24 30 27 27 26 26 26 28 29
46 45 42 41 40 41 43 44 45 46 43 40 41 38 37 41 42 38 31 27 26 26 25 24 24 24 24 23 23 22 21 22 23 23 23 23 23 24 25 25 25 26 27 26 25 24 24 25 26 26 27 27 28 29
44 42 41 38 39 43 42 41 41 42 43 41 41 43 42 42 41 41 33 26 26 25 29 26 24 24 25 25 26 25 28 23 23 23 25 24 24 24 24 24 25 26 27 27 26 26 26 26 26 27 28 28 28 28
37 38 40 42 41 39 41 41 40 41 41 39 39 42 43 41 40 42 35 30 27 26 26 26 26 26 27 30 28 26 28 25 27 29 30 30 30 29 25 24 25 26 26 27 27 27 27 27 28 28 28 28 28 28

GFSWCAN_sfc_dewp_027.txt.gz
Dewpoint
50 50 50 50 50 50 50 51 51 51 51 50 50 50 50 51 52 50 46 48 45 39 38 36 35 33 33 33 30 30 31 34 34 33 27 25 27 24 27 21 22 25 27 26 24 19 15 26 35 30 45 54 55 56
50 49 49 50 50 50 50 51 51 51 51 51 50 50 51 51 52 52 45 47 48 42 40 39 38 38 35 34 32 33 31 33 36 34 34 34 32 32 30 26 29 26 27 28 27 23 33 36 43 52 56 56 56 57
50 50 50 50 50 50 50 51 51 51 51 52 50 51 51 52 52 52 47 45 45 41 38 36 34 35 38 39 38 34 37 35 34 38 37 36 31 34 30 30 31 34 36 33 30 29 33 34 39 40 54 56 57 57
49 49 50 50 50 50 51 51 51 51 51 51 50 51 52 52 53 52 48 47 45 42 36 34 35 36 37 38 38 37 35 37 39 42 36 35 34 38 34 33 34 32 35 33 34 35 37 39 41 42 46 56 57 57
49 49 50 50 50 50 51 51 51 51 51 51 50 51 52 52 53 52 51 48 48 42 36 34 38 37 36 38 38 38 37 35 35 38 37 35 38 37 38 37 34 35 33 34 31 35 38 43 40 46 53 55 57 57
50 50 50 50 50 50 50 51 51 51 51 51 51 51 52 52 52 48 43 47 49 47 39 35 38 38 37 38 38 38 38 38 39 37 36 36 38 39 34 34 34 37 39 41 38 40 42 46 48 52 54 56 57 58
50 50 50 50 50 50 50 50 51 51 51 50 51 52 51 52 50 45 42 46 48 48 39 35 34 38 39 42 39 37 37 37 38 38 36 37 38 39 34 32 35 38 41 40 44 45 43 47 48 54 55 56 57 59
49 50 49 49 50 50 50 50 51 51 51 51 51 52 52 51 50 47 49 48 48 44 41 35 34 38 43 41 41 38 37 38 39 38 39 37 39 38 32 37 38 40 41 41 41 43 48 50 54 54 55 56 56 56
49 49 49 50 49 49 49 50 50 51 51 51 51 51 49 49 46 47 50 50 49 43 36 36 34 34 42 42 44 43 41 37 41 36 38 39 34 32 36 39 41 48 43 43 43 45 48 51 52 54 55 56 54 54
49 49 48 48 49 49 49 50 50 51 51 49 48 42 43 46 50 49 47 42 42 42 40 35 38 35 40 41 42 40 42 38 35 37 41 34 33 41 46 49 51 49 48 50 48 48 51 52 53 54 55 56 55 54
49 48 48 48 49 49 50 51 51 51 49 46 44 43 46 48 49 46 38 37 36 35 36 37 37 36 43 38 39 42 39 37 33 38 37 34 35 42 46 46 47 52 53 53 53 53 53 54 53 53 53 54 55 56
48 48 48 49 49 50 51 50 50 49 48 48 47 48 47 46 44 40 39 37 35 36 40 38 41 40 42 45 42 43 39 39 35 42 36 32 40 43 45 47 47 48 48 48 48 50 52 53 54 54 54 55 56 56
48 48 49 50 50 51 50 51 51 50 49 48 45 45 44 44 37 36 34 38 40 45 45 45 44 47 48 48 43 43 39 38 43 36 32 37 41 43 44 45 44 45 45 47 48 47 48 50 49 51 52 52 53 52
48 49 50 50 51 50 51 51 51 49 48 44 43 37 39 37 39 40 40 40 43 46 45 47 46 44 45 43 43 38 41 39 36 32 33 40 44 44 43 42 43 43 44 45 46 47 46 46 45 45 45 47 46 45
49 50 50 49 49 51 51 51 50 50 47 44 43 37 40 42 43 43 44 37 37 40 45 46 45 42 42 41 41 39 37 34 35 35 40 45 45 43 41 39 38 39 39 41 42 41 44 46 44 42 43 44 44 44
50 50 47 49 50 51 50 50 50 49 50 45 43 40 41 36 35 35 36 35 35 40 44 42 40 39 40 41 38 37 36 34 39 42 46 46 43 41 40 38 38 38 38 39 40 40 41 41 41 41 41 41 42 43
50 47 48 49 50 50 50 49 48 46 44 42 40 44 43 41 38 36 36 35 37 38 39 39 36 38 41 37 35 36 35 40 41 42 44 42 41 40 39 36 36 36 37 38 39 41 41 40 40 41 41 41 41 41
46 47 49 50 50 50 49 48 45 43 40 43 40 40 43 42 39 37 38 38 35 36 37 37 37 34 35 34 36 39 42 43 44 41 37 40 41 39 37 35 36 36 36 37 39 39 39 39 39 38 38 39 38 38
48 49 50 50 51 49 45 45 46 40 42 42 45 43 40 42 41 40 39 39 38 38 37 35 31 32 34 38 38 38 40 43 41 37 34 36 36 36 36 34 33 34 33 34 35 35 36 38 37 36 35 35 34 34
50 50 51 51 50 46 42 45 47 42 39 41 46 41 41 39 40 38 37 37 35 32 30 30 30 34 35 35 38 39 38 39 40 32 31 31 32 34 34 31 29 30 27 30 28 32 34 35 34 33 32 32 31 31
49 51 51 52 50 47 45 43 44 44 43 43 46 43 45 43 40 37 37 39 33 35 33 39 33 33 36 36 35 36 34 35 33 32 31 29 30 29 27 27 27 24 23 23 23 26 30 32 33 31 30 29 28 27
50 51 51 52 48 46 47 47 46 47 46 47 46 45 41 41 40 40 41 36 40 43 44 40 40 34 33 36 35 35 36 36 35 29 31 30 26 26 26 25 23 22 22 24 26 27 31 33 30 28 27 26 27 25
50 50 50 49 45 43 45 50 46 47 42 45 45 41 43 43 44 42 40 43 44 45 43 41 40 37 34 34 36 35 35 34 28 28 27 26 27 27 25 25 23 23 22 26 29 30 31 31 29 27 26 25 25 24
49 49 47 45 45 41 47 45 47 46 45 43 43 40 43 46 45 40 38 39 41 42 39 40 35 30 31 34 28 28 29 28 26 27 27 25 24 25 26 25 25 23 25 25 26 27 26 26 28 23 23 22 22 22
43 44 44 39 44 42 40 41 41 41 41 42 41 41 43 45 39 37 36 36 41 41 40 37 33 30 27 26 26 26 29 25 23 23 24 25 24 23 24 24 24 25 25 23 23 23 25 24 24 23 22 22 23 22
39 44 43 41 42 40 42 38 39 40 40 41 42 44 43 40 30 28 35 38 40 40 40 37 34 29 27 26 24 23 23 24 24 22 24 24 24 23 22 22 21 22 26 26 24 24 23 24 23 23 23 23 28 22
38 40 46 48 47 46 43 42 42 38 36 37 41 40 37 29 27 31 38 40 39 42 41 33 33 29 26 23 24 24 23 23 26 24 25 25 24 25 24 23 23 24 27 26 25 25 23 23 22 21 21 23 23 22
44 46 41 45 47 46 43 39 35 32 34 39 39 35 31 29 26 34 38 42 41 39 30 29 29 26 23 24 24 23 22 21 22 22 22 24 25 24 26 25 25 31 27 27 25 25 25 24 23 22 22 22 24 25
44 45 44 42 43 44 44 40 33 34 37 39 37 31 34 38 39 38 41 41 33 29 27 27 27 26 25 25 24 23 22 21 22 21 21 20 21 22 24 25 25 25 25 23 32 30 27 25 24 23 24 25 27 29
45 45 42 41 41 39 40 41 39 38 39 41 39 40 41 42 42 44 39 32 29 28 27 27 26 25 24 24 23 23 23 22 21 21 21 21 21 23 24 24 25 25 25 24 24 24 31 27 28 26 26 26 27 29
47 47 43 43 42 44 46 45 47 47 45 42 42 40 43 45 46 46 43 39 30 29 26 25 25 25 25 25 25 25 23 23 24 24 24 23 23 24 25 25 25 25 26 25 25 24 25 25 26 26 27 27 27 28
46 45 43 41 42 45 45 42 41 43 45 42 42 44 44 45 44 49 43 31 28 27 31 28 25 25 26 26 27 27 29 24 24 25 25 25 25 25 25 24 25 25 26 26 26 26 26 26 26 27 26 27 27 28
41 41 43 41 43 42 43 44 42 42 42 40 41 42 42 41 41 47 40 32 29 27 28 27 26 27 30 28 28 28 30 27 28 30 30 30 32 30 27 25 25 27 26 27 26 26 27 27 27 27 27 27 27 28

GFSWCAN_sfc_dewp_030.txt.gz
Dewpoint
50 50 50 50 51 51 51 51 51 51 51 51 51 50 51 51 52 51 48 49 45 40 37 36 34 34 33 33 31 29 30 29 27 32 23 21 18 17 16 17 16 20 19 17 19 18 15 19 21 25 42 47 48 49
50 50 50 50 50 50 51 51 51 51 52 51 50 51 52 52 52 53 48 48 49 43 40 40 40 39 36 36 34 36 30 31 34 35 36 33 32 32 29 21 23 19 20 19 19 18 28 29 26 32 38 40 43 50
50 49 50 50 50 50 51 51 51 51 52 51 50 51 52 52 52 52 49 47 46 42 39 39 35 35 36 37 37 35 35 33 31 32 36 36 34 25 26 22 25 26 28 26 26 25 29 30 32 34 34 36 40 42
49 50 50 50 50 51 51 51 51 51 51 50 51 51 52 52 52 52 50 47 47 43 37 34 35 35 37 36 36 37 36 36 34 42 39 37 34 32 33 28 27 27 29 30 32 33 32 29 29 31 35 36 35 37
50 50 50 50 50 50 51 51 51 51 50 50 51 52 52 52 52 53 53 49 49 43 37 36 39 37 35 37 36 37 37 35 36 38 37 35 37 35 33 32 31 31 31 29 27 33 34 36 35 36 34 39 40 45
50 50 50 50 50 50 50 51 50 50 50 51 51 52 52 52 52 49 42 48 50 48 40 36 35 36 37 38 39 38 37 37 41 37 37 38 37 38 35 34 33 33 34 34 35 36 36 37 40 40 43 45 45 48
50 49 50 50 49 50 50 51 50 51 51 51 52 52 52 52 51 46 44 47 49 49 40 36 33 37 39 40 42 40 41 41 40 37 35 36 37 39 34 32 36 39 42 41 40 40 40 40 39 44 44 47 49 53
49 50 49 50 49 50 50 49 50 51 51 51 52 52 52 51 50 48 50 49 49 45 41 36 35 37 43 42 41 45 39 39 38 36 37 36 36 36 32 36 38 39 39 41 41 42 40 40 44 46 49 50 53 56
49 50 48 49 49 50 49 50 50 51 52 51 52 51 49 49 47 49 50 49 50 44 37 36 35 35 43 41 44 42 41 35 40 35 35 36 34 32 34 41 45 47 47 41 41 41 42 43 43 46 51 53 55 57
49 48 48 48 48 49 50 51 51 52 51 51 49 44 44 46 51 50 46 43 43 43 41 36 38 35 40 41 41 41 42 37 35 37 42 34 33 40 42 45 47 48 46 45 43 44 45 44 46 50 50 54 56 57
49 48 48 49 49 50 51 51 51 51 50 48 46 44 47 50 49 46 40 38 38 36 38 38 38 37 43 38 40 43 39 39 37 40 39 37 35 40 43 45 47 48 48 49 51 50 50 50 53 53 54 57 57 57
48 48 49 49 50 51 51 51 51 51 49 48 47 48 48 47 46 42 40 41 39 39 45 41 43 42 43 45 42 45 42 42 37 44 37 33 39 43 43 44 46 47 48 48 48 48 49 49 50 50 51 51 54 54
48 49 49 50 51 51 51 52 51 50 50 49 48 44 43 43 38 36 34 39 40 43 45 46 46 48 48 49 47 44 38 39 42 38 33 38 43 42 44 44 45 46 48 49 47 47 47 47 48 48 49 50 51 51
49 50 50 50 51 51 52 51 51 50 49 46 42 39 40 38 39 40 41 41 41 41 40 45 45 45 44 43 42 39 41 39 37 33 34 40 40 41 42 42 44 44 46 46 46 46 47 46 47 47 48 48 48 50
50 50 50 50 50 51 51 51 51 51 44 42 42 40 39 39 39 37 37 37 39 40 42 41 41 38 39 41 41 40 37 37 37 36 41 41 42 41 40 40 40 40 41 42 42 43 44 45 45 46 47 48 48 47
50 50 49 49 50 51 51 51 48 46 45 40 40 37 38 35 33 34 35 35 37 39 44 41 39 38 35 39 37 36 36 34 39 41 39 39 42 42 41 40 40 40 41 41 42 41 42 43 43 43 43 43 42 44
50 48 50 50 50 51 51 48 45 42 40 38 36 37 36 36 35 33 33 34 37 36 36 36 35 36 36 34 37 38 36 38 41 38 36 41 41 41 41 40 40 40 41 41 41 42 41 41 41 41 42 42 41 42
49 49 51 50 51 51 49 46 42 39 37 38 37 37 35 34 34 34 34 33 36 36 35 33 32 31 30 29 33 36 39 43 42 37 36 39 41 43 40 39 39 38 38 39 40 40 41 39 38 36 39 40 38 38
50 50 50 51 51 50 44 44 44 37 38 39 41 39 37 35 35 34 34 34 33 33 33 31 30 28 28 29 31 33 35 36 38 35 34 39 40 40 39 36 35 34 34 34 32 33 36 39 36 34 34 34 32 32
50 50 51 52 51 47 42 45 48 40 39 40 42 41 40 37 34 33 33 32 30 31 30 29 28 29 28 29 30 31 32 35 34 33 32 32 32 34 35 33 28 30 26 28 26 30 30 33 33 32 31 32 31 30
50 52 52 53 52 49 46 45 44 43 42 41 45 45 42 41 36 34 33 33 31 31 30 32 31 30 37 37 34 32 32 33 30 30 30 28 30 29 28 27 28 24 23 23 24 27 31 31 31 30 30 29 29 28
52 51 53 54 48 48 48 49 46 48 45 43 44 44 40 37 36 34 36 34 33 34 35 33 33 31 31 36 35 37 37 36 34 28 32 30 26 26 26 25 23 22 22 25 27 28 29 29 29 29 28 27 28 25
52 52 52 50 46 45 46 51 47 47 43 43 44 40 42 42 41 41 34 36 36 37 37 36 39 39 36 37 36 34 34 33 25 25 26 25 27 27 25 25 23 22 22 24 26 27 27 30 27 25 25 24 24 23
50 51 47 45 45 43 49 46 48 47 46 44 43 39 41 43 43 36 31 33 34 39 37 42 37 32 31 37 27 27 28 26 24 24 25 23 22 23 25 23 23 23 23 23 23 23 23 23 27 22 23 23 23 22
45 44 46 40 46 42 38 39 41 40 39 41 41 39 43 45 36 32 28 30 32 33 36 38 35 32 27 25 26 26 31 25 23 23 24 23 23 21 22 22 22 24 23 23 22 23 23 23 24 24 24 23 23 23
41 44 43 41 43 39 39 31 32 34 36 37 40 44 43 39 28 24 29 32 34 34 34 32 30 28 27 27 24 23 24 25 25 22 23 22 22 22 22 21 21 22 24 24 23 23 23 23 23 23 21 23 27 23
39 39 46 49 47 46 42 39 39 34 33 33 37 38 35 27 23 27 32 35 34 35 39 34 31 29 27 26 27 28 25 25 26 24 25 24 23 23 23 22 22 23 25 25 24 23 23 23 22 21 21 22 23 24
44 46 41 45 46 44 40 39 32 28 29 36 36 32 28 27 29 31 33 36 37 39 34 30 30 28 27 26 25 25 25 24 24 24 23 23 25 23 25 23 24 31 26 25 23 23 23 23 23 23 23 23 24 25
46 45 44 43 42 42 42 39 34 32 34 34 34 33 32 36 37 36 42 38 38 35 31 28 27 27 27 27 27 25 24 22 23 23 23 21 22 22 24 23 23 23 23 23 31 27 26 23 24 24 25 25 26 28
43 45 42 40 39 38 40 40 39 38 37 36 38 39 37 39 41 45 41 39 37 35 35 29 27 26 27 26 25 25 24 23 23 22 22 22 22 23 25 25 24 24 24 23 23 24 29 27 28 26 26 26 26 27
47 45 43 42 39 41 44 45 45 43 42 39 39 38 39 44 46 46 44 44 41 37 30 27 27 28 28 26 25 22 21 24 25 26 25 24 24 25 26 26 25 25 26 25 25 24 25 25 25 26 26 26 27 27
45 44 43 40 38 45 46 43 42 42 43 43 41 43 43 44 43 47 41 36 36 32 31 31 29 27 27 25 25 25 27 24 25 26 27 26 25 26 26 25 24 25 26 25 25 25 26 26 26 26 26 27 27 27
41 41 42 39 40 41 42 43 42 42 41 41 43 43 43 41 43 44 37 33 31 29 30 29 28 28 31 28 28 27 28 27 30 29 29 30 30 29 26 25 25 26 26 26 26 26 27 27 27 27 27 27 27 27

GFSWCAN_sfc_dewp_033.txt.gz
Dewpoint
51 50 50 50 50 51 51 51 51 52 52 51 51 51 52 52 52 52 50 51 45 40 39 39 38 38 35 34 34 31 29 28 24 31 26 25 16 17 13 17 18 23 19 18 21 22 23 26 23 29 41 45 45 48
50 50 50 50 50 51 51 51 51 51 51 50 51 51 52 52 52 52 49 51 50 44 41 41 41 40 39 37 36 37 31 31 34 35 37 32 28 23 25 19 19 16 20 20 20 20 31 30 30 30 30 37 39 40
50 50 50 50 51 51 51 51 51 50 50 51 51 52 52 52 52 52 51 49 47 42 41 39 37 40 39 38 37 37 35 33 31 31 31 36 34 26 23 20 23 26 27 20 24 26 28 27 27 28 30 33 35 35
50 50 50 50 50 51 51 51 50 51 51 51 52 52 52 52 53 52 48 48 48 44 37 36 36 35 35 38 36 36 36 36 37 35 39 37 31 32 31 28 28 28 30 28 27 28 30 31 31 31 31 34 32 33
50 50 50 50 50 50 51 51 51 51 51 51 51 52 52 52 52 53 52 48 49 45 39 37 40 37 37 37 37 38 38 42 42 39 38 36 37 35 32 31 29 29 29 27 27 33 33 35 34 36 34 32 33 35
50 50 50 50 50 51 51 51 51 51 51 51 52 52 52 51 52 51 45 48 50 49 42 37 36 39 41 41 41 42 44 44 42 38 37 39 39 39 34 34 33 35 37 38 36 36 35 35 38 36 36 35 35 39
49 50 49 50 51 51 50 50 50 50 51 52 52 53 51 52 49 44 43 45 49 49 41 37 38 41 42 44 44 43 44 43 40 36 35 36 37 38 35 34 36 37 39 41 41 40 41 39 37 38 38 37 40 39
50 50 50 50 49 50 49 49 51 51 52 52 52 52 51 50 48 50 48 48 49 45 42 37 37 40 44 41 41 44 39 39 38 37 36 35 37 36 32 37 38 41 45 44 40 39 39 40 42 42 41 41 40 41
50 49 49 49 50 50 50 51 51 52 52 51 52 52 50 48 48 50 49 49 49 44 37 37 36 36 42 41 44 42 40 36 40 36 36 35 34 32 34 40 44 47 47 42 44 41 40 40 41 42 41 43 46 46
50 49 49 49 50 50 51 51 52 52 51 51 50 47 46 47 51 49 48 45 43 43 42 37 39 37 41 42 41 42 42 39 35 41 42 37 33 41 43 45 46 48 50 43 41 41 41 42 42 41 43 45 48 50
50 50 50 50 50 51 51 52 52 51 51 49 46 45 48 51 49 48 45 41 42 41 44 43 40 40 43 40 41 44 42 41 39 39 35 38 36 41 44 45 47 48 48 49 49 49 47 47 47 46 48 51 54 54
50 50 50 50 51 51 52 52 52 51 49 48 48 49 49 46 45 41 41 43 43 43 46 46 46 44 45 46 44 47 42 39 35 35 36 34 40 44 44 45 46 48 49 48 49 49 49 50 51 51 51 51 52 52
50 51 51 51 51 51 52 52 51 50 50 50 48 44 42 43 41 39 36 40 41 41 42 43 47 46 49 49 48 41 35 37 35 38 33 39 43 42 44 44 44 45 46 48 49 50 49 49 50 50 50 50 50 50
50 51 51 51 51 52 52 52 51 51 50 42 40 40 40 39 38 41 40 37 38 39 39 44 42 44 41 42 40 38 39 36 35 34 35 42 42 43 42 42 43 42 42 43 44 48 48 48 48 48 49 50 49 49
51 50 51 51 51 52 52 51 52 52 43 40 39 41 38 34 34 35 35 36 38 39 39 41 38 35 36 37 37 37 35 37 38 36 38 38 43 43 43 40 41 40 40 40 41 41 45 47 46 45 47 47 47 46
51 50 51 51 51 51 51 52 49 45 42 39 36 33 32 30 28 29 31 32 35 36 42 41 37 36 33 33 34 36 36 34 37 41 37 38 43 44 44 41 41 40 41 40 41 41 40 41 42 44 42 42 41 42
50 50 51 51 51 51 51 48 45 41 39 36 34 32 31 30 30 30 32 32 36 35 34 35 33 33 33 30 34 39 39 41 43 41 35 42 45 45 43 40 38 37 38 37 39 40 40 40 40 39 42 42 40 41
50 50 51 51 51 53 48 45 41 40 37 37 36 35 34 32 32 31 31 33 32 35 34 32 32 30 29 29 32 32 33 35 45 39 36 41 44 43 39 39 37 36 35 35 34 37 39 37 37 34 38 37 36 36
51 51 51 51 52 51 44 43 44 38 37 39 39 37 36 33 34 34 32 32 33 33 33 31 29 27 28 29 29 29 30 30 31 37 36 40 41 39 39 36 35 33 32 32 32 27 32 36 33 32 32 33 31 32
51 51 51 52 52 48 42 44 46 40 37 38 40 40 38 36 34 33 33 32 31 30 30 28 28 28 28 30 30 28 30 30 29 29 30 30 31 34 35 32 27 29 25 29 28 31 29 29 29 30 30 30 29 28
50 52 53 54 52 48 44 43 42 41 41 39 41 42 39 38 32 32 33 33 31 30 29 30 29 31 37 35 33 31 32 32 30 28 27 24 26 27 27 26 26 23 23 25 27 28 30 28 28 28 28 27 26 25
52 52 53 53 48 47 47 48 44 46 42 40 39 39 37 36 34 32 35 34 33 32 32 32 32 30 31 37 35 36 37 37 34 28 33 29 25 25 25 24 23 22 23 25 26 26 27 26 25 26 25 24 26 23
52 53 52 49 46 46 45 49 44 43 40 39 39 36 37 38 38 39 33 34 35 36 37 35 39 41 38 36 37 35 35 33 25 25 26 24 24 26 25 24 23 23 23 24 24 24 24 28 26 23 24 24 23 23
49 52 48 43 44 43 46 43 44 42 42 39 38 35 36 38 41 35 30 32 33 37 35 41 36 31 32 39 28 27 30 26 24 24 25 23 21 23 24 23 22 23 23 23 22 23 23 24 28 23 24 23 23 23
47 45 46 42 44 38 34 33 35 36 34 35 35 36 37 41 35 30 29 30 33 34 36 37 32 30 28 28 24 24 33 24 23 24 24 23 22 21 22 22 22 24 23 23 22 23 23 23 23 23 23 23 23 24
39 41 43 36 39 37 35 31 30 30 32 32 35 38 40 36 30 26 30 32 34 35 34 32 31 29 28 27 25 24 24 24 25 22 23 22 22 21 22 22 21 22 23 24 23 22 23 23 23 23 21 23 28 23
38 35 41 45 42 42 39 37 37 34 30 31 32 34 34 30 27 31 33 37 36 37 38 36 33 31 31 29 30 27 25 25 27 25 25 24 23 24 23 22 23 24 23 24 24 24 23 23 22 22 22 23 24 24
41 42 39 40 41 40 38 37 33 31 31 33 33 32 33 29 31 35 35 37 40 39 38 35 35 32 30 29 27 24 23 23 25 25 23 23 24 23 26 24 24 30 25 25 23 23 25 24 24 23 24 25 26 28
43 41 38 38 39 38 38 37 35 35 35 30 30 30 32 36 38 37 39 40 39 38 36 34 32 31 29 29 27 26 23 21 22 23 23 21 21 22 24 24 23 24 23 24 31 28 25 22 25 25 26 26 28 28
41 41 37 37 36 35 42 39 34 33 34 35 36 36 36 37 41 43 42 41 41 40 40 37 34 31 28 27 24 24 23 23 22 22 22 22 22 23 25 25 25 25 25 25 24 25 31 27 29 27 28 26 26 26
38 39 38 37 36 36 36 35 36 39 41 38 36 37 35 41 44 46 44 44 43 42 36 33 31 30 26 25 24 21 18 23 27 27 25 23 24 25 26 26 25 25 26 26 26 25 25 25 26 26 26 27 27 27
39 38 37 35 34 38 39 36 33 34 35 37 36 38 41 43 46 49 41 39 38 36 32 31 29 28 28 24 23 23 28 24 26 26 28 26 25 27 26 26 25 25 27 27 27 27 27 26 26 26 26 27 27 27
37 34 34 34 34 34 37 36 36 37 35 35 38 41 38 40 42 42 38 36 34 31 30 29 28 29 31 27 27 26 28 29 30 32 32 31 30 29 26 25 25 26 25 27 27 27 28 29 28 28 27 27 27 27

GFSWCAN_sfc_dewp_036.txt.gz
Dewpoint
51 51 51 51 51 51 51 51 51 52 51 51 51 51 52 52 52 52 51 51 45 41 39 40 39 39 40 38 37 35 30 37 33 34 29 35 30 29 21 20 23 20 21 21 24 25 26 32 30 35 46 45 42 43
51 51 51 51 51 51 51 51 51 51 51 51 51 52 52 52 53 53 49 51 49 44 40 42 42 43 42 40 41 39 34 33 34 37 38 31 29 25 25 19 22 20 24 23 23 24 39 35 33 32 31 35 41 39
51 51 51 51 51 51 51 51 51 51 51 51 51 52 52 52 53 52 51 50 48 43 42 40 39 41 41 41 39 40 34 33 32 34 30 32 33 28 27 24 27 28 32 27 26 27 29 29 29 30 31 32 33 35
50 50 50 50 51 51 51 51 52 52 51 51 51 52 53 53 53 52 50 49 48 44 38 37 41 42 41 40 41 39 38 36 35 38 38 36 32 33 30 29 27 27 29 29 29 32 35 32 30 32 31 33 32 32
50 50 50 50 50 51 51 51 51 51 51 51 52 52 52 52 52 52 51 48 47 45 40 38 42 45 45 42 41 42 40 43 43 39 38 36 37 36 33 31 28 30 31 29 30 35 38 40 36 36 34 33 35 36
50 50 50 50 51 51 51 50 50 51 51 52 52 52 53 52 51 52 48 48 49 49 42 38 39 43 44 45 44 44 45 44 43 38 36 38 40 38 35 32 32 35 36 36 36 39 38 40 41 39 39 37 37 38
50 50 50 50 51 50 50 50 50 51 51 52 52 53 51 51 49 44 43 46 49 47 42 38 39 43 44 45 45 44 45 42 40 36 35 35 36 38 34 32 36 38 39 40 39 39 40 39 38 39 40 38 39 37
50 50 50 51 50 51 51 50 51 52 52 52 52 52 51 50 49 49 46 48 48 44 42 39 37 41 45 43 43 43 40 40 39 37 37 35 36 36 32 37 42 46 47 46 45 43 40 41 41 41 41 40 40 36
50 50 50 50 50 51 50 51 52 53 52 51 52 51 50 49 47 46 49 48 47 43 40 40 38 40 43 44 45 43 41 38 41 36 35 35 33 32 36 42 42 45 47 48 42 44 45 42 42 40 40 41 41 39
50 50 51 51 51 51 51 52 52 52 51 51 50 49 46 47 50 49 48 45 45 43 43 43 41 41 42 43 42 43 42 41 40 42 41 37 36 42 44 45 45 46 47 48 45 41 40 40 40 40 40 41 41 40
50 51 51 51 51 51 52 52 52 51 51 50 49 45 49 51 49 48 46 44 44 46 45 44 44 44 44 42 42 44 43 42 40 36 36 38 36 41 44 45 46 46 47 46 48 49 46 45 43 41 42 44 44 47
50 51 51 51 51 51 52 52 52 50 48 48 49 50 50 48 45 41 41 44 45 42 43 43 48 46 45 45 45 46 43 37 31 37 38 33 41 44 44 43 46 47 46 47 47 47 48 48 49 49 50 50 50 50
50 51 51 51 51 52 52 52 52 52 50 51 49 46 43 42 39 40 39 41 42 41 41 41 47 50 49 47 49 43 33 37 33 36 34 39 45 45 44 42 42 44 46 46 47 47 47 48 48 48 48 49 49 50
50 51 51 51 52 52 52 52 51 51 50 42 39 39 38 36 34 33 34 36 37 37 41 42 46 49 42 40 37 37 38 33 32 35 35 40 44 45 45 41 39 39 42 43 46 48 47 46 46 46 47 47 48 48
51 51 51 51 52 52 52 52 52 51 46 39 38 38 34 30 29 29 30 31 33 36 40 46 43 37 35 34 34 35 34 35 37 37 39 37 45 46 44 40 39 38 37 40 41 41 46 46 46 45 46 46 45 47
51 51 53 51 51 51 51 52 53 48 41 37 34 31 30 28 28 28 30 30 32 34 37 38 35 35 33 33 32 34 35 35 38 42 45 39 46 46 43 42 39 37 38 35 41 40 42 43 42 43 44 44 44 44
50 52 51 51 51 51 51 50 45 39 39 35 33 33 32 31 31 30 30 30 33 33 31 31 30 31 33 32 33 36 35 39 42 40 45 46 44 45 44 42 37 35 37 37 37 40 40 42 43 41 39 38 37 41
51 50 52 51 51 53 48 44 41 39 35 36 34 35 35 33 33 32 32 32 32 32 32 31 30 27 27 26 28 28 30 31 38 38 37 42 44 43 42 38 37 37 35 36 37 38 37 37 38 37 40 41 40 40
51 51 51 51 51 51 43 42 44 37 37 37 36 37 36 35 36 35 33 34 33 33 31 29 28 26 28 29 28 28 30 30 28 31 34 40 45 42 43 35 35 32 32 35 34 30 31 37 32 30 30 32 30 29
51 51 51 52 52 52 41 43 47 39 36 36 39 38 37 37 34 32 33 33 32 31 30 28 28 29 29 31 32 30 31 32 30 29 28 27 27 35 37 32 26 32 27 32 30 32 29 29 28 28 27 28 26 24
53 53 52 55 55 50 42 39 45 40 39 38 38 41 39 38 34 31 33 33 32 30 30 31 29 30 38 37 34 35 34 33 32 30 28 25 26 28 28 27 27 24 24 24 26 28 28 25 25 25 25 24 24 23
53 52 53 53 48 45 44 43 41 43 41 39 37 36 36 37 35 34 36 33 33 33 34 34 35 34 33 38 36 38 38 38 38 30 35 29 23 24 26 24 24 23 23 24 24 24 24 23 23 24 24 24 26 23
53 54 52 48 44 45 42 45 43 40 38 38 37 35 34 36 38 40 34 33 34 36 37 38 41 44 42 40 38 39 37 35 26 25 25 25 23 24 24 24 23 23 23 24 24 24 24 29 27 24 25 24 24 24
51 52 48 44 41 41 43 42 40 38 39 39 38 34 36 37 38 37 31 32 32 35 40 43 37 33 37 45 31 28 31 27 24 24 26 25 21 23 24 23 22 23 24 23 23 23 23 24 28 23 24 23 23 23
47 44 45 41 42 38 35 32 32 33 32 34 33 35 37 38 35 32 30 30 32 33 35 36 35 33 31 29 27 27 32 24 23 24 25 24 23 22 22 22 23 25 24 23 23 22 24 24 24 23 23 23 23 24
39 41 41 35 37 35 34 32 31 31 30 29 32 36 38 37 33 29 31 33 34 35 36 37 34 32 33 32 29 27 26 25 26 23 25 24 23 23 23 23 22 24 24 24 25 24 24 23 23 23 23 25 30 26
38 37 40 40 37 37 38 38 36 33 30 31 31 32 39 39 33 35 40 38 37 38 39 42 40 37 34 32 32 27 26 27 29 26 26 26 24 24 24 23 24 23 23 24 23 23 24 24 24 23 24 27 28 26
41 39 36 40 41 38 41 45 44 42 43 41 31 33 37 37 36 44 38 39 38 40 41 41 46 38 32 32 28 26 24 21 25 25 24 25 26 24 26 24 25 31 26 25 24 24 24 23 23 23 25 28 28 27
42 46 44 37 39 41 45 46 43 43 42 37 33 31 30 45 50 51 41 39 39 40 40 41 38 34 32 30 31 28 25 22 22 22 23 22 22 22 25 24 25 25 25 26 31 28 27 24 26 26 27 28 28 27
41 45 42 35 34 37 43 41 40 34 33 33 33 35 41 45 45 41 40 41 41 38 39 39 34 32 29 27 24 24 19 21 22 23 22 22 22 24 25 26 26 26 26 26 26 27 31 28 29 28 28 27 27 26
41 39 36 37 37 36 39 41 36 32 35 36 43 47 46 49 53 46 42 42 37 39 36 32 32 32 28 24 23 22 19 22 28 28 25 24 24 26 26 27 27 26 28 28 28 27 27 27 26 27 28 28 27 27
39 38 36 32 32 32 37 39 38 31 33 34 36 40 40 47 47 44 40 38 33 31 35 31 28 28 28 25 24 24 30 26 27 27 28 26 26 27 25 25 25 25 26 26 27 27 28 28 28 27 26 26 27 27
38 38 35 34 35 32 35 34 33 33 36 37 47 48 39 41 40 39 38 35 33 29 28 28 27 27 29 27 26 26 31 28 30 33 32 32 32 30 26 25 25 24 24 28 30 30 30 30 29 30 29 29 28 28

GFSWCAN_sfc_dewp_039.txt.gz
Dewpoint
52 52 51 51 51 51 51 51 51 52 51 51 52 52 52 52 52 53 50 51 45 40 40 40 41 41 40 39 37 39 36 36 37 34 34 34 34 31 27 28 27 24 27 26 26 28 32 31 33 32 43 42 39 38
51 51 51 51 51 51 51 51 51 51 51 52 52 52 52 52 53 52 49 51 50 43 41 43 43 44 44 43 42 42 38 37 34 35 36 31 28 29 26 27 31 31 30 31 30 30 33 35 32 32 33 35 37 38
51 51 51 51 51 51 50 51 51 51 51 52 52 52 52 52 53 52 51 50 48 43 42 41 43 45 45 44 44 41 39 37 37 38 34 35 31 32 28 28 29 30 31 28 30 31 30 33 34 36 36 36 34 35
51 51 51 50 51 50 51 51 51 51 51 52 52 52 53 53 53 52 49 49 48 44 38 39 43 45 46 44 45 46 45 42 42 42 38 37 32 34 32 31 30 31 32 32 31 31 36 39 38 40 39 40 40 37
50 50 50 50 50 51 50 51 51 51 51 52 52 52 52 52 52 52 51 48 48 46 40 39 43 45 46 43 43 45 45 44 42 38 37 36 38 36 35 32 30 35 33 32 32 34 35 36 38 39 39 39 40 40
50 50 50 50 51 51 50 51 51 51 52 52 52 53 53 52 51 53 47 48 48 47 43 37 40 44 45 45 44 44 45 43 42 37 36 37 40 37 33 32 36 39 39 39 37 38 37 38 40 41 40 39 40 40
50 50 50 51 51 51 51 51 51 52 52 52 53 52 52 51 50 46 44 48 49 48 43 38 42 44 45 45 45 45 44 41 40 36 34 35 36 38 33 31 37 40 44 45 46 41 39 40 40 41 40 40 42 40
50 50 51 51 51 52 52 51 52 52 53 52 52 51 51 50 49 48 46 49 49 44 41 41 40 43 46 45 44 44 41 40 39 37 37 35 36 35 31 38 41 42 43 44 46 45 42 42 43 43 43 41 39 40
50 50 51 51 51 52 52 52 52 53 52 51 52 52 51 49 47 47 49 48 50 45 42 43 40 40 45 45 45 43 42 39 40 37 36 35 32 33 37 41 41 42 42 43 46 45 42 42 45 44 43 43 40 40
50 50 51 51 51 52 52 52 53 52 51 52 50 49 47 48 50 50 48 45 44 44 43 44 43 42 43 43 43 43 42 40 39 41 40 36 35 42 44 46 45 44 44 44 42 43 45 41 42 42 43 42 41 43
50 50 51 51 51 52 52 52 52 51 51 49 50 49 49 51 48 47 48 45 46 45 46 47 48 45 46 42 42 44 43 42 38 39 39 36 37 42 43 44 47 46 46 44 44 45 45 46 46 48 47 45 45 47
50 50 51 51 51 52 52 52 52 50 53 49 50 54 51 48 47 44 43 45 47 42 46 46 48 49 48 47 43 45 43 42 35 40 37 33 40 43 44 41 43 47 46 45 44 44 45 45 45 46 48 48 48 48
50 50 51 51 52 52 52 52 52 52 51 54 51 50 48 47 41 39 35 42 43 44 43 44 47 51 52 48 47 45 37 36 39 36 34 39 42 41 43 40 39 40 46 46 44 44 44 45 45 45 45 47 48 47
50 51 51 51 52 52 52 52 53 52 50 49 45 38 41 41 37 35 33 34 37 36 37 45 47 48 47 45 40 35 41 37 33 32 35 41 43 44 43 41 37 36 35 43 45 45 44 44 45 45 45 46 45 45
50 51 51 52 52 52 52 52 53 52 51 46 43 39 38 35 33 33 34 35 36 37 39 43 46 47 39 37 37 36 33 33 35 35 40 44 44 45 43 41 38 36 34 33 41 44 44 43 43 43 45 45 45 45
51 51 53 51 52 51 51 53 52 53 51 44 42 36 36 32 32 32 34 34 36 37 38 42 38 37 34 37 33 32 33 34 37 42 45 43 44 44 43 43 41 39 39 36 37 43 42 41 43 43 43 44 43 43
50 53 52 52 51 51 52 54 55 47 42 40 39 38 39 37 36 35 36 35 39 36 35 36 33 32 36 30 32 36 35 37 43 44 43 45 45 44 43 44 41 41 40 40 39 41 42 41 40 39 40 42 43 43
51 53 52 51 51 54 58 54 46 41 36 40 40 42 44 41 40 40 41 41 39 36 37 36 35 30 30 27 30 33 34 36 36 38 42 45 45 45 44 43 41 42 41 39 41 41 39 38 38 37 37 34 28 33
50 50 51 51 51 51 51 47 51 41 39 43 45 42 43 45 46 46 42 46 48 43 40 37 33 30 32 34 34 33 35 35 33 36 41 43 45 43 43 41 38 39 42 39 39 36 39 38 34 33 33 30 28 28
50 51 51 52 52 54 50 49 54 48 41 45 47 45 45 45 46 43 42 41 43 39 37 33 32 35 35 39 41 39 39 39 37 34 35 35 36 38 42 39 36 37 35 39 33 34 31 29 30 31 32 30 28 29
53 55 53 54 56 54 50 46 47 48 46 44 46 47 45 46 46 41 41 45 40 38 36 38 37 41 45 44 45 44 44 41 38 36 35 32 34 34 37 35 35 33 32 30 31 30 31 29 29 30 30 28 28 28
55 54 54 57 52 50 49 52 47 50 48 46 46 45 44 43 43 42 45 42 41 41 43 42 45 44 45 45 43 44 44 43 44 40 36 35 30 29 32 31 31 30 31 30 30 29 30 29 29 28 28 30 30 28
54 55 55 52 45 45 44 52 47 48 43 43 46 42 42 42 45 47 42 42 43 47 45 46 48 49 47 48 49 47 45 43 37 36 36 32 31 34 29 31 29 29 28 31 31 32 31 33 31 28 29 28 29 31
53 53 51 50 46 42 46 46 47 45 45 43 42 42 40 43 45 42 40 41 41 43 46 50 48 45 48 49 44 41 41 36 31 32 32 29 26 30 31 28 27 27 30 30 28 31 31 31 32 28 28 27 29 30
46 45 46 39 45 42 37 37 37 38 35 38 38 41 44 48 43 44 42 38 39 41 44 46 43 40 38 37 37 36 38 29 28 29 31 30 29 27 27 28 28 27 27 27 27 27 29 29 30 28 28 27 30 29
39 44 43 39 41 38 35 36 43 43 43 42 39 43 46 44 40 41 43 43 43 42 42 42 41 40 40 42 38 34 33 32 36 30 32 30 29 26 27 27 25 25 27 29 27 26 27 28 27 28 30 30 32 29
37 41 45 47 43 45 47 48 45 45 42 39 40 38 40 38 39 43 48 48 46 44 45 45 44 40 39 40 39 34 32 36 37 35 34 34 31 31 30 28 27 30 30 26 27 27 26 26 26 27 29 30 30 29
44 47 43 45 45 45 45 45 43 41 41 42 41 36 36 40 42 48 49 49 46 46 44 43 44 40 37 36 34 35 34 32 34 34 29 31 31 30 33 29 32 33 30 29 29 28 27 27 27 29 30 30 30 30
42 43 43 42 43 48 47 46 44 46 46 43 40 41 45 48 51 51 49 51 45 42 41 40 41 40 38 38 36 35 30 28 28 27 26 25 26 26 28 28 29 30 30 29 32 30 30 29 29 30 30 32 32 32
43 43 42 41 41 39 45 45 43 43 44 47 47 49 52 52 53 51 45 41 41 41 40 37 36 35 32 27 25 25 25 27 27 27 25 26 27 27 29 30 30 30 31 30 30 31 34 32 31 31 30 29 29 30
43 39 38 39 39 38 36 41 42 41 44 46 50 50 50 52 53 50 41 42 39 38 34 31 30 29 27 25 26 25 27 29 30 30 28 26 26 28 29 31 30 31 32 31 31 30 29 29 29 29 29 29 29 29
40 43 43 39 38 40 41 37 36 36 42 47 48 50 51 51 47 44 41 38 34 32 35 31 28 27 27 26 28 29 32 28 28 28 28 27 27 29 28 27 26 26 29 31 32 32 33 29 30 30 30 28 30 30
42 38 41 38 38 37 36 38 37 37 39 43 46 48 45 41 38 39 45 40 35 29 29 29 28 30 35 32 31 30 31 29 30 33 33 33 33 31 28 27 27 28 32 34 34 32 30 29 30 31 31 31 31 30

GFSWCAN_sfc_dewp_042.txt.gz
Dewpoint
51 52 52 51 52 51 51 51 51 51 51 51 51 52 52 52 53 52 49 50 45 40 40 40 41 41 40 40 36 39 37 34 35 29 32 32 32 35 33 36 35 33 33 33 31 32 32 38 38 35 35 36 36 36
51 51 51 51 51 51 51 51 51 51 51 51 51 52 52 53 53 52 48 51 50 44 42 44 44 45 45 44 42 42 39 38 37 31 31 32 33 35 31 30 32 32 36 34 34 36 37 38 45 41 39 37 39 38
51 51 51 51 51 51 50 51 51 51 51 51 52 52 53 53 53 52 50 50 47 43 42 41 43 46 46 45 45 41 41 43 41 38 33 34 32 32 28 29 28 30 33 32 31 30 34 37 42 39 39 38 38 39
51 51 50 51 50 50 51 51 51 51 51 52 52 53 53 53 53 53 49 49 47 43 37 38 44 45 46 46 45 46 45 44 43 41 35 35 33 35 31 31 30 35 35 35 32 33 35 36 37 37 38 39 39 38
50 50 50 51 51 51 50 50 51 51 52 52 52 52 52 52 53 52 50 48 47 42 38 39 41 44 44 44 43 44 43 43 41 38 36 35 37 35 33 32 33 37 37 35 33 36 37 37 39 40 39 39 40 39
50 50 50 51 51 50 51 51 51 52 52 53 53 53 53 52 52 52 45 48 48 47 39 35 39 42 44 45 44 43 44 42 40 37 35 37 38 37 31 31 38 41 42 42 41 44 43 40 40 41 40 40 41 40
50 50 51 51 51 51 51 51 51 52 53 53 52 52 52 51 48 46 43 47 49 46 39 38 41 45 46 43 43 42 41 39 39 36 35 36 36 38 33 30 37 41 42 42 42 45 42 42 40 41 42 42 43 42
50 50 51 51 51 51 51 51 52 53 53 52 52 51 51 50 48 46 46 48 48 42 41 40 39 41 43 42 42 43 39 40 39 37 37 35 36 34 31 37 41 41 41 41 41 42 45 44 43 42 42 43 43 42
50 50 51 51 51 51 51 52 52 53 52 51 52 51 50 47 46 45 50 48 48 44 42 42 40 39 44 41 41 42 39 39 40 37 37 36 33 33 37 42 42 43 41 41 40 42 43 43 45 44 45 44 43 42
50 50 51 51 51 51 52 52 52 51 51 51 49 48 45 46 51 49 46 45 44 42 41 41 44 40 42 42 42 42 41 39 37 39 40 35 35 42 43 43 45 45 44 42 41 41 42 42 44 47 45 44 44 42
50 51 51 51 51 52 52 52 52 50 50 47 47 47 47 51 47 46 44 40 41 39 42 42 42 42 45 41 42 43 41 38 29 35 36 36 35 39 42 43 44 46 45 44 43 44 44 44 44 46 47 48 48 49
50 50 51 51 51 52 52 52 51 48 50 48 47 50 48 46 44 41 38 40 38 39 43 43 45 46 46 45 42 44 40 38 32 38 35 33 37 40 40 41 41 44 44 44 44 44 43 43 44 44 44 45 46 47
50 50 51 51 51 52 52 52 52 51 51 50 48 46 47 43 32 32 31 33 35 39 42 43 42 46 46 44 43 40 35 34 37 33 33 37 42 40 41 41 39 39 45 44 44 43 44 43 43 43 43 44 44 44
50 50 51 51 51 52 52 52 52 51 48 47 46 30 37 32 32 31 32 32 35 35 35 41 43 42 44 42 37 34 37 34 31 30 32 39 40 39 40 41 39 35 38 44 44 43 42 42 42 42 43 43 43 43
50 51 51 52 51 52 52 52 52 50 50 48 39 30 32 34 34 33 34 34 35 36 35 39 43 40 36 34 35 32 31 30 33 35 38 39 39 40 39 38 39 35 35 41 43 43 42 42 42 42 42 42 42 42
50 51 52 51 51 51 51 52 50 51 52 46 37 33 34 32 32 33 33 33 35 37 37 37 35 33 33 33 31 32 31 29 33 37 40 40 38 39 37 37 39 37 35 35 43 42 42 43 42 42 44 43 42 42
50 50 51 51 51 51 52 52 54 52 42 40 38 37 35 35 34 35 34 33 37 34 32 32 30 30 30 28 30 31 29 32 35 37 39 40 39 38 38 37 39 35 35 34 37 41 39 40 42 42 41 42 42 42
49 52 51 51 51 52 55 51 49 41 39 37 38 38 39 37 35 36 36 38 34 34 33 33 31 29 28 27 28 30 33 33 32 32 35 39 39 39 40 39 31 33 32 33 36 34 34 35 37 34 31 28 32 39
48 49 50 51 50 49 52 48 46 43 40 39 41 39 39 40 39 40 37 38 38 36 35 32 30 29 30 32 31 33 33 32 32 33 35 33 30 32 37 34 27 35 30 29 30 28 29 27 30 29 27 28 27 30
50 51 51 51 51 52 52 48 49 45 42 39 42 41 39 38 41 38 37 35 35 34 31 30 31 33 33 34 35 35 34 34 34 32 31 32 30 29 30 34 30 29 32 27 26 30 25 25 28 28 26 27 28 28
52 54 53 52 52 51 52 45 43 46 42 40 44 42 40 41 41 35 36 39 34 33 32 34 34 36 37 37 37 38 37 35 33 34 33 33 30 28 30 30 29 28 27 28 26 26 28 25 27 28 27 26 27 27
52 54 53 54 53 54 49 49 42 44 44 42 42 43 40 40 42 42 42 38 36 36 37 37 37 38 39 38 38 38 38 35 35 37 35 32 25 27 27 28 28 28 28 28 28 26 26 26 26 26 26 27 29 29
53 54 54 54 50 42 38 48 43 45 42 39 43 39 41 44 48 48 38 40 41 41 40 39 40 39 39 40 42 39 38 36 33 31 28 26 26 28 29 28 28 27 26 27 29 26 28 31 28 26 28 30 30 30
53 53 51 49 44 37 45 45 47 45 45 42 41 40 41 46 49 44 42 45 47 43 41 42 43 42 43 43 40 38 34 29 29 28 28 26 25 27 29 27 26 26 27 28 29 29 29 28 29 26 29 30 31 31
45 44 44 37 44 41 40 40 43 42 39 40 37 39 44 45 42 41 43 44 43 43 44 42 40 41 37 36 33 31 28 27 28 26 27 27 25 25 26 25 24 24 25 27 27 28 28 29 29 29 29 30 29 29
40 45 38 41 43 42 42 42 44 43 44 42 41 45 46 44 41 41 42 45 46 46 48 44 41 38 38 38 34 30 28 28 27 26 26 26 25 24 26 24 23 23 27 26 27 27 27 29 30 30 30 30 33 29
39 40 44 47 46 47 48 49 47 44 43 41 42 43 43 38 37 42 46 46 47 49 48 46 42 39 38 34 30 30 31 29 28 28 27 27 26 27 27 24 23 26 28 28 28 27 26 27 30 30 29 28 28 30
48 46 42 44 46 48 46 45 44 41 42 47 47 41 39 39 39 45 46 49 48 49 46 44 41 40 37 33 31 31 30 30 29 30 30 29 28 28 28 28 28 33 28 29 28 28 29 29 30 31 31 30 29 30
47 45 44 43 46 47 46 45 45 46 47 46 45 44 45 47 50 49 49 50 50 47 44 44 43 41 35 30 26 26 27 27 26 26 27 27 26 27 29 29 29 29 27 26 31 29 26 27 27 29 31 32 32 32
44 46 44 43 42 43 45 49 49 49 49 50 49 49 48 49 50 51 49 41 41 37 31 28 25 25 25 27 27 27 28 27 27 27 26 26 26 28 30 30 29 30 31 31 30 29 32 31 31 30 29 28 28 30
46 45 43 43 41 41 45 47 47 48 46 49 50 47 47 46 47 48 40 38 33 30 28 26 26 26 25 27 28 27 27 28 27 26 27 26 27 29 28 28 29 31 33 32 32 30 29 29 28 28 28 28 27 28
45 44 44 41 40 44 44 43 46 46 46 47 46 49 48 46 44 41 39 35 32 30 33 28 26 27 28 28 27 28 30 25 26 27 28 29 29 28 27 27 30 32 33 35 37 36 33 30 30 30 29 29 28 29
44 43 44 42 40 37 39 39 41 45 46 46 46 48 48 43 37 39 41 37 33 30 29 30 31 30 29 28 27 28 29 28 31 33 33 33 32 30 27 27 28 32 34 34 33 32 29 29 29 30 32 30 29 29

GFSWCAN_sfc_dewp_045.txt.gz
Dewpoint
51 51 51 52 52 51 50 51 51 51 51 51 52 52 52 52 53 51 49 49 46 41 40 40 42 41 41 39 34 39 35 34 35 30 31 30 31 33 33 35 34 33 33 33 35 34 34 37 41 37 36 38 37 38
51 51 51 51 51 50 50 51 51 51 51 52 52 52 53 53 52 52 47 51 50 44 43 43 44 46 46 44 42 41 38 37 37 33 33 34 33 34 33 29 36 33 35 33 34 35 38 37 43 41 37 37 37 37
51 51 51 51 51 51 50 50 51 51 51 52 52 53 53 53 53 52 50 49 47 43 41 39 41 46 48 47 47 41 41 42 40 39 35 35 33 35 30 31 33 35 36 35 34 32 35 37 40 39 42 41 39 38
51 51 51 51 51 50 51 51 51 51 52 52 52 52 52 53 53 52 47 48 46 41 34 36 43 42 45 46 45 46 45 44 42 37 34 35 34 36 34 35 35 37 37 35 33 33 38 38 39 41 43 43 42 41
50 50 51 51 51 50 51 51 52 52 52 52 52 52 52 52 53 51 47 47 44 41 35 36 39 43 44 44 43 43 44 42 41 38 36 34 37 36 35 35 36 40 38 36 34 39 40 40 41 43 42 44 44 42
50 50 50 51 50 51 50 52 52 52 52 53 53 53 53 53 52 52 43 47 47 45 37 36 39 42 44 44 42 41 43 41 40 37 36 37 38 37 32 33 39 41 42 42 41 43 44 44 46 45 43 44 46 44
50 50 51 51 50 50 50 51 51 52 53 52 52 52 52 52 48 45 41 45 48 46 40 37 38 42 44 42 42 42 41 39 39 37 35 36 36 38 33 32 41 41 41 41 41 42 41 43 43 44 43 43 44 47
50 50 51 51 50 50 50 51 50 52 52 52 51 51 50 50 48 45 45 49 47 42 40 40 41 40 41 38 38 39 37 38 39 38 38 36 37 35 33 39 42 41 41 40 41 41 41 42 43 44 46 44 43 43
50 50 51 51 51 50 50 51 52 52 51 51 51 51 49 46 44 45 48 48 46 43 37 39 40 39 43 39 39 38 37 36 40 38 37 36 33 33 36 38 42 42 41 39 40 41 41 42 43 44 47 44 44 43
50 50 51 51 51 52 52 52 52 51 51 51 49 47 44 46 50 49 44 44 44 41 39 39 41 41 42 42 42 41 41 37 36 39 40 36 34 38 40 41 42 44 44 42 38 40 41 41 41 42 44 47 47 47
50 50 51 51 51 51 52 52 52 50 49 46 46 45 46 50 46 46 44 40 39 39 39 39 40 41 46 41 41 42 40 37 29 36 36 35 34 36 39 40 41 42 42 42 42 43 41 42 42 42 42 43 44 46
50 50 50 51 51 52 52 52 51 47 48 48 47 48 46 45 43 41 36 37 37 36 40 41 42 46 44 45 40 41 38 37 30 37 34 33 36 38 38 39 40 41 43 42 43 42 41 41 42 42 42 42 43 44
49 50 50 51 51 52 52 52 52 50 50 48 47 44 45 42 30 30 27 30 32 34 39 41 43 45 44 43 43 42 35 33 36 32 33 34 37 39 37 39 39 38 42 42 42 42 41 41 41 41 41 42 42 42
49 50 50 51 51 52 52 52 52 52 47 45 45 31 35 30 31 31 32 32 34 35 35 36 42 41 42 40 36 33 35 33 29 28 30 34 37 38 38 38 37 37 41 41 41 41 41 41 41 42 42 42 41 41
49 50 50 51 52 52 52 51 52 49 49 46 41 27 31 33 34 34 34 33 33 35 35 41 38 37 35 33 34 31 30 26 30 31 34 37 38 38 38 36 35 37 36 42 42 41 40 41 41 42 43 42 41 41
49 50 51 51 51 51 51 52 50 50 50 48 43 32 34 31 31 33 32 32 34 36 36 35 33 31 32 32 30 30 28 26 30 36 37 38 38 38 37 37 36 36 35 38 42 42 40 41 40 41 43 43 42 40
49 48 51 51 51 51 51 50 52 50 47 39 38 36 34 34 33 34 34 32 35 31 29 32 30 30 29 28 28 30 28 30 33 34 34 36 38 38 37 36 37 33 32 35 39 41 40 40 41 41 38 40 42 41
46 49 50 50 50 50 53 50 50 44 38 39 36 37 38 35 34 35 36 36 31 31 31 30 31 28 28 26 27 30 32 32 32 31 32 35 35 36 36 38 37 31 32 34 33 35 38 39 39 35 29 30 33 37
46 47 49 50 49 47 49 50 47 40 41 39 40 39 38 38 38 37 36 37 35 35 33 31 29 28 29 31 31 32 33 32 31 32 33 33 31 28 29 33 28 32 28 28 25 25 25 29 28 26 26 28 28 29
50 51 52 51 50 50 51 51 48 43 42 38 41 40 38 37 39 38 40 36 33 32 29 28 30 32 32 32 34 33 33 33 33 29 28 30 32 28 29 31 30 31 28 25 25 29 26 26 27 26 28 28 26 26
50 53 52 50 50 49 50 48 41 45 43 39 40 42 43 44 43 43 36 39 38 36 31 33 33 34 35 35 35 35 34 34 33 31 31 33 31 27 26 28 27 27 25 25 24 25 28 25 26 27 26 26 26 27
48 53 52 52 51 53 51 49 41 42 42 42 43 43 43 43 44 44 47 41 40 35 36 36 35 37 37 36 37 36 37 36 35 33 34 31 25 27 28 28 26 26 27 27 26 24 25 26 25 27 27 28 30 31
52 52 53 53 50 41 39 46 40 43 41 43 44 43 44 44 46 49 43 42 44 46 43 38 42 41 38 39 38 38 38 32 28 26 25 25 27 27 27 27 27 27 27 28 29 26 26 29 30 30 30 30 30 29
52 52 50 48 43 37 43 42 46 46 45 41 41 39 43 44 48 45 44 43 45 46 42 45 47 41 42 41 42 42 34 29 27 26 26 26 25 25 25 24 24 24 26 27 28 28 27 27 31 30 31 31 31 30
44 42 40 34 43 41 39 41 42 41 39 41 40 44 44 45 41 41 41 43 44 43 45 46 40 41 36 37 31 29 29 27 25 24 26 26 26 25 24 24 24 25 26 27 28 29 28 29 30 30 30 31 31 30
40 46 39 41 41 40 41 39 43 42 43 41 43 47 47 43 41 39 42 43 44 46 45 42 41 39 37 33 29 27 26 28 27 24 25 25 25 26 24 22 23 25 27 26 25 27 29 30 30 30 30 30 32 29
40 42 42 45 44 45 44 46 46 43 42 40 43 42 43 37 37 39 44 44 45 47 46 46 43 38 36 31 30 30 29 28 26 26 26 26 25 26 25 24 24 25 27 28 28 27 29 30 29 28 28 29 30 31
48 47 42 43 45 47 44 44 42 41 42 46 43 40 39 38 37 41 44 46 48 47 46 45 42 39 32 31 28 30 29 30 30 28 27 27 28 28 27 27 27 32 28 28 28 29 30 31 31 31 30 29 30 31
47 46 45 42 45 46 45 44 43 45 47 46 43 42 42 44 45 46 46 47 48 46 44 42 35 30 27 27 28 28 27 27 27 26 26 25 26 27 28 28 29 27 27 28 32 30 28 28 30 32 32 32 32 30
43 46 43 42 42 43 46 48 47 48 49 48 47 45 44 45 48 48 45 34 30 28 29 26 26 27 27 26 25 25 26 27 27 27 26 25 26 28 29 30 30 30 34 35 29 29 33 31 31 29 28 28 28 28
46 46 41 41 40 43 47 47 48 48 48 48 47 44 44 45 45 44 35 30 28 26 25 25 26 27 28 27 25 21 21 24 27 28 27 27 27 27 28 29 34 38 38 37 33 31 29 28 28 28 27 27 29 30
45 43 43 39 42 45 43 43 45 44 46 45 45 47 45 44 42 39 37 31 27 25 30 28 27 27 28 27 26 25 29 26 27 28 27 27 26 26 28 32 34 35 36 37 35 33 31 30 29 29 29 29 29 29
44 43 43 40 41 41 43 44 43 43 44 44 45 46 47 42 35 38 36 33 29 27 28 29 28 26 25 25 25 27 29 29 32 33 33 33 32 30 28 30 34 34 33 33 32 30 29 30 30 30 30 29 29 30

GFSWCAN_sfc_dewp_048.txt.gz
Dewpoint
51 51 51 51 51 51 51 50 51 52 52 52 52 52 52 52 52 51 46 49 46 41 41 40 41 41 42 39 35 39 35 33 34 32 31 30 30 32 32 34 30 30 30 29 31 31 33 38 40 36 37 38 38 37
51 51 51 51 51 50 51 51 51 52 52 52 52 52 53 52 52 51 44 51 50 45 42 44 45 45 46 46 42 41 38 37 38 35 34 34 32 33 32 29 37 33 34 33 34 34 40 40 41 40 41 40 40 38
51 51 51 51 51 50 50 51 52 52 52 52 52 52 52 52 53 50 47 49 47 42 38 38 39 45 47 47 48 40 41 42 40 41 37 35 32 34 31 32 35 37 38 35 34 37 38 40 40 41 43 43 42 42
51 51 51 51 50 50 50 51 52 52 52 52 52 52 52 52 53 50 45 45 43 38 33 36 41 42 45 45 45 46 45 44 41 38 36 35 34 37 33 34 36 38 38 36 35 38 40 40 42 42 44 44 45 44
50 50 51 51 50 50 51 51 52 52 52 52 52 52 52 52 53 49 45 47 44 41 36 36 39 41 43 43 44 44 42 40 39 37 35 33 36 35 37 36 35 40 38 36 35 40 41 41 44 46 45 45 45 45
50 50 51 51 50 50 51 51 52 52 53 53 53 52 53 52 52 51 42 45 46 44 40 36 39 41 42 43 42 40 42 40 38 37 35 36 38 37 32 33 39 40 42 42 40 42 43 42 43 43 44 45 45 45
50 50 51 51 51 50 51 51 51 52 52 52 52 51 52 52 47 44 40 44 48 44 39 40 39 43 43 42 40 40 38 38 39 38 36 36 36 37 33 33 40 41 41 40 42 41 40 42 42 44 45 46 47 46
50 50 51 51 51 50 50 51 50 52 52 52 51 51 51 50 48 44 45 49 46 41 39 38 40 43 45 40 39 38 36 37 38 38 39 37 37 36 33 37 41 41 42 40 39 41 41 42 42 42 43 46 45 45
50 50 50 51 51 50 50 51 51 52 52 51 51 51 48 45 43 45 48 48 46 42 36 40 37 40 44 42 42 38 36 37 38 37 37 37 33 33 36 38 40 42 41 40 39 40 41 40 41 41 42 43 44 45
50 50 50 51 51 50 51 52 52 52 51 51 48 46 43 45 49 48 45 44 44 43 40 39 40 41 43 42 42 40 40 36 35 39 41 35 33 38 39 40 41 43 43 42 37 38 39 40 40 41 41 41 42 44
49 50 50 51 51 50 51 52 52 50 49 45 45 45 45 50 46 47 44 42 39 40 39 38 40 38 44 42 42 42 38 38 33 35 36 34 30 35 39 39 41 43 43 42 42 41 41 41 41 41 40 41 41 41
49 49 50 50 51 50 52 52 51 47 46 47 46 47 45 45 43 40 34 35 36 36 39 39 42 44 42 44 40 41 40 38 30 36 33 25 34 37 38 38 39 41 42 42 42 41 41 41 40 41 41 41 41 42
49 49 50 50 51 52 52 52 51 50 49 47 46 43 45 40 27 28 24 29 30 32 36 38 39 43 43 42 43 42 36 32 35 31 32 31 35 38 37 38 37 39 42 42 41 41 41 41 41 41 40 41 42 41
49 49 50 50 51 52 52 52 52 51 46 44 44 34 34 29 31 31 31 31 33 34 34 35 40 40 40 39 35 32 34 32 28 27 27 33 35 37 38 38 35 37 39 41 41 41 41 41 40 41 41 41 41 41
49 49 50 51 51 51 51 51 52 49 47 44 41 29 32 33 33 34 34 33 34 35 35 41 36 36 34 32 32 30 29 25 26 27 33 36 37 38 38 38 35 36 35 40 41 40 40 41 41 41 41 42 41 41
49 49 51 51 51 51 51 52 49 49 48 46 44 36 34 31 31 32 33 32 33 35 36 34 32 29 31 31 29 30 28 23 29 34 36 35 36 38 38 38 36 36 35 34 42 41 40 39 40 40 41 42 41 41
49 47 51 50 50 51 51 49 49 48 46 42 38 37 34 33 33 33 34 33 34 30 30 31 29 29 29 28 28 31 29 30 33 33 32 33 35 38 39 39 38 35 34 36 39 41 41 41 40 40 38 39 39 42
45 46 48 49 49 49 50 49 49 48 42 40 37 38 38 36 34 34 36 36 31 31 32 28 32 28 27 27 27 29 32 33 32 31 31 34 34 32 31 31 38 33 35 35 34 37 38 39 38 34 29 30 33 34
46 47 49 50 49 47 48 50 48 40 40 40 39 39 39 38 43 45 42 37 35 35 34 31 29 27 28 31 31 31 33 32 30 32 33 33 32 32 31 32 34 33 30 29 28 27 29 33 29 27 28 28 27 28
49 51 52 51 50 48 49 49 47 42 40 40 40 40 38 41 45 45 45 43 39 39 35 36 31 31 32 33 34 33 33 33 32 28 29 32 34 30 29 29 31 31 27 27 28 30 28 28 28 29 28 28 28 29
49 52 51 50 49 49 49 48 43 44 43 41 40 43 43 47 47 44 41 40 40 41 39 37 36 36 41 39 36 34 34 34 33 32 32 32 34 27 28 29 29 31 27 26 26 27 29 27 28 28 28 29 30 31
48 52 51 51 50 51 49 50 44 42 42 41 44 45 44 43 43 44 46 44 42 39 40 41 42 46 45 40 37 37 37 36 36 32 33 32 27 27 27 27 28 28 29 28 27 26 27 27 27 28 29 30 32 32
51 51 51 53 49 41 41 46 39 42 40 43 43 42 43 44 44 47 42 43 44 46 46 46 47 48 45 41 39 38 39 38 28 26 27 27 27 27 26 26 27 28 28 29 30 28 27 31 32 29 31 31 30 31
51 51 49 47 45 40 44 40 45 45 43 40 40 40 42 43 44 41 39 42 44 45 43 45 47 40 39 40 41 43 39 31 27 27 27 27 25 25 25 25 25 26 28 29 29 29 29 31 33 31 32 31 31 31
43 39 39 32 41 41 38 41 42 41 39 41 41 41 41 42 39 38 38 41 42 43 45 45 43 41 37 37 34 33 31 27 26 25 27 27 26 24 24 25 26 27 28 29 29 29 30 31 32 32 32 32 31 30
39 45 38 40 41 39 40 37 40 41 41 40 42 43 43 40 38 36 40 41 42 44 45 44 42 40 38 36 30 28 27 31 27 26 27 27 26 24 23 24 24 26 28 27 30 31 31 31 31 31 31 30 32 32
39 42 42 44 42 44 43 46 46 42 41 40 43 41 41 36 35 38 42 43 44 46 46 45 43 40 35 31 32 33 31 29 29 27 28 27 26 27 27 31 30 27 29 30 30 30 31 30 30 29 29 31 31 32
46 46 42 43 44 46 43 44 42 41 42 45 42 39 38 36 36 40 43 45 47 46 44 41 33 32 28 29 28 28 30 29 28 28 28 28 29 31 37 32 31 35 30 30 31 32 32 32 31 30 30 31 31 31
46 49 46 42 44 45 44 43 43 44 46 44 41 41 41 43 44 45 46 46 45 45 38 34 31 29 27 27 27 27 28 28 28 27 27 27 27 32 30 31 35 39 31 31 33 33 32 33 33 33 33 32 31 31
41 46 43 42 42 42 45 46 45 47 47 47 46 44 43 44 47 45 36 31 34 37 30 28 27 27 25 24 22 23 26 27 27 27 26 26 26 28 30 34 38 35 37 36 31 31 33 32 31 30 30 30 30 31
46 46 42 43 41 44 47 47 47 48 48 47 45 42 42 43 43 37 33 30 27 27 28 27 27 27 24 22 22 22 23 27 28 28 27 27 28 29 31 33 36 40 39 37 33 30 29 29 29 29 29 31 31 32
45 43 43 40 42 45 44 43 44 44 45 45 44 45 44 44 40 39 37 29 27 26 31 29 28 28 28 25 25 27 30 27 27 27 27 27 29 31 34 34 35 36 35 35 35 34 31 30 30 30 30 30 31 31
44 44 43 42 42 41 42 43 42 43 44 43 44 45 44 43 38 36 36 33 28 27 28 29 27 26 26 27 28 29 30 29 32 34 34 33 33 32 33 33 34 33 32 31 31 31 31 31 30 31 31 31 31 30

GFSWCAN_sfc_dewp_054.txt.gz
Dewpoint
52 51 51 51 51 51 51 51 52 52 51 51 52 52 52 52 52 50 50 52 49 44 40 41 41 42 40 40 37 38 37 38 38 35 35 35 34 35 34 33 26 30 30 30 30 28 27 40 37 38 43 43 42 42
51 51 51 51 50 50 51 51 52 52 52 52 52 52 53 53 53 51 47 50 52 47 42 44 43 44 44 43 43 41 37 40 39 35 36 36 34 36 34 32 33 28 30 34 33 34 41 42 40 43 47 45 45 44
51 51 51 51 50 50 51 51 52 52 51 52 52 52 53 53 53 51 48 49 47 43 40 39 40 44 43 42 44 41 40 41 42 43 38 37 33 35 33 33 35 35 38 37 37 38 39 42 43 44 46 46 47 45
50 51 51 51 50 50 51 51 52 52 51 51 52 52 52 53 53 52 47 47 45 42 39 38 42 43 43 43 44 44 44 43 41 39 40 37 35 38 35 35 35 36 38 36 36 39 39 41 42 44 46 47 46 46
50 50 51 51 50 50 51 50 51 51 52 52 52 52 52 53 53 51 49 48 47 43 41 39 44 44 42 43 41 42 42 41 39 38 39 37 38 37 38 39 36 39 36 34 34 39 40 40 44 45 45 46 46 46
50 50 51 51 50 51 50 50 50 51 52 52 52 52 53 53 52 52 48 48 48 47 42 41 47 46 45 44 46 44 42 42 40 36 39 39 39 40 36 35 39 38 40 41 39 41 42 43 44 45 44 45 47 48
50 50 50 51 51 51 50 50 50 51 52 51 51 52 53 53 51 47 44 46 49 48 42 41 46 47 47 46 45 44 44 41 40 41 43 42 41 41 39 34 39 39 39 39 41 41 40 41 41 43 44 44 45 45
49 50 50 51 51 50 50 50 50 51 51 51 51 51 52 52 50 47 48 49 49 45 43 43 44 45 47 46 43 43 41 41 41 41 41 42 42 41 36 37 39 39 37 35 38 41 40 40 41 41 42 43 42 43
49 50 50 50 51 50 50 50 50 51 52 52 51 51 49 48 47 48 51 50 48 45 43 44 44 42 46 46 46 44 42 43 40 44 43 43 37 35 38 36 39 39 37 34 34 36 37 37 39 40 40 41 42 42
49 49 50 50 50 50 50 50 50 52 52 51 49 48 47 49 51 50 48 45 46 45 44 43 45 43 43 44 43 42 41 37 39 38 41 41 40 35 36 37 40 41 39 37 34 35 35 36 37 39 40 41 42 42
49 49 50 50 50 51 50 50 51 51 50 48 48 48 50 51 49 47 44 44 44 43 44 43 43 39 44 43 44 42 40 39 38 35 35 38 38 35 34 35 40 40 41 39 38 38 36 36 36 36 39 41 41 42
49 49 50 50 50 50 50 50 52 50 49 49 50 50 50 48 47 43 37 41 44 40 39 38 39 42 46 47 43 45 43 40 33 37 33 35 34 37 37 33 36 40 42 41 39 38 37 37 37 36 37 39 41 42
49 50 50 50 50 50 52 52 52 50 51 51 50 49 48 47 40 35 38 33 34 33 32 34 36 44 48 47 44 43 38 37 37 32 37 33 37 39 39 36 32 36 39 41 40 39 38 38 39 39 38 38 39 41
49 50 50 51 50 51 52 52 52 50 50 47 46 41 41 36 35 34 34 33 35 36 33 33 34 44 46 45 40 35 37 35 29 34 32 30 40 40 39 37 35 32 32 34 37 39 38 37 37 38 38 38 37 38
50 50 50 50 50 51 52 52 52 52 49 46 46 40 38 35 36 36 36 37 37 38 35 33 40 41 37 37 35 33 30 30 33 32 31 34 40 41 39 37 35 33 33 33 35 35 36 35 34 34 35 35 37 38
50 50 52 50 51 52 51 51 52 52 50 47 47 41 37 37 33 35 38 38 39 37 37 36 34 33 32 30 29 27 26 31 30 32 33 34 43 43 43 42 39 37 34 35 35 34 35 34 34 34 32 32 32 35
49 48 49 49 51 51 52 52 50 48 47 46 41 41 41 40 39 39 40 39 40 44 41 38 36 35 35 34 34 35 35 33 33 32 32 40 42 42 40 38 38 38 35 36 36 37 37 36 34 31 32 34 32 34
46 47 49 49 50 51 52 51 50 48 46 43 40 37 41 42 43 41 43 47 44 41 45 41 42 36 36 35 35 39 39 38 35 35 35 39 42 43 40 38 39 41 39 37 36 34 37 34 32 27 30 32 29 30
45 47 49 50 50 51 49 51 50 45 42 40 41 42 44 45 50 50 46 44 41 41 42 44 38 38 38 41 40 41 37 34 33 34 35 41 42 40 39 37 36 37 39 39 35 30 30 33 28 26 26 27 25 27
50 51 52 51 51 51 46 49 55 49 43 43 44 43 45 47 48 46 41 41 42 41 42 41 39 41 41 43 41 39 37 38 34 34 35 32 31 33 35 34 29 35 35 35 31 32 31 28 27 27 27 29 27 26
50 53 51 52 52 51 48 47 47 47 44 43 46 47 49 50 44 42 41 43 39 38 39 42 43 42 44 45 46 44 43 39 44 40 38 28 27 27 28 29 33 30 28 28 30 32 29 29 27 28 28 28 28 28
53 53 55 53 52 53 53 53 50 51 48 45 46 48 47 44 43 43 45 39 41 41 41 42 45 46 48 47 48 50 50 44 44 43 35 34 26 26 26 26 27 27 28 30 28 28 30 27 28 30 29 29 31 28
52 54 55 53 52 50 46 49 46 45 43 45 45 43 46 45 45 46 44 44 47 48 46 46 48 51 50 49 47 47 46 45 49 40 32 32 28 28 26 26 25 25 25 26 28 28 29 32 32 30 30 31 29 28
51 53 51 50 50 47 49 46 46 46 47 43 42 41 43 44 45 42 39 42 46 47 46 48 49 49 45 44 42 39 49 43 42 35 35 30 26 28 30 26 26 26 28 27 28 28 30 30 32 29 30 30 29 28
47 46 47 41 48 45 40 39 42 42 39 42 40 42 45 46 41 39 39 41 42 42 47 48 47 45 36 33 32 33 43 35 31 33 35 33 29 28 28 29 28 28 29 29 26 27 29 29 30 31 29 29 29 28
39 44 43 37 42 42 42 39 40 41 41 40 41 47 46 43 36 35 39 39 41 47 48 49 47 36 35 35 32 30 32 34 34 32 34 30 30 32 34 34 35 32 30 28 28 29 29 30 31 30 29 29 33 30
39 40 46 48 44 46 46 49 48 44 42 39 43 44 42 33 35 39 41 42 43 46 46 42 36 32 28 27 28 29 30 31 33 30 30 31 33 34 36 35 35 30 30 28 29 29 30 30 28 29 28 29 29 28
43 44 41 45 45 48 44 46 44 42 41 46 44 40 33 32 37 40 40 43 45 40 36 32 30 28 28 27 26 26 27 29 31 31 32 32 33 32 32 30 31 34 30 30 30 29 31 30 28 29 28 30 30 30
44 46 45 45 45 47 48 46 44 44 47 44 43 41 40 44 41 40 42 43 38 34 30 28 28 28 26 25 23 22 23 23 28 28 28 29 29 30 31 33 34 31 28 29 34 33 33 31 31 29 30 30 30 30
40 43 43 41 41 42 45 47 48 49 49 48 46 44 44 42 41 40 38 38 34 30 28 27 27 26 23 21 22 22 22 23 22 22 24 25 27 29 31 30 30 29 29 28 28 29 34 30 31 28 28 28 29 30
45 44 42 43 42 46 48 49 49 49 48 47 48 45 42 38 35 35 35 35 31 29 27 26 26 25 23 22 21 21 21 25 28 29 28 27 27 29 30 30 31 31 31 29 28 27 26 27 26 27 28 28 28 30
44 44 44 43 46 50 49 47 47 46 46 47 45 45 42 40 37 34 34 32 30 29 31 28 26 26 25 24 24 24 29 25 27 29 31 30 31 31 30 29 29 29 30 29 29 28 28 27 27 27 29 28 28 29
46 46 46 44 45 46 46 45 44 44 44 44 44 45 42 41 41 39 36 34 32 28 29 28 28 28 30 27 27 26 28 30 34 34 35 34 34 32 29 28 29 30 29 29 28 28 28 28 28 28 28 28 28 28

GFSWCAN_sfc_dewp_057.txt.gz
Dewpoint
52 52 52 52 51 51 51 52 52 52 51 51 51 52 52 52 52 50 47 51 47 41 40 40 40 41 40 41 39 37 38 39 39 36 36 35 35 35 34 34 29 33 32 33 32 29 25 40 34 31 40 41 40 45
52 51 52 51 51 51 51 52 53 52 51 52 52 52 52 52 52 51 46 49 50 46 41 43 42 42 41 41 41 40 40 39 41 37 37 37 35 37 34 34 35 32 36 35 29 30 39 42 42 44 43 42 42 46
51 51 51 52 51 51 51 52 52 51 50 51 52 52 52 53 53 51 46 48 46 43 42 41 40 43 41 40 41 44 44 42 43 41 40 37 33 36 34 34 37 39 40 37 37 37 40 41 42 43 43 42 45 48
51 51 51 51 51 51 51 51 51 51 51 51 51 52 52 53 53 52 47 46 45 44 43 39 43 43 43 42 43 42 42 42 43 39 41 39 36 39 36 37 36 38 39 37 37 39 40 41 43 43 43 46 48 49
50 50 51 51 51 50 50 51 50 51 52 52 52 52 52 53 54 52 50 48 48 45 42 40 42 44 41 43 41 41 40 42 47 44 39 39 40 38 39 38 37 38 37 35 34 39 39 40 42 44 44 47 48 48
50 50 50 51 51 50 50 50 50 51 52 52 52 52 52 53 53 50 48 49 49 47 44 39 44 45 45 44 45 45 44 40 40 31 34 36 37 41 37 34 39 36 39 41 39 41 42 42 43 44 44 47 47 47
50 50 50 51 51 50 50 50 50 51 51 52 51 52 53 53 50 49 47 47 49 49 43 40 46 44 46 45 44 44 41 39 36 35 45 41 37 39 40 34 37 37 37 40 41 40 39 41 41 43 45 46 47 46
49 50 50 51 51 51 50 50 50 50 51 52 51 51 52 52 51 48 49 49 49 46 44 42 43 46 46 45 44 44 41 47 41 40 37 40 39 40 36 37 39 35 34 34 35 40 40 41 42 42 43 44 44 44
49 49 50 50 51 51 50 50 50 50 52 52 51 51 50 48 47 49 51 50 49 46 43 43 39 40 46 45 44 43 42 44 40 46 42 43 41 35 40 37 39 35 35 33 33 34 35 37 40 41 41 41 42 43
49 49 50 50 50 51 50 50 50 51 52 52 50 48 48 50 52 51 49 46 46 44 44 43 37 38 41 46 45 42 40 37 41 38 37 44 42 39 35 35 39 39 36 35 34 35 34 34 34 39 40 41 42 42
49 50 50 50 50 51 50 50 50 52 51 49 48 47 51 51 50 48 45 44 42 41 42 39 38 37 39 43 44 40 39 38 38 35 33 37 40 36 34 34 36 40 38 36 35 36 35 35 36 35 39 40 41 42
49 49 50 50 51 50 50 51 51 51 49 50 49 49 51 49 48 44 39 38 41 39 36 36 34 36 41 47 44 46 41 39 33 36 32 38 39 39 35 34 34 35 38 38 37 36 36 37 36 37 37 39 39 41
49 50 50 51 51 50 51 51 51 52 51 51 50 48 48 47 42 38 40 36 37 34 32 32 32 36 47 46 44 43 38 37 37 32 40 34 40 38 36 35 33 33 34 39 38 37 36 36 37 37 38 38 39 41
49 50 50 51 51 51 52 52 52 51 50 47 45 43 41 37 36 34 33 35 37 37 39 37 40 35 47 44 43 37 39 33 29 35 35 38 43 39 37 35 35 34 32 32 36 38 37 35 34 36 36 37 37 38
50 50 50 51 50 51 52 52 52 52 50 45 43 41 37 35 33 37 39 43 42 41 41 41 47 43 45 43 38 36 30 30 32 35 38 38 40 40 43 41 38 38 34 34 34 35 36 34 34 33 33 33 35 37
50 49 51 50 51 52 52 52 52 52 49 46 44 39 36 34 35 39 40 40 41 41 42 45 40 40 39 39 37 36 33 33 37 35 32 38 42 41 40 38 37 36 37 35 35 34 35 34 33 32 32 32 32 35
49 50 50 49 51 52 52 53 51 48 45 44 39 37 38 41 42 45 42 42 45 42 41 41 39 37 38 38 38 40 38 37 35 33 33 40 41 41 40 37 36 36 38 36 37 37 36 35 33 32 33 34 32 34
47 49 50 49 49 52 52 51 47 45 43 43 39 38 42 43 44 44 44 42 39 39 41 42 41 38 37 34 38 39 38 37 34 35 35 38 41 41 38 38 37 37 38 39 38 36 39 34 32 27 32 32 31 30
45 47 50 50 50 52 48 50 49 43 41 40 40 44 43 44 49 45 41 43 43 43 44 41 40 41 38 39 39 39 35 34 33 35 35 40 41 39 39 37 36 35 37 40 40 34 36 34 28 25 25 25 25 26
50 50 51 52 51 52 46 45 53 47 43 40 41 40 44 46 44 44 40 40 39 38 36 37 41 38 36 39 39 37 39 38 35 35 38 37 37 35 35 34 28 33 30 37 34 32 33 33 31 27 26 28 26 25
48 53 52 52 52 52 46 43 44 44 42 40 43 43 43 44 41 38 37 39 34 34 34 36 38 40 43 46 47 49 50 46 45 37 41 44 31 30 28 27 29 26 28 32 32 31 30 33 33 29 28 27 27 26
54 53 55 54 51 51 50 48 45 47 46 43 42 43 41 40 38 38 40 35 35 37 37 40 47 48 52 51 48 49 49 50 50 48 41 35 30 29 28 27 28 27 30 30 32 31 33 33 31 31 29 30 32 27
51 54 54 51 49 49 47 50 46 44 42 41 41 39 40 39 41 45 43 38 41 45 43 49 50 50 47 45 45 47 45 46 49 46 38 33 32 29 28 29 26 26 28 28 27 28 32 34 31 31 31 31 32 32
52 52 48 46 48 46 47 45 44 43 44 41 39 37 39 40 43 37 37 38 37 39 40 47 44 40 40 44 33 36 35 37 46 42 38 38 32 31 33 28 29 28 28 29 30 41 33 33 33 31 31 31 30 30
47 45 47 43 47 44 41 39 41 40 38 39 38 36 39 43 36 35 32 32 34 38 42 45 40 38 34 30 28 29 35 29 28 35 36 37 35 41 34 32 30 30 29 30 31 30 29 30 33 33 33 29 30 31
41 43 43 37 38 40 40 37 38 38 38 37 37 43 44 38 31 31 35 35 35 37 39 38 33 28 27 26 25 25 26 28 29 32 34 32 32 32 34 40 37 32 29 29 29 33 40 34 31 30 31 29 32 31
40 39 43 44 43 43 42 44 45 40 38 36 38 40 37 31 32 37 40 39 37 37 35 30 28 26 25 23 25 27 28 30 31 29 34 34 31 30 34 34 34 28 28 27 27 30 29 30 34 29 31 29 29 31
40 41 41 43 42 44 42 42 39 38 37 41 40 37 34 33 35 40 40 41 37 34 29 27 28 26 24 22 21 23 27 29 30 29 29 30 28 27 30 29 30 35 29 31 32 31 35 32 28 30 30 29 29 29
42 40 41 42 43 44 44 41 40 40 43 40 39 38 39 43 41 40 41 39 35 33 27 26 28 27 23 21 20 19 19 20 26 31 30 26 27 28 30 32 32 29 25 27 33 32 32 30 29 28 30 32 31 30
41 41 41 39 39 40 43 40 41 46 46 44 44 44 44 41 41 40 40 37 36 32 28 25 24 22 20 20 20 21 21 20 20 22 24 24 25 28 29 29 29 28 27 26 26 28 34 31 30 29 30 28 29 30
40 40 40 40 39 41 42 46 48 48 46 45 46 43 43 42 38 37 37 39 35 32 27 24 23 21 20 19 20 21 22 25 29 29 26 25 25 28 30 31 30 30 29 27 27 26 27 27 27 28 28 28 29 30
40 41 39 38 42 46 48 45 45 45 44 46 44 45 43 40 38 37 37 36 34 32 31 29 23 23 22 21 21 23 30 26 29 30 30 28 28 29 29 28 27 27 28 27 28 27 27 27 27 28 28 28 29 28
40 41 41 39 39 42 44 44 43 42 43 42 43 45 44 42 41 40 37 37 35 32 29 27 26 26 29 26 25 26 30 30 33 34 34 34 33 32 29 28 28 29 28 28 27 26 27 27 27 27 27 27 27 27

GFSWCAN_sfc_dewp_060.txt.gz
Dewpoint
53 53 52 52 51 52 52 52 52 52 51 51 51 52 52 53 53 51 46 51 47 44 39 39 38 39 39 37 37 37 38 39 37 37 36 34 34 37 34 32 31 33 34 34 33 28 27 37 35 30 40 41 40 41
53 52 51 51 51 51 51 52 52 52 51 52 52 52 52 53 53 51 48 48 49 44 41 43 42 41 40 40 38 39 41 38 38 39 38 37 35 37 35 32 35 36 38 37 31 29 43 42 41 41 41 41 41 41
52 51 51 51 51 51 51 52 51 51 51 51 52 52 52 53 53 52 48 49 46 44 44 42 41 42 39 38 39 39 43 41 43 40 39 39 34 37 33 35 36 34 36 35 35 37 39 40 41 42 41 42 43 44
52 51 51 51 51 51 51 51 51 51 52 51 52 52 52 53 53 53 48 50 46 46 42 41 42 43 42 40 40 40 39 41 42 41 39 39 37 39 37 37 37 36 38 36 37 39 39 40 41 41 42 42 42 44
51 50 50 51 51 51 51 51 51 51 52 53 53 52 52 52 54 51 50 50 51 46 42 40 41 42 42 42 41 40 41 42 48 45 41 39 40 40 40 38 37 38 36 35 34 39 39 39 42 43 41 42 44 47
50 50 50 50 51 51 51 50 51 51 52 53 53 53 53 53 53 50 49 49 49 49 45 38 43 43 43 42 42 42 44 43 41 39 35 34 37 39 38 36 38 40 41 41 38 40 42 42 42 43 42 44 46 46
50 50 50 50 51 51 51 51 50 51 51 52 53 52 53 53 50 48 48 49 49 49 45 40 42 43 44 44 44 43 46 42 41 41 45 40 40 36 41 35 39 35 37 41 41 40 39 42 40 43 44 44 46 46
50 49 50 50 51 50 51 50 50 50 51 52 53 51 52 53 51 48 50 50 49 47 45 40 39 48 46 45 47 42 42 48 41 44 40 38 37 41 36 41 42 38 34 36 36 40 39 41 42 42 43 43 43 42
49 49 49 50 50 51 51 50 50 50 51 52 53 51 50 49 48 49 52 50 49 47 43 39 36 40 45 43 43 42 41 45 43 44 43 42 42 33 40 36 41 40 36 32 33 34 36 38 41 41 41 41 41 41
49 49 49 50 50 51 51 50 50 50 51 53 51 49 48 50 53 51 48 46 46 45 44 42 36 37 42 48 47 44 43 38 42 40 37 44 41 41 40 37 39 39 39 36 33 35 35 34 38 41 40 42 43 43
48 49 49 50 50 51 50 50 50 51 52 49 50 50 51 53 49 47 45 44 46 43 42 41 39 37 38 44 46 43 42 43 40 37 34 41 42 39 37 39 39 42 42 38 38 40 37 37 36 37 39 41 42 43
48 49 50 50 51 51 51 51 51 51 51 50 49 48 49 49 47 45 45 42 40 40 42 41 42 41 44 50 47 44 42 43 36 38 33 39 39 40 37 34 37 39 40 41 39 37 37 37 36 38 39 40 41 43
49 49 50 50 51 50 51 51 51 51 51 50 50 48 48 46 41 40 40 42 44 48 46 42 41 48 52 50 48 44 39 40 44 35 40 36 45 45 39 36 33 36 37 38 40 39 37 37 37 36 38 40 39 39
49 49 50 50 51 51 52 52 52 51 50 48 47 41 40 39 40 42 39 42 51 49 44 41 44 45 44 46 45 39 42 42 36 36 35 43 45 45 39 38 37 36 37 37 39 38 37 36 36 34 34 40 37 39
49 50 50 51 51 51 52 52 52 51 49 45 44 39 37 38 40 41 46 50 46 44 41 39 39 42 43 41 43 41 35 31 37 37 40 45 46 45 44 41 41 39 37 35 35 37 36 35 33 34 34 34 35 41
50 49 51 51 50 51 52 51 52 52 48 44 42 37 39 40 41 41 48 49 41 42 41 40 39 39 38 39 37 35 33 35 38 35 35 44 46 42 41 38 37 35 39 40 39 38 35 35 33 33 32 32 33 34
49 49 50 50 51 51 52 53 52 48 45 42 41 42 48 46 49 46 44 37 38 37 35 39 39 37 41 37 35 38 36 40 41 39 36 41 42 42 41 39 37 36 38 41 42 40 40 35 33 34 33 35 35 37
47 50 50 50 49 51 52 51 47 43 42 44 44 43 42 46 45 40 39 40 38 36 38 38 39 35 35 34 38 39 39 38 37 36 37 40 41 42 39 39 38 38 37 42 46 43 41 36 36 32 33 33 32 37
44 46 50 50 49 50 49 50 48 43 44 48 44 42 45 46 46 43 42 42 42 42 41 40 36 37 35 37 41 36 36 37 36 37 39 42 46 45 40 39 38 38 37 42 40 43 44 38 31 27 26 26 28 27
49 50 50 50 51 52 47 45 50 46 43 42 48 41 42 43 47 42 42 43 40 35 34 35 40 40 37 40 41 42 47 43 42 45 44 42 41 42 41 36 32 35 31 37 42 42 36 35 31 31 26 28 27 29
51 53 52 52 51 51 47 43 50 48 46 39 48 52 41 44 43 40 39 36 34 35 35 37 39 42 47 47 50 47 50 51 51 51 46 45 39 34 35 32 34 35 42 41 42 38 40 36 32 32 34 33 27 26
55 53 53 54 50 49 47 46 44 51 46 50 51 47 48 39 38 39 45 39 36 34 39 40 42 42 42 47 51 51 49 51 49 51 48 41 35 32 30 30 27 28 32 40 43 42 41 34 34 39 42 32 32 29
50 52 53 51 47 47 46 48 45 45 42 43 48 41 39 36 41 46 39 36 39 41 43 44 46 50 50 47 46 44 46 43 46 47 47 45 38 36 44 38 28 28 30 32 35 39 41 39 32 29 34 34 35 34
51 50 47 44 45 46 48 46 45 42 48 48 40 38 38 38 46 39 31 32 36 37 39 47 41 39 37 44 33 35 33 31 39 42 44 40 36 37 37 40 30 27 28 29 37 38 44 43 36 33 33 30 32 32
44 45 46 42 47 46 44 42 45 42 39 44 37 36 35 39 36 33 30 30 32 34 36 39 36 31 28 27 25 26 33 26 26 35 37 35 36 36 36 34 32 27 27 27 30 40 43 44 37 33 32 26 28 31
41 43 42 40 38 39 45 41 46 44 36 35 39 45 39 38 33 32 34 35 33 33 33 30 28 25 25 25 25 26 28 29 34 32 32 29 28 30 31 32 30 29 27 28 32 36 36 39 41 31 28 31 36 33
40 38 41 41 42 41 42 48 40 36 35 36 39 41 35 33 33 38 39 39 37 33 31 28 26 24 22 22 26 29 29 30 33 30 29 28 28 29 30 31 29 28 29 30 37 41 39 37 32 31 30 30 30 32
40 40 39 41 39 41 40 41 35 37 40 46 42 44 43 32 34 39 40 40 36 30 28 26 27 25 22 20 19 21 26 29 30 30 27 26 27 27 30 26 26 34 30 31 33 35 34 34 32 29 28 29 30 29
41 39 40 41 41 43 41 40 40 47 44 34 44 44 39 43 41 40 40 38 36 31 26 25 26 25 22 21 20 19 18 20 28 30 29 25 25 26 27 28 28 27 25 25 33 31 28 26 26 28 29 29 29 30
37 38 37 38 40 46 51 52 48 42 37 37 40 43 42 41 41 41 39 38 37 33 27 23 22 21 20 19 20 21 20 20 21 23 24 24 25 26 27 27 27 26 26 27 27 28 33 31 30 30 29 29 29 32
37 37 37 37 40 47 50 49 44 40 41 39 40 40 42 43 42 41 40 40 38 34 25 23 21 19 19 19 21 22 23 26 29 28 26 24 26 28 28 28 27 28 28 27 26 27 28 27 27 28 28 29 29 30
35 37 37 41 48 52 48 40 39 41 48 43 40 42 42 41 40 39 39 39 37 34 31 28 22 21 20 19 22 25 32 27 30 31 32 28 28 29 28 27 26 26 27 26 27 26 26 26 27 26 27 28 27 28
36 37 39 43 48 47 46 42 38 38 36 37 41 44 41 41 42 42 41 40 37 35 31 26 24 24 28 25 26 27 32 32 33 35 35 34 33 32 29 27 27 28 27 28 26 26 26 27 27 28 28 28 28 29

GFSWCAN_sfc_dewp_063.txt.gz
Dewpoint
55 53 52 52 52 51 52 52 52 53 52 53 53 53 54 55 55 51 52 54 50 46 43 42 38 42 40 39 37 38 39 38 36 35 33 35 32 34 32 32 32 33 32 33 33 29 26 40 38 35 39 40 40 40
55 53 51 51 51 51 52 52 52 52 52 52 52 53 53 54 55 54 50 53 54 50 45 46 44 44 44 42 40 40 40 37 38 38 37 36 33 35 34 29 33 33 35 33 36 34 40 39 39 41 40 39 40 41
54 53 51 50 51 51 52 51 52 51 52 52 52 53 53 54 54 53 48 51 52 47 44 45 42 44 41 39 39 41 41 42 41 41 37 37 32 37 30 31 33 34 35 34 33 37 38 38 40 41 40 40 39 41
54 52 50 50 51 51 51 51 51 51 52 52 53 53 53 54 54 53 48 50 52 48 44 42 43 44 44 40 40 41 41 44 42 42 41 37 36 39 35 35 34 36 35 33 34 36 36 39 40 42 42 41 39 41
53 51 50 50 51 51 51 51 51 51 52 52 53 53 53 54 54 52 51 51 53 49 43 42 44 42 43 44 42 41 42 43 47 42 41 39 37 38 38 38 35 38 37 33 33 37 38 38 41 42 42 41 41 43
52 50 49 50 51 51 51 51 50 51 52 52 53 54 54 54 53 50 51 53 50 53 47 41 45 45 43 44 43 43 43 42 44 45 41 39 40 38 37 34 38 39 41 40 38 40 41 42 43 42 42 42 42 44
51 50 49 50 50 51 51 51 51 50 51 52 53 54 53 53 50 48 49 51 51 53 47 42 43 44 45 44 44 44 45 45 44 44 44 41 39 40 39 34 39 41 40 42 42 41 40 40 39 42 42 42 43 44
50 49 49 50 50 51 51 51 50 50 50 52 53 54 53 52 51 48 50 52 51 49 47 42 41 48 45 44 48 46 45 46 44 45 43 43 42 41 34 39 42 42 41 41 41 42 40 42 43 42 42 42 41 41
50 49 49 49 50 51 51 51 50 50 50 51 52 53 50 49 48 51 54 52 52 50 43 43 41 41 47 45 48 47 45 45 48 45 44 44 38 31 34 39 42 41 39 37 36 38 40 39 41 41 40 40 40 41
49 49 49 49 50 51 51 51 50 50 50 52 51 49 48 51 54 53 49 47 48 46 46 43 42 39 46 50 48 47 46 41 41 42 45 39 37 40 42 43 43 42 42 39 37 37 37 38 40 41 41 41 41 42
48 48 48 49 50 51 51 51 50 50 52 50 50 49 53 54 51 49 46 45 46 45 47 48 49 46 49 47 44 49 44 44 40 42 39 40 41 41 44 43 44 45 43 40 40 39 38 38 38 41 40 41 42 43
48 48 49 50 50 52 51 51 51 51 52 51 50 51 52 51 48 46 47 49 46 44 48 46 48 46 50 53 46 46 42 43 37 45 41 36 42 43 43 42 43 45 44 42 42 41 40 41 39 38 41 41 41 43
48 48 49 49 50 51 50 52 51 51 50 51 51 50 47 49 42 43 41 44 44 48 49 49 48 49 50 51 47 42 38 39 44 40 35 40 43 46 44 43 42 43 43 43 43 43 42 41 41 41 41 41 42 40
48 49 49 50 50 51 51 51 51 50 50 48 48 40 45 44 46 47 47 48 50 50 47 48 48 48 50 45 44 38 42 42 38 35 36 42 44 45 46 46 42 42 41 41 43 42 42 41 40 42 41 41 41 39
49 49 50 50 50 52 51 52 52 51 50 47 47 40 41 48 49 51 52 51 52 51 49 46 43 45 43 42 43 41 37 36 37 35 41 44 45 46 46 45 42 41 40 41 44 44 40 40 37 36 39 41 41 42
49 49 50 51 52 51 51 51 50 51 51 46 45 41 42 46 49 49 50 42 41 40 43 42 40 38 39 41 37 35 33 34 38 41 40 46 45 45 44 44 43 41 43 43 45 46 44 41 39 35 35 38 37 41
49 49 51 51 51 51 52 52 51 50 46 44 45 47 48 48 49 47 46 41 44 39 37 41 38 36 43 36 36 41 38 40 42 41 42 44 44 44 44 44 44 41 43 44 45 44 43 42 41 38 37 40 38 42
50 50 50 50 50 51 52 51 50 45 44 46 46 48 49 52 47 44 45 46 45 42 42 38 42 35 36 33 38 43 42 42 42 44 44 46 47 47 45 45 44 44 44 46 46 44 43 43 41 38 36 36 35 41
44 46 49 50 48 48 52 51 50 44 46 51 50 51 52 51 53 52 49 51 51 50 46 44 39 41 39 42 44 43 42 45 45 46 47 47 46 47 47 46 43 44 44 45 47 46 45 42 42 35 33 35 32 32
49 49 50 50 49 50 51 49 55 49 45 49 52 51 51 50 52 50 46 45 47 44 42 39 42 44 45 48 49 49 49 50 49 47 47 48 49 48 46 45 42 43 43 44 45 44 46 44 39 35 36 36 33 33
51 52 51 51 51 51 49 48 50 51 52 51 53 54 52 50 46 45 45 46 42 41 40 43 43 46 51 53 53 50 51 52 49 48 48 48 46 40 40 41 44 43 45 46 45 45 44 44 41 42 39 37 35 36
54 53 54 53 52 52 51 51 47 53 49 52 51 50 49 45 45 45 47 44 42 43 45 47 49 48 49 50 51 52 52 51 50 49 48 46 45 43 38 43 43 42 41 40 43 43 43 44 43 39 39 38 37 34
52 52 51 53 51 47 47 53 50 50 50 50 51 48 45 46 47 50 44 44 45 50 50 51 50 53 52 52 53 51 50 49 46 44 44 43 41 41 38 37 35 33 35 40 43 45 44 41 41 40 38 37 37 38
51 49 50 50 47 44 48 48 50 51 49 47 46 43 42 46 48 45 35 39 43 46 48 51 49 46 44 44 40 39 39 38 41 42 43 42 46 39 40 36 36 36 37 38 39 41 42 44 42 36 35 35 34 34
43 44 46 39 47 46 43 46 48 46 44 45 45 46 44 48 43 38 36 40 41 41 45 46 42 38 32 33 32 34 41 37 36 35 39 38 37 37 37 37 36 32 39 40 40 40 43 44 43 39 29 32 34 34
40 44 42 40 39 41 43 45 46 44 42 42 44 48 47 43 39 35 41 43 41 40 40 38 36 32 31 34 32 32 34 36 35 31 32 30 32 33 34 31 29 33 38 40 39 38 41 41 39 33 31 34 37 35
40 38 44 47 43 46 50 51 49 47 44 42 47 46 44 39 34 42 46 45 39 39 41 38 34 28 30 33 34 37 34 35 37 33 35 34 32 33 33 30 29 34 37 36 40 40 38 36 34 34 33 33 35 36
40 41 40 44 42 43 46 45 44 45 44 45 44 44 42 39 39 47 43 41 37 39 34 33 33 27 26 28 27 32 33 32 35 30 30 30 31 29 31 30 33 35 34 36 35 35 36 35 34 32 33 33 34 34
39 39 40 41 41 44 49 46 47 50 51 47 47 43 44 49 45 43 44 42 37 33 32 31 32 28 26 28 30 28 26 28 34 34 31 28 27 29 33 32 31 32 28 27 32 31 31 29 31 33 33 35 36 37
35 35 37 39 41 48 52 52 49 49 49 50 46 46 45 44 44 44 42 44 43 38 32 29 28 28 24 23 24 26 26 24 26 27 28 28 27 28 33 33 33 31 32 30 28 30 34 33 33 34 33 33 34 35
33 37 40 42 47 52 53 51 47 48 50 52 52 46 45 47 47 46 44 47 46 35 30 27 23 25 24 23 27 26 26 31 34 34 32 28 29 33 33 35 34 34 34 32 32 31 30 30 32 32 32 32 33 31
36 40 39 42 47 52 50 47 46 48 53 51 50 50 46 49 45 46 49 49 45 39 36 34 24 23 24 26 29 31 33 33 34 33 35 33 34 36 36 33 32 31 32 31 30 30 30 30 30 31 30 32 33 33
38 37 41 48 48 46 48 48 48 46 47 50 50 49 47 45 45 46 51 50 45 38 34 29 26 27 34 31 34 34 33 32 33 35 34 34 33 32 31 32 32 32 32 32 30 29 30 32 31 33 33 33 33 33

GFSWCAN_sfc_dewp_066.txt.gz
Dewpoint
56 55 54 52 51 51 52 52 53 53 53 53 54 55 55 55 54 50 49 51 46 44 43 42 39 39 38 37 34 36 36 35 34 28 26 24 27 32 30 30 29 31 33 31 33 27 26 39 38 35 38 39 39 40
56 55 54 51 50 51 52 52 53 53 53 53 53 54 54 54 54 53 47 49 51 47 44 44 43 40 40 39 38 39 35 35 36 31 32 26 31 33 28 20 32 31 33 30 32 35 40 38 36 39 39 38 39 38
56 55 53 51 50 51 52 52 52 53 53 53 54 54 54 54 54 53 47 48 50 45 43 44 43 43 40 40 40 38 39 39 38 38 35 33 26 33 28 29 30 33 36 31 29 35 37 36 39 39 41 40 39 39
55 54 52 50 50 51 51 52 52 52 53 53 54 54 54 54 54 53 47 48 49 46 41 42 43 42 43 40 40 40 40 43 40 40 37 36 32 35 30 30 33 33 33 31 31 34 36 38 39 40 41 42 41 40
55 54 51 49 49 51 51 52 52 51 53 53 54 54 54 54 53 51 49 50 51 45 41 42 44 44 43 39 39 40 41 41 41 38 40 37 34 35 37 36 35 36 33 29 28 34 36 37 40 41 41 39 40 42
54 53 50 49 49 50 51 52 51 51 51 53 53 54 54 53 53 49 49 49 50 50 44 39 43 42 42 42 40 39 41 42 45 42 42 41 38 34 30 33 34 37 38 36 34 38 38 39 41 42 41 41 42 42
54 52 50 49 49 50 51 51 52 51 50 52 53 53 53 52 48 46 46 49 50 50 46 42 40 43 43 42 42 42 41 41 42 44 42 38 38 38 32 30 34 38 39 40 39 39 38 40 40 41 42 42 43 43
53 51 49 48 49 50 51 51 51 51 49 50 52 53 53 52 50 47 49 50 50 48 47 41 40 43 45 43 44 48 44 45 44 42 41 41 39 37 34 36 36 40 41 40 40 41 39 39 41 42 42 41 41 41
52 50 49 49 49 49 50 51 51 51 49 50 52 53 50 47 46 49 54 53 50 47 44 43 40 38 49 47 49 48 48 43 46 42 41 42 36 33 35 33 38 40 39 38 40 41 41 40 40 41 40 40 40 41
50 49 48 48 49 50 50 51 51 49 50 51 49 47 47 49 54 53 49 47 47 46 46 42 44 41 44 44 45 44 46 44 40 42 45 39 36 38 36 34 40 41 39 38 36 35 37 36 39 40 40 40 41 42
49 48 48 48 49 50 51 51 51 50 51 47 47 47 52 54 50 49 44 44 45 44 45 45 47 44 48 42 43 45 43 40 34 41 42 39 38 43 40 41 42 42 40 39 37 36 36 36 36 40 40 41 42 42
48 47 47 48 49 51 51 51 51 49 49 50 48 49 50 49 47 45 44 48 45 41 47 43 44 48 49 49 42 42 40 38 35 44 37 32 41 45 45 44 43 43 42 41 40 38 38 37 38 37 40 40 41 42
47 47 48 49 49 51 51 51 51 51 49 49 48 49 48 46 41 44 38 42 42 45 46 45 43 49 47 45 40 41 38 38 43 36 34 38 43 45 46 46 45 45 45 44 42 42 42 39 40 39 39 40 41 41
47 48 49 49 50 51 52 51 51 50 47 47 48 38 44 43 47 46 43 42 45 47 47 45 44 44 43 40 40 37 39 39 35 33 34 37 41 44 45 46 47 44 42 42 44 45 46 45 39 39 39 37 38 38
48 49 49 49 50 51 51 52 51 49 48 47 47 38 42 46 49 48 49 47 49 48 47 44 45 43 40 38 39 36 35 32 35 33 35 40 39 41 42 42 43 42 41 42 44 44 44 45 41 35 38 37 39 38
49 49 49 50 51 52 51 51 49 49 50 48 45 41 45 47 48 47 46 46 43 37 42 40 37 36 37 37 34 33 32 29 33 37 39 41 40 41 42 42 40 39 41 42 44 45 44 42 42 38 35 37 37 39
48 49 51 51 50 52 51 50 50 49 49 45 44 49 50 49 49 49 47 42 42 37 35 38 35 34 38 33 33 35 32 35 37 39 41 41 41 41 43 43 43 40 41 42 42 44 43 43 41 35 33 36 39 40
49 50 50 50 48 50 52 50 51 51 47 46 45 50 51 51 50 46 44 44 42 40 39 36 38 33 31 31 33 37 39 39 40 42 42 43 44 46 48 45 46 43 45 45 44 44 42 42 39 36 35 37 40 40
45 46 49 50 47 46 51 52 50 45 45 52 52 52 51 51 51 50 47 45 43 44 42 39 36 35 35 38 39 40 41 41 41 41 42 42 42 43 45 46 46 45 43 43 44 44 45 44 43 36 35 34 38 38
49 50 50 50 49 47 49 51 53 49 47 51 52 48 48 47 49 48 47 44 45 40 37 37 38 39 41 42 44 43 44 43 42 41 41 42 44 45 43 42 42 41 41 41 42 43 43 44 45 44 34 34 36 36
49 50 51 49 48 50 50 49 49 51 50 49 51 50 49 50 47 44 41 42 37 37 37 40 40 41 45 46 47 45 45 44 42 42 42 40 42 41 42 42 42 42 42 44 40 40 42 43 45 45 40 35 36 38
49 53 52 51 52 52 50 51 46 52 50 50 50 48 47 45 43 43 43 40 36 38 39 42 42 41 45 45 45 44 45 45 44 44 43 41 37 37 38 40 41 41 43 41 42 41 43 44 41 40 36 35 35 36
50 52 52 54 52 46 44 51 47 50 49 47 49 47 46 45 44 45 41 40 40 45 45 44 44 45 45 47 43 37 40 44 42 41 40 40 39 36 34 35 39 41 40 40 42 42 41 40 42 41 39 37 35 36
51 49 49 50 49 41 47 48 52 50 49 46 46 44 44 44 46 42 35 37 43 45 41 42 41 36 36 33 32 35 40 41 41 41 41 39 37 35 35 35 36 40 40 40 40 40 41 44 42 38 34 35 35 34
43 44 46 38 46 47 44 47 48 47 44 46 45 45 44 46 40 38 33 36 40 40 41 36 35 33 33 32 34 36 36 34 32 34 37 36 36 35 34 33 39 40 40 38 38 39 39 40 37 33 34 34 35 36
38 44 41 43 42 43 45 45 45 45 45 45 46 48 47 44 40 35 37 38 37 35 33 33 31 31 31 31 32 33 31 32 30 30 30 33 34 32 31 34 35 35 38 39 39 38 38 37 33 31 33 36 38 36
40 43 45 48 45 48 49 50 50 45 45 45 46 46 44 40 37 41 42 37 34 34 34 31 29 30 31 31 33 34 32 30 29 29 31 32 33 31 29 30 32 34 36 38 38 38 36 34 33 33 34 35 35 35
43 43 41 42 45 47 46 48 46 45 47 48 47 45 43 42 40 44 40 38 35 32 30 27 25 24 25 29 33 34 32 31 29 30 30 28 27 29 29 32 34 36 31 32 35 35 33 32 32 33 32 32 32 34
43 43 42 40 41 48 49 48 47 49 50 50 49 48 47 48 47 39 35 34 35 32 31 30 27 26 25 25 24 26 31 31 28 27 27 27 27 27 29 29 28 28 27 26 31 29 26 29 34 34 35 35 35 34
38 38 36 37 41 46 50 52 49 49 50 51 51 50 47 46 44 43 41 40 36 33 32 31 28 25 23 22 23 26 28 29 30 30 28 26 26 27 31 31 30 28 26 25 25 26 32 31 31 33 32 31 32 33
36 37 35 38 44 49 52 52 49 51 51 51 52 50 49 48 45 44 40 42 33 29 26 24 23 24 24 25 26 27 27 32 33 31 29 28 29 31 31 30 30 31 31 29 29 30 29 31 31 29 28 28 28 30
37 36 35 44 46 51 51 49 47 50 51 49 48 50 49 49 42 43 46 45 36 32 34 26 24 26 28 31 31 32 34 33 32 33 33 33 34 32 32 32 30 29 29 30 29 29 28 27 29 30 29 28 29 29
39 38 48 48 47 47 49 49 48 50 50 49 49 49 49 49 47 46 47 45 42 33 30 25 26 30 33 33 33 32 33 31 33 34 34 34 33 32 31 31 31 31 31 30 28 28 28 29 29 30 30 30 30 30

GFSWCAN_sfc_dewp_069.txt.gz
Dewpoint
55 56 56 54 52 50 52 52 52 53 53 53 53 54 54 54 54 48 48 50 46 42 43 41 39 38 38 36 34 35 35 33 32 26 24 21 21 23 25 28 28 27 28 23 30 26 23 37 36 33 36 37 38 39
55 56 55 54 51 50 51 52 52 53 53 53 53 55 54 54 54 49 45 47 49 46 42 45 44 41 40 39 37 37 32 34 34 29 27 24 31 32 26 20 31 26 30 27 31 30 37 37 35 37 39 38 37 37
55 56 55 53 50 50 51 52 52 52 53 53 53 53 54 54 54 50 45 46 48 44 43 43 42 44 40 40 40 37 38 38 37 35 32 29 23 28 26 26 26 31 34 29 29 30 34 37 37 39 39 39 40 40
55 55 54 52 49 50 51 52 52 51 52 52 53 53 54 54 53 52 46 46 47 44 39 40 44 43 41 40 40 40 40 40 39 38 34 32 26 32 25 27 28 30 32 29 28 31 33 37 39 38 40 41 39 38
55 55 54 51 49 49 51 51 52 51 51 52 53 54 54 54 53 50 47 48 49 45 40 41 44 45 44 41 39 42 40 40 40 37 36 34 34 33 35 36 33 35 32 28 27 31 31 32 37 39 40 40 40 41
54 54 53 49 48 49 50 51 51 51 50 51 52 53 54 53 52 49 47 49 50 49 44 38 43 43 43 39 39 41 41 42 42 40 39 40 37 35 29 27 32 35 36 34 32 34 36 36 39 40 41 42 41 41
54 54 51 49 48 49 50 50 51 51 50 50 52 53 53 51 47 45 45 48 50 49 45 41 39 42 43 40 39 40 41 41 42 43 41 40 39 36 34 26 33 35 36 38 37 38 36 38 38 39 42 43 42 42
54 53 50 48 48 49 50 50 51 51 50 50 51 52 52 52 49 46 48 50 49 47 46 41 38 42 43 41 43 47 44 44 44 44 42 41 39 40 34 36 37 36 38 39 39 39 38 36 39 40 41 43 41 41
54 52 49 48 48 49 49 50 51 51 50 50 51 52 49 46 45 48 54 52 50 47 42 41 38 39 47 46 48 48 47 43 47 43 43 42 36 33 37 36 38 38 39 39 40 40 40 39 39 40 40 40 39 40
53 51 48 48 48 49 50 50 51 50 50 51 48 47 45 48 53 52 48 45 45 45 46 41 43 40 43 46 46 45 45 43 40 43 45 40 37 42 42 40 36 39 40 39 36 36 37 37 38 38 39 40 39 41
51 49 47 48 48 49 50 51 51 50 51 47 46 46 50 53 49 47 43 42 45 41 41 42 42 41 48 44 44 45 42 40 35 40 38 35 34 41 46 45 38 41 41 38 37 36 36 36 35 36 38 40 40 40
49 47 47 48 49 50 51 50 51 49 47 48 48 48 50 48 46 44 42 46 42 39 43 43 43 45 45 47 44 43 40 40 35 42 36 33 38 44 45 45 46 43 42 41 41 39 38 37 37 38 38 38 40 40
47 47 48 48 49 50 51 50 50 50 49 48 46 47 48 46 42 41 36 38 40 42 44 43 42 44 46 44 38 38 37 38 43 35 35 35 39 43 45 46 46 46 44 44 43 42 42 41 41 39 38 39 39 40
47 47 48 48 49 49 51 51 51 49 46 45 46 38 43 41 44 43 42 41 43 44 44 43 42 41 41 38 38 34 39 36 32 28 30 35 37 39 43 44 46 44 43 43 43 45 45 44 43 42 39 40 37 39
48 48 49 49 50 49 51 51 51 48 46 45 46 38 43 46 48 48 48 45 46 46 44 43 43 41 39 36 37 35 35 29 30 29 33 37 38 39 40 41 41 41 42 42 43 45 45 43 42 42 39 38 37 38
48 49 49 50 50 50 50 51 49 48 48 46 45 41 45 45 46 47 46 45 46 39 42 39 36 35 34 35 32 31 31 28 31 35 38 39 39 40 39 41 43 42 42 41 43 44 43 41 41 41 39 36 37 38
48 50 51 49 49 50 51 49 48 48 48 47 44 49 49 48 47 46 47 44 41 37 34 36 32 31 35 32 31 34 31 33 37 38 40 40 39 39 43 44 46 44 43 43 43 44 44 44 42 42 37 35 38 39
50 50 50 49 47 50 50 48 50 51 47 48 45 50 50 49 45 45 45 44 40 39 37 34 36 32 30 30 31 36 37 39 39 41 41 40 41 42 45 42 43 45 45 45 45 45 45 44 41 39 34 37 39 39
44 46 48 49 45 43 49 51 49 43 45 49 50 50 49 48 48 48 47 46 43 43 40 37 34 33 34 36 37 38 39 39 39 40 40 41 40 41 43 43 44 41 41 41 42 43 44 43 41 37 35 39 38 39
50 50 51 50 48 43 46 49 51 47 46 49 50 47 46 46 47 47 46 45 42 38 36 35 37 37 39 40 41 41 42 41 40 38 39 40 41 41 40 40 41 39 40 40 41 41 39 40 41 41 35 37 37 38
49 50 50 48 46 48 48 48 48 50 51 47 48 47 46 48 46 43 41 41 35 35 35 38 39 40 43 43 43 43 43 42 41 40 39 37 39 39 39 40 40 42 43 41 39 41 41 42 43 44 41 35 37 38
45 52 50 50 50 51 48 49 44 48 48 47 47 46 45 45 44 44 42 37 35 35 38 41 41 39 44 44 45 44 43 42 41 43 42 39 36 36 37 38 38 38 41 40 41 43 44 42 40 39 37 37 40 40
48 52 51 52 50 46 44 51 47 49 47 45 47 45 46 45 45 44 39 40 39 42 43 43 43 43 44 42 38 42 43 41 39 39 38 37 36 35 36 38 39 38 37 37 39 39 41 41 43 42 39 36 35 37
49 48 48 49 49 43 46 47 49 48 48 45 44 42 44 43 44 40 37 37 39 44 41 40 35 32 32 35 38 40 40 40 39 39 38 35 35 34 34 34 38 39 38 38 38 39 40 43 42 42 36 35 35 35
42 42 45 37 46 47 44 47 48 45 41 44 43 45 44 45 40 40 35 34 43 42 40 37 34 33 34 35 37 37 36 39 39 38 39 36 35 34 36 37 37 37 38 37 37 37 38 36 35 34 35 37 36 37
38 43 41 44 42 42 44 44 44 44 44 44 46 46 45 43 39 36 36 37 38 36 34 33 32 32 33 36 34 31 30 33 36 34 32 33 33 34 34 34 34 35 37 38 37 35 34 34 34 34 35 36 37 36
39 42 44 46 44 47 46 48 48 43 43 43 45 45 43 39 38 39 40 37 32 34 34 32 32 31 32 31 31 30 31 29 31 31 32 33 32 32 33 33 33 35 36 37 37 36 33 33 34 34 34 34 34 34
44 43 42 41 44 46 44 46 46 45 44 48 46 43 42 41 40 43 39 36 32 31 29 28 30 30 30 32 32 31 29 30 30 28 27 27 28 29 32 34 35 36 33 36 34 32 32 33 32 33 32 31 32 34
42 44 41 39 39 45 47 47 47 48 49 47 45 44 44 48 47 38 35 33 30 26 25 24 24 25 25 28 32 31 30 28 25 23 23 23 24 25 29 30 28 28 26 25 31 31 33 34 34 34 34 34 33 32
37 41 36 35 36 43 49 50 48 49 49 50 50 49 49 45 45 39 34 32 29 26 25 24 24 22 22 25 26 28 30 28 26 26 26 25 25 26 28 28 27 26 26 25 26 26 33 32 33 32 32 31 32 30
35 36 33 33 34 46 50 51 50 51 50 50 51 49 47 47 43 42 35 33 32 31 30 27 25 22 22 25 26 28 29 32 31 29 28 27 27 29 30 30 29 28 26 26 27 28 29 30 29 29 28 28 29 30
35 34 33 32 45 51 50 49 47 47 48 47 46 48 48 46 43 43 44 36 32 30 31 29 26 23 24 25 28 28 32 31 30 29 28 29 30 31 30 30 30 30 30 28 29 29 30 30 30 29 28 28 29 29
36 38 46 46 46 46 48 48 47 48 48 48 48 49 47 47 44 46 43 37 31 27 26 24 28 30 30 30 32 32 33 32 33 34 34 34 33 32 31 31 30 30 30 30 28 28 27 28 29 30 30 30 29 29

GFSWCAN_sfc_dewp_075.txt.gz
Dewpoint
55 55 55 55 56 53 51 51 51 52 53 53 53 54 54 54 54 51 49 50 47 43 41 39 38 39 38 37 35 37 36 33 30 35 35 34 35 34 32 30 29 31 32 33 32 29 26 38 36 33 37 39 37 37
54 54 54 55 55 52 50 51 51 52 53 53 53 54 54 54 54 49 46 48 51 47 42 46 43 41 40 39 37 39 35 35 32 37 35 36 35 33 33 32 32 31 34 36 34 33 38 39 36 38 38 36 38 39
54 54 54 55 54 52 49 50 51 52 52 52 53 53 54 54 54 50 47 49 49 46 42 43 42 44 43 39 39 36 38 38 37 35 33 36 35 37 32 33 33 34 35 32 31 33 38 40 38 38 39 38 39 39
53 54 54 55 53 50 49 50 51 51 51 52 53 53 54 54 53 51 49 49 49 46 42 37 44 44 44 41 40 39 40 39 38 37 35 34 37 35 35 34 34 33 36 35 35 34 35 37 37 38 40 40 39 39
53 53 54 55 53 50 49 50 51 51 51 51 52 53 53 53 51 51 51 50 51 46 42 42 43 44 44 42 41 41 40 39 43 41 38 38 35 37 37 37 37 35 37 37 35 37 36 35 39 41 40 40 40 40
53 53 54 54 52 50 49 50 50 51 51 49 51 52 53 52 50 51 48 50 51 50 45 41 44 44 44 42 42 41 41 41 40 41 39 38 37 37 39 36 37 37 38 39 34 38 37 39 40 41 40 40 40 41
53 53 54 53 51 50 48 50 50 51 51 49 49 51 52 52 50 45 47 49 50 50 44 40 39 42 43 42 42 41 42 43 41 43 43 42 39 38 37 35 38 37 38 39 38 37 37 39 39 41 41 41 42 42
53 53 54 53 51 49 48 49 50 50 50 49 49 51 52 51 50 49 50 51 50 48 46 40 38 44 44 42 44 48 45 47 46 45 46 43 41 41 34 39 41 42 39 39 38 38 37 40 41 41 42 42 42 42
52 53 53 51 50 49 48 49 50 50 49 49 50 51 50 49 50 49 53 51 51 48 43 41 39 38 49 49 49 50 48 41 46 42 42 42 36 33 38 41 42 43 42 41 39 38 38 39 41 41 42 42 42 42
52 53 51 51 50 48 48 49 50 50 50 50 50 49 49 51 53 52 49 46 47 46 46 43 43 42 45 48 46 45 47 43 41 42 46 41 39 43 44 45 46 45 43 42 38 38 39 39 40 40 41 41 42 41
53 52 51 49 49 48 49 50 51 49 50 50 50 50 51 52 50 49 45 45 46 43 46 46 45 44 49 46 45 47 44 43 37 41 39 38 37 42 43 45 46 46 43 43 43 42 41 41 41 40 40 41 42 43
51 51 50 49 48 48 50 51 51 49 49 50 49 50 50 49 47 44 45 46 44 43 46 46 47 46 48 50 46 45 41 41 35 42 38 34 40 43 44 44 44 44 43 44 45 42 42 40 40 40 40 40 41 43
50 49 48 47 48 49 50 50 50 50 50 49 48 48 48 47 40 41 38 42 44 46 47 48 47 48 48 46 44 43 37 38 43 36 36 38 43 43 44 44 46 47 46 46 45 45 45 44 43 42 41 42 42 42
48 46 46 48 49 49 50 50 51 50 48 43 46 38 44 43 45 46 45 46 48 48 47 48 48 47 46 44 44 38 41 40 32 32 33 38 42 43 44 44 44 44 43 44 44 45 45 46 46 46 44 44 44 43
47 48 49 49 49 49 51 51 51 49 46 43 46 39 45 47 49 49 50 50 49 49 48 47 46 45 42 41 41 40 36 32 32 32 37 41 44 44 45 44 43 42 42 43 44 44 44 44 45 46 47 46 45 43
48 49 49 50 50 51 51 51 50 49 48 43 44 41 44 46 47 49 50 47 47 45 43 41 38 36 37 39 34 31 31 29 33 37 38 42 45 44 45 45 44 43 43 45 45 46 46 46 45 46 44 44 43 42
49 50 49 49 50 50 50 50 48 47 45 47 46 49 47 49 49 49 47 47 44 39 35 37 32 33 40 35 33 38 35 35 37 39 41 44 46 46 46 47 46 46 45 45 46 46 46 47 47 45 44 46 43 41
49 50 49 47 47 50 51 50 49 47 46 47 45 48 51 52 51 48 47 47 41 40 39 36 38 33 32 29 34 40 40 40 41 45 46 46 47 47 46 46 46 46 44 44 44 45 47 46 46 46 46 44 44 44
46 47 48 48 46 42 46 50 48 42 44 50 51 52 52 52 52 51 47 46 45 43 41 40 36 37 34 39 42 43 44 43 43 46 46 45 45 45 44 44 44 44 43 45 45 46 46 46 44 44 45 45 45 45
50 50 51 50 47 42 41 46 51 48 46 51 53 52 52 50 48 48 48 48 44 42 41 39 39 40 38 44 47 47 47 48 46 45 44 44 44 44 44 41 40 44 41 43 44 43 44 44 44 43 42 45 46 44
49 49 49 48 46 47 48 48 50 52 52 52 52 51 49 48 47 46 46 45 42 41 39 39 39 41 43 47 46 45 46 48 47 46 44 40 40 39 39 39 43 42 43 43 43 43 42 43 44 45 43 45 46 42
46 50 51 50 50 49 48 49 45 46 50 51 51 49 47 45 46 47 45 41 41 41 40 41 43 43 44 48 46 47 47 48 46 41 39 38 33 34 37 41 39 41 42 39 39 44 44 43 41 43 42 41 42 44
49 51 52 50 48 46 44 51 50 49 47 48 48 47 48 47 47 48 44 44 44 44 42 45 46 47 47 47 46 46 46 44 39 38 37 34 35 36 36 38 38 37 39 39 41 43 42 40 39 40 40 40 42 38
48 49 49 49 47 43 49 48 51 51 50 50 47 45 46 47 46 43 41 41 43 45 44 47 44 42 42 45 42 42 42 40 38 38 38 34 33 36 37 36 37 38 40 39 38 39 44 44 39 37 37 37 36 34
44 44 45 38 48 49 48 46 48 48 45 44 45 45 46 48 44 42 41 41 42 43 43 43 41 40 37 39 40 41 42 38 35 35 37 35 35 36 35 35 36 39 39 35 34 36 40 41 38 36 35 35 36 35
37 42 42 46 43 44 44 44 46 46 45 44 46 49 47 44 42 41 41 41 43 43 41 39 37 36 37 38 36 36 38 39 38 34 37 36 34 31 31 30 33 36 38 37 33 34 36 35 34 34 34 35 36 34
37 38 43 46 45 45 47 48 49 46 42 42 46 46 44 40 40 43 44 43 42 43 41 39 37 34 34 38 37 35 37 40 38 33 36 36 35 35 34 32 33 36 39 38 36 35 35 33 32 32 33 34 35 34
44 44 41 43 44 46 44 45 45 45 46 48 48 45 41 39 40 46 43 42 39 40 39 37 36 35 34 37 35 33 36 35 34 33 34 33 32 32 36 36 37 37 38 37 36 36 35 35 34 33 32 32 35 36
41 44 44 41 40 41 45 44 46 50 52 51 47 46 44 50 50 46 44 36 36 36 33 33 33 34 35 36 34 33 33 32 30 30 30 25 26 28 35 34 32 34 35 28 36 36 36 35 34 33 34 33 34 33
38 41 40 37 37 37 44 49 50 53 53 52 50 51 52 50 50 45 35 33 33 32 32 31 31 31 32 33 32 31 31 30 29 28 28 26 25 26 31 33 31 30 29 30 31 33 35 35 35 34 33 32 32 32
38 39 37 35 31 36 43 50 50 52 50 52 53 50 48 49 46 42 35 34 33 32 30 29 29 30 30 31 32 31 29 30 31 31 29 28 26 28 29 31 30 29 29 29 29 30 30 31 31 31 30 30 30 30
40 38 36 35 36 46 53 52 48 48 51 50 49 50 48 50 46 44 40 33 32 30 32 29 27 28 29 30 32 32 33 30 32 32 32 29 29 30 31 30 29 28 29 28 28 28 30 30 30 31 30 31 31 31
41 37 37 33 35 44 48 48 47 47 50 50 50 49 48 48 46 48 43 40 35 30 30 30 29 31 32 31 31 32 33 33 35 34 33 33 33 33 30 30 30 30 30 30 29 28 30 30 30 32 32 32 32 31

GFSWCAN_sfc_dewp_078.txt.gz
Dewpoint
55 55 55 55 55 55 52 50 51 52 52 53 53 54 54 54 54 50 48 52 48 39 39 39 37 37 36 34 33 37 32 30 28 36 37 39 41 41 37 32 30 31 33 34 29 28 27 35 34 29 39 41 38 38
54 54 54 54 55 54 51 50 51 52 52 53 53 54 54 54 54 51 43 49 51 44 42 45 42 42 40 38 36 37 34 30 29 38 40 40 41 39 39 37 33 33 32 37 30 33 39 39 39 41 37 37 38 38
54 54 54 54 55 53 50 50 51 51 52 52 53 53 54 54 54 51 48 51 49 43 41 40 40 44 43 42 40 35 36 37 36 36 31 37 37 42 39 38 33 32 34 30 32 31 37 39 39 39 37 36 38 38
54 54 54 54 55 53 50 50 50 51 51 52 53 53 54 53 52 52 50 51 49 44 36 38 44 45 45 43 43 39 40 40 37 36 34 33 39 34 39 38 34 33 35 33 35 34 34 38 39 37 38 38 37 37
53 53 53 54 54 52 49 49 50 50 51 50 52 53 53 53 51 52 52 51 51 46 38 38 42 43 44 44 43 41 39 39 38 37 35 36 36 36 35 34 37 34 34 37 33 32 36 33 38 40 39 39 38 37
53 53 53 54 54 50 49 49 50 50 50 50 50 52 52 53 52 50 47 50 51 49 43 36 41 44 45 44 43 42 41 43 40 39 38 39 40 38 43 42 38 37 38 38 35 38 36 37 39 40 38 39 38 37
53 53 53 54 53 50 49 49 50 50 50 50 49 51 52 52 50 46 47 49 51 51 43 36 38 43 44 44 43 42 43 42 42 44 44 42 40 43 40 40 39 42 41 40 40 38 38 37 37 39 39 40 41 39
52 53 53 54 52 50 49 49 50 50 50 49 49 51 52 51 50 50 51 51 50 47 44 39 37 43 45 44 43 44 43 45 47 45 45 43 42 42 35 41 43 43 44 42 40 40 36 37 39 40 40 40 40 40
52 53 53 53 50 49 48 49 50 49 49 49 50 51 51 50 50 49 52 52 52 48 43 41 37 38 47 50 47 48 47 43 45 43 42 44 39 35 42 42 42 41 44 43 42 41 40 38 39 39 39 39 39 39
52 53 53 51 50 49 48 49 49 49 49 50 51 50 48 51 53 52 51 48 47 46 45 41 43 38 43 49 48 44 45 44 41 43 46 42 41 44 42 43 44 46 46 45 42 40 41 39 38 39 39 39 39 38
52 52 52 50 49 48 49 49 50 49 49 50 49 48 51 52 51 49 46 45 46 44 44 45 46 41 47 46 47 47 45 45 39 41 40 38 41 37 40 43 46 45 44 44 43 42 41 41 40 39 39 40 40 40
52 51 50 49 48 48 49 51 50 48 49 50 50 50 51 49 47 44 45 46 46 41 46 46 47 46 48 51 46 46 42 41 35 40 38 37 35 39 42 42 45 42 43 41 40 40 41 41 41 41 40 39 40 41
50 49 49 48 48 49 49 50 51 50 50 50 48 48 48 48 40 43 38 42 44 44 45 46 44 48 49 46 43 45 37 37 41 37 37 34 38 40 43 43 44 45 44 46 44 43 43 42 44 44 43 42 41 41
48 47 46 47 48 50 51 50 50 50 48 42 44 39 45 44 45 44 44 45 47 46 46 45 45 45 45 43 44 37 40 39 33 33 33 30 41 43 43 43 43 43 44 43 44 44 44 44 45 47 47 46 44 44
48 48 50 50 49 49 51 51 51 50 46 40 42 39 44 46 47 50 50 50 48 47 44 44 46 44 40 40 40 37 34 31 32 31 30 38 44 44 43 42 41 41 43 43 44 43 44 44 44 45 46 47 47 46
48 49 48 50 50 50 50 50 51 50 46 41 41 38 44 44 45 48 48 45 44 43 43 40 37 34 34 34 33 29 28 28 29 32 35 40 44 45 45 44 45 45 45 45 46 45 46 46 45 46 46 47 48 46
49 49 50 50 51 51 51 50 48 45 42 42 39 38 38 42 45 48 46 44 46 40 34 34 27 28 35 29 29 34 32 30 34 34 37 45 47 46 46 45 44 44 44 44 43 44 45 46 48 45 44 46 48 46
51 49 49 49 49 50 51 51 50 47 44 41 38 43 48 49 48 47 47 47 42 40 40 36 36 31 27 24 29 32 34 36 39 39 41 46 47 46 43 43 43 43 43 43 42 43 45 47 46 45 45 46 46 47
46 48 50 49 47 43 43 49 49 41 39 43 46 48 50 50 52 51 49 49 47 46 42 41 36 34 32 31 32 34 36 36 36 40 44 46 45 43 43 42 42 40 40 42 41 46 46 45 47 45 46 45 45 46
50 51 51 51 49 46 42 43 53 49 46 51 50 50 50 50 49 49 48 47 45 43 42 40 37 35 35 38 38 37 39 43 41 38 42 39 39 40 41 37 35 37 34 38 40 41 42 44 47 44 46 45 44 44
47 50 49 49 48 48 46 46 46 49 53 51 53 53 50 49 48 46 46 48 46 43 41 41 40 40 44 43 43 44 45 45 43 39 38 34 35 35 35 36 35 33 32 37 41 43 40 43 45 46 44 46 46 44
47 50 53 52 50 50 48 48 44 45 44 44 48 47 42 43 44 46 47 45 43 42 43 43 44 44 47 48 47 48 49 48 45 36 36 35 31 32 33 33 32 33 34 37 38 42 41 38 39 41 36 36 40 40
49 50 52 52 49 46 45 52 48 47 43 45 49 46 46 46 47 48 45 44 44 48 47 46 50 49 48 50 50 48 48 44 36 33 32 31 31 32 32 32 32 34 34 36 37 39 36 37 37 38 38 38 37 34
47 50 49 48 47 44 49 49 51 51 50 50 47 44 45 47 48 45 43 43 44 45 44 50 47 46 46 48 42 41 40 35 34 33 32 31 30 32 32 31 34 35 35 35 35 38 39 37 37 34 34 32 31 30
44 44 45 39 48 47 47 45 46 46 43 45 44 45 46 47 46 42 41 41 43 43 45 46 44 42 38 37 35 37 40 33 30 30 32 33 31 30 29 31 34 35 34 31 31 31 33 35 32 31 30 30 30 30
38 43 43 42 41 42 41 42 43 43 44 42 45 50 47 45 42 40 41 42 43 44 44 43 41 38 36 35 32 33 35 34 34 30 32 31 31 28 26 28 30 32 33 31 30 30 30 30 29 29 30 32 35 31
37 37 41 45 44 43 44 46 45 42 41 41 47 47 46 40 39 42 45 45 43 44 44 42 38 33 32 31 31 33 34 34 35 31 32 32 30 31 28 27 30 32 33 32 32 32 31 30 29 29 30 31 31 30
40 41 38 39 41 39 38 39 39 40 44 47 47 42 39 38 38 44 44 44 43 44 41 38 32 29 29 31 32 34 34 33 32 31 32 31 30 28 32 33 34 37 36 33 33 32 33 32 31 30 30 31 32 32
40 41 41 38 38 36 41 40 38 42 48 48 46 43 42 46 48 46 44 40 41 41 35 33 31 30 30 31 33 32 32 30 30 31 31 26 26 27 30 31 32 34 32 29 35 35 34 32 31 30 31 30 32 32
38 37 36 34 33 31 31 35 37 45 49 47 47 45 46 47 48 50 44 38 37 33 30 28 27 27 28 28 29 30 30 29 27 28 29 27 25 26 30 29 30 30 28 29 29 31 36 34 34 32 32 31 31 31
39 37 36 35 33 31 29 30 35 38 42 40 43 46 45 47 50 47 44 39 36 32 31 27 26 26 26 27 29 30 28 30 31 31 30 29 26 27 29 30 28 28 29 29 29 29 29 30 31 31 31 31 31 30
39 37 34 33 32 37 44 45 42 42 46 50 46 49 48 49 48 46 44 41 37 34 35 32 28 28 29 29 29 29 33 28 31 32 34 30 29 29 29 28 28 27 29 28 28 28 29 30 30 30 30 30 31 31
39 36 36 34 31 32 36 41 41 44 47 49 51 49 48 47 47 49 43 42 41 38 36 33 32 34 37 34 33 35 34 32 33 34 34 33 32 31 28 28 28 28 28 28 27 27 28 29 29 30 31 31 32 31

GFSWCAN_sfc_dewp_081.txt.gz
Dewpoint
55 55 55 55 55 55 52 50 50 51 52 53 54 54 54 54 54 49 45 48 46 36 37 35 33 35 32 32 31 34 28 28 26 35 37 39 41 42 39 34 31 30 32 31 28 27 26 34 31 28 41 41 39 39
54 55 54 54 55 55 50 49 50 51 52 53 53 54 54 55 54 53 43 47 48 45 41 40 38 40 39 37 34 34 34 29 28 37 39 38 44 41 39 39 34 33 32 36 30 36 42 38 39 42 41 40 38 38
54 54 54 54 54 55 50 49 50 51 51 52 53 54 54 54 54 52 46 49 47 41 39 37 38 40 40 39 37 35 34 36 34 36 32 37 40 41 41 40 34 31 33 32 32 35 37 37 39 39 38 36 38 38
53 54 54 54 54 55 49 48 50 50 51 51 52 53 54 54 53 53 47 48 47 41 34 38 40 41 43 40 41 38 39 39 38 33 30 30 36 35 37 38 31 32 35 31 32 34 35 38 39 39 37 37 36 37
53 53 54 54 54 53 48 48 49 50 50 50 51 53 53 53 53 52 51 50 49 47 38 36 39 40 41 43 41 39 38 41 37 36 34 34 34 36 32 32 32 32 33 33 32 36 37 35 39 39 38 37 36 36
52 53 53 53 54 52 48 48 48 50 50 50 50 52 53 53 53 49 46 49 49 48 43 34 40 43 43 42 42 40 40 41 40 38 38 39 40 39 44 44 41 39 37 38 37 41 39 36 37 39 38 39 38 37
53 53 53 53 54 50 49 49 48 49 50 50 49 51 52 52 50 46 47 49 50 51 42 34 39 42 43 43 41 41 42 44 43 43 46 46 43 45 45 43 41 43 43 43 41 40 39 37 37 38 39 40 39 38
52 52 53 53 53 50 48 48 48 49 49 49 49 51 52 52 51 50 51 52 50 47 43 37 37 42 44 44 47 44 43 44 45 46 46 43 43 42 36 41 43 41 42 42 43 42 39 39 39 39 39 39 39 38
52 52 53 54 52 49 48 48 48 49 49 49 50 51 52 50 49 48 52 52 52 50 43 36 32 39 43 50 50 48 44 43 44 44 45 43 40 35 41 43 39 40 41 42 42 43 43 41 40 40 39 39 38 38
52 52 53 52 49 48 48 47 48 49 49 50 52 50 47 50 52 52 51 49 48 45 42 37 36 36 36 45 47 47 44 44 43 43 45 43 43 43 46 41 43 43 44 43 43 44 43 43 41 40 39 39 39 37
52 53 52 50 49 48 48 48 50 50 48 50 47 45 50 52 51 49 46 44 44 41 39 39 41 36 43 42 45 42 45 44 41 43 42 40 42 42 37 39 42 44 44 44 46 45 44 43 42 42 40 40 38 38
52 52 50 48 48 48 48 50 51 48 47 50 50 50 51 49 48 46 43 44 43 42 43 40 41 42 44 46 41 43 40 37 36 40 36 40 41 39 40 40 41 43 42 43 44 44 43 43 43 43 41 39 39 41
50 50 48 48 48 49 50 51 51 51 51 50 48 47 47 47 42 43 38 43 44 39 42 41 43 43 46 43 42 45 35 37 37 37 40 35 40 40 42 40 39 43 43 43 43 44 43 43 43 42 43 44 41 42
47 47 47 47 47 49 51 51 50 51 48 44 43 42 45 43 43 41 41 43 43 40 38 34 39 42 43 42 39 37 37 36 31 34 33 39 44 43 41 39 38 37 36 40 42 44 43 45 45 48 45 48 44 44
48 48 49 49 49 50 51 51 50 51 46 41 39 38 41 43 43 42 44 44 42 39 36 37 39 37 39 34 34 32 30 28 28 29 30 39 46 43 42 41 39 38 39 40 43 44 44 45 47 47 48 49 49 48
49 48 49 50 50 50 51 50 51 50 46 41 39 37 40 41 42 43 42 40 37 36 38 34 33 31 29 30 28 25 23 25 26 30 32 39 45 43 44 43 41 40 41 41 41 42 42 42 44 45 46 46 47 49
48 50 50 51 51 51 51 51 49 46 42 39 35 33 38 44 43 42 42 39 38 37 34 31 25 25 27 25 25 31 28 28 30 32 36 47 47 46 44 41 40 39 39 39 39 40 40 41 43 45 46 45 45 47
51 50 50 50 49 50 50 50 48 46 42 37 36 40 43 46 45 43 41 42 38 38 38 36 36 31 28 23 25 27 29 31 34 36 38 45 46 45 42 40 40 39 39 39 39 39 41 44 45 45 46 47 45 46
47 48 49 49 48 44 43 47 49 41 38 35 39 43 46 46 49 47 46 44 42 43 40 39 37 34 31 32 32 30 31 33 34 39 45 47 45 42 41 40 39 37 37 37 39 37 39 43 48 48 48 44 45 47
50 50 51 51 49 45 44 42 50 46 41 45 43 45 49 48 49 47 46 45 45 43 40 39 38 39 38 36 39 36 34 38 36 38 41 40 38 41 39 36 32 35 33 39 38 40 39 41 45 48 46 46 42 45
48 50 50 50 46 45 45 42 43 42 43 46 43 49 46 48 46 45 44 47 45 43 40 41 48 46 46 43 41 41 42 40 38 37 34 34 34 35 33 33 34 31 33 36 36 37 39 40 41 45 43 46 46 47
48 51 53 53 51 49 47 45 41 43 42 38 41 43 41 42 44 46 51 46 45 44 45 45 47 47 48 46 45 45 49 49 45 35 34 33 31 31 31 31 30 32 34 36 36 37 37 37 41 44 39 36 39 33
48 48 48 51 49 47 45 47 45 42 40 40 41 43 44 43 45 49 44 43 43 46 47 49 51 50 48 50 49 49 48 42 35 33 30 30 30 32 30 31 30 32 31 32 37 37 34 37 37 37 35 35 34 34
46 47 46 46 48 44 43 44 46 48 47 46 47 45 45 47 48 45 42 40 43 46 46 54 49 48 47 49 44 43 40 35 33 32 31 30 28 31 32 31 32 32 33 33 36 34 33 32 37 35 32 33 31 30
44 41 44 41 45 45 42 44 43 41 42 45 46 46 46 46 46 42 40 38 41 42 46 49 46 44 42 41 37 36 40 31 29 29 30 31 30 28 28 30 32 33 30 30 29 29 30 31 32 31 31 30 31 31
41 42 43 37 37 39 37 38 41 42 44 43 42 46 45 48 43 39 41 39 40 42 45 45 42 40 38 35 32 33 33 32 31 28 30 29 29 29 28 29 30 31 31 30 29 29 30 30 29 30 31 31 32 32
38 36 40 41 42 40 38 38 39 40 40 39 45 48 48 41 39 45 44 45 43 43 44 43 40 37 33 32 31 32 32 32 33 32 31 30 30 30 28 26 30 30 31 31 31 31 30 30 29 29 30 31 31 31
40 39 37 36 37 36 35 36 37 39 40 42 45 44 43 39 42 49 43 46 45 43 41 40 37 30 28 28 29 31 30 30 32 30 30 30 31 27 31 32 34 37 34 32 33 32 31 32 32 30 30 30 32 33
41 40 38 36 36 35 37 37 38 39 42 43 48 42 42 46 44 45 50 47 43 41 39 34 30 27 27 29 30 29 30 27 28 30 30 27 26 26 29 31 32 31 31 29 34 35 35 31 31 31 30 31 32 32
40 37 36 37 34 32 33 30 32 34 39 43 43 43 43 41 47 49 49 50 43 41 37 33 28 25 25 26 27 28 28 26 25 27 29 29 26 26 28 29 30 31 32 29 28 29 35 32 32 32 31 31 32 31
37 37 36 36 35 33 32 29 28 29 33 36 38 37 37 43 54 57 54 47 42 40 34 31 30 25 25 27 28 29 27 27 28 28 29 28 27 27 29 30 29 30 29 28 29 29 30 30 30 30 30 31 31 30
38 39 37 36 32 32 32 33 35 36 37 40 43 44 46 51 52 50 49 43 40 39 41 40 42 45 34 31 32 32 34 29 30 30 32 29 28 29 29 29 28 27 29 29 28 28 29 30 29 30 29 30 31 31
39 39 38 36 34 34 32 33 38 38 39 45 54 49 46 49 49 47 47 45 43 41 44 46 48 49 47 42 41 39 36 32 34 33 34 33 33 31 28 27 27 28 29 28 28 27 28 30 30 31 31 31 32 31

GFSWCAN_sfc_dewp_084.txt.gz
Dewpoint
54 55 55 55 55 56 52 50 50 51 53 54 54 55 55 55 55 51 46 48 45 42 36 32 30 32 29 32 31 34 28 28 27 34 33 38 40 44 38 36 34 28 29 28 25 25 27 34 29 27 43 40 36 38
54 54 54 55 55 55 53 49 50 51 52 53 54 54 55 55 54 54 47 46 48 45 41 36 36 37 38 36 34 31 32 30 30 35 35 36 42 38 37 37 33 34 35 40 33 39 42 41 43 44 41 42 41 41
52 54 54 54 54 55 54 48 50 50 52 52 53 54 55 55 55 53 50 47 45 42 38 34 36 37 36 36 37 36 34 35 33 37 34 36 37 39 40 39 37 31 32 34 34 40 40 39 41 41 40 40 38 38
52 53 54 54 54 54 53 48 49 50 51 51 52 54 54 55 55 54 50 47 46 43 36 38 40 38 39 38 38 38 39 37 36 31 29 29 34 36 35 38 33 32 35 29 32 34 36 37 38 39 38 37 38 37
53 53 53 54 54 55 52 48 49 50 50 51 51 53 54 54 54 51 51 48 47 47 43 36 37 37 38 40 38 37 37 40 39 37 35 34 36 39 34 31 32 33 32 32 32 37 40 38 41 40 39 37 36 37
53 53 53 53 54 54 50 48 49 49 50 51 51 51 53 54 53 50 48 49 49 47 45 34 41 40 40 41 40 39 40 42 40 39 39 44 45 41 45 44 42 43 43 43 40 42 40 39 37 38 38 37 36 36
53 53 53 53 54 54 49 48 49 49 50 50 50 51 52 53 51 48 48 50 50 51 46 36 39 42 41 41 41 41 42 42 42 42 47 45 44 43 46 44 45 43 44 45 43 43 41 38 36 38 38 39 41 38
53 53 53 53 54 52 49 48 48 49 50 50 50 51 52 52 52 50 51 51 51 49 43 40 41 42 42 43 41 43 41 45 44 43 44 44 44 43 37 42 42 41 41 40 42 42 42 43 44 44 39 39 39 37
52 52 53 53 54 51 49 47 48 49 50 50 51 51 52 50 49 49 53 53 52 51 48 36 35 45 42 43 45 51 46 46 45 43 46 43 42 35 41 42 43 41 40 40 40 40 43 43 44 41 43 40 39 39
52 52 52 53 51 49 48 48 48 50 50 50 51 50 49 51 52 52 52 50 49 45 43 39 34 38 38 43 44 46 41 46 43 44 43 43 42 44 44 46 47 44 42 42 42 43 44 42 44 43 42 43 42 39
52 52 53 50 49 48 48 49 50 50 49 49 48 50 50 53 51 49 46 46 46 44 42 40 40 35 42 35 39 43 41 42 41 42 39 40 39 43 44 39 48 45 41 42 44 44 44 44 45 44 43 44 44 41
52 52 50 48 48 48 49 49 50 48 49 50 50 49 51 50 48 45 43 41 40 42 45 39 42 39 39 42 38 42 38 42 35 40 39 39 36 44 40 38 40 43 43 40 41 42 43 43 43 43 43 43 43 43
50 49 48 48 48 48 50 51 51 51 51 51 49 48 48 48 42 43 40 45 44 40 41 41 43 41 41 40 39 39 35 34 35 37 39 35 45 47 43 39 37 38 41 42 41 44 45 44 44 43 44 45 45 43
45 46 47 47 47 48 50 51 50 51 48 45 45 40 43 43 43 41 43 42 44 37 35 33 35 36 38 37 37 35 35 32 27 32 33 42 46 43 42 39 38 38 38 40 43 45 44 48 47 48 47 46 46 45
50 49 49 50 49 49 51 50 51 50 48 41 38 39 41 43 43 43 39 41 40 37 34 36 37 34 36 36 34 28 25 27 28 32 36 48 46 44 42 41 41 42 40 41 41 44 46 46 45 47 48 50 50 50
50 48 49 50 51 50 50 51 51 50 46 40 39 37 40 42 43 41 41 39 36 35 37 33 31 29 27 28 24 25 22 23 27 31 39 46 47 46 44 42 41 40 40 41 39 42 43 42 42 44 43 47 47 50
48 50 51 51 51 51 51 50 49 45 41 39 35 33 36 47 46 43 43 41 39 36 36 33 28 26 26 23 23 26 27 27 30 34 43 49 48 46 43 41 39 38 38 38 38 42 41 39 41 41 44 47 47 45
52 49 50 50 49 51 51 49 46 43 41 38 34 37 40 45 43 45 46 41 37 37 38 38 36 32 30 24 25 28 28 29 33 38 44 48 48 46 42 40 39 38 38 38 39 42 41 41 41 41 46 47 45 48
47 48 49 49 49 45 42 46 47 40 38 35 34 35 44 45 52 48 50 46 41 39 39 38 38 36 36 36 39 33 28 29 32 42 46 49 47 43 41 39 39 37 36 40 40 36 38 43 43 46 49 48 42 44
50 50 51 51 49 45 43 41 48 43 40 44 39 36 49 48 48 46 48 50 45 42 42 39 43 46 42 44 43 37 34 35 34 34 39 42 42 42 40 38 33 36 36 39 37 39 38 40 40 40 44 43 41 43
48 50 51 51 47 44 44 42 42 40 39 39 40 41 42 44 46 53 50 52 49 47 44 41 47 53 53 49 43 41 45 39 36 37 35 36 37 34 35 35 35 31 31 33 34 36 37 36 39 42 42 42 43 40
49 51 50 52 50 50 46 44 39 41 41 41 38 39 40 40 41 46 47 47 44 47 48 46 52 49 50 49 47 46 51 49 46 37 35 33 30 31 31 30 29 30 34 34 36 36 37 34 37 38 37 43 41 40
50 48 45 48 48 45 44 44 43 43 39 39 39 36 36 39 40 51 46 45 46 48 46 47 55 54 52 52 50 50 49 42 36 34 31 29 31 32 29 30 28 30 32 36 36 37 36 37 36 36 33 35 35 34
47 46 45 44 47 43 42 41 42 41 44 41 41 43 47 50 50 46 41 42 48 52 48 57 50 49 50 52 46 45 44 38 34 33 32 30 28 30 31 29 30 30 31 34 33 33 34 36 34 32 32 32 34 32
43 40 42 40 45 44 39 39 41 39 40 43 45 46 45 53 46 44 42 46 52 48 48 50 47 47 45 45 42 41 44 34 30 30 31 31 30 29 28 29 31 31 31 32 32 31 31 32 30 31 30 28 29 32
41 41 41 38 37 37 34 36 42 41 42 42 42 50 50 48 46 42 44 46 47 45 46 47 44 43 42 41 37 36 35 32 32 29 31 29 30 28 28 29 29 31 30 30 29 30 30 30 29 29 30 29 31 30
40 39 40 41 40 41 37 36 37 36 38 43 48 48 46 41 42 49 52 52 45 43 44 45 42 40 39 38 35 34 32 32 34 30 32 30 30 31 29 28 29 31 31 30 30 30 30 30 30 28 30 30 31 30
42 40 37 38 36 36 34 35 35 37 38 47 46 45 42 41 45 52 54 54 45 44 43 42 40 38 35 32 30 31 30 30 35 30 30 30 31 27 30 30 35 36 34 33 32 31 31 31 31 30 30 31 32 32
41 40 39 38 37 35 36 35 35 34 39 45 49 48 49 53 49 48 47 47 44 43 41 40 37 31 29 30 32 30 29 30 30 29 29 28 27 25 28 30 34 33 31 32 35 34 34 32 30 30 31 31 31 32
39 38 35 35 36 35 35 32 32 32 34 35 43 46 47 50 51 54 56 53 52 45 46 41 34 28 28 28 29 32 31 30 27 27 29 28 28 27 28 29 31 29 31 31 28 29 35 31 32 32 32 31 32 32
38 37 36 35 34 36 35 32 30 29 28 28 30 34 39 50 53 57 53 55 49 42 41 37 37 40 36 37 38 40 38 37 33 28 28 28 28 28 29 30 30 31 32 31 29 29 29 30 31 33 32 31 32 31
36 36 35 36 36 36 34 31 30 30 33 36 45 51 53 54 52 54 48 43 41 41 43 43 44 47 49 50 46 41 37 37 36 32 32 29 28 30 30 29 28 28 30 28 29 29 30 30 29 31 31 30 33 34
39 37 37 36 35 35 33 32 31 32 44 50 52 53 53 49 47 48 48 46 44 44 48 48 49 49 48 47 41 39 39 39 41 34 33 33 33 32 29 28 28 28 28 28 28 28 29 30 29 31 31 32 31 32

GFSWCAN_sfc_dewp_087.txt.gz
Dewpoint
51 53 54 55 55 55 56 53 51 52 53 53 54 55 56 56 55 53 51 55 51 48 42 36 34 40 39 39 36 37 34 34 35 38 40 41 41 43 40 38 35 34 30 31 29 30 31 44 39 38 43 43 43 44
53 52 53 54 55 55 55 54 51 52 53 52 53 55 55 55 55 54 53 52 54 51 46 41 39 39 40 38 38 36 34 37 36 43 42 42 41 39 37 36 36 36 37 39 40 39 44 45 44 44 42 43 41 41
53 53 53 54 54 55 55 54 51 52 52 52 52 54 55 55 55 54 53 56 52 50 46 39 37 42 37 37 37 42 42 41 42 42 40 42 38 42 39 39 36 36 35 39 40 43 42 43 42 43 42 40 41 39
53 53 53 53 54 54 55 54 50 51 52 52 52 52 54 55 55 54 53 54 53 51 44 40 40 42 41 39 40 39 42 40 39 39 37 37 41 42 39 40 35 37 36 32 35 41 41 42 43 41 40 42 39 40
53 53 53 53 54 54 55 53 50 51 51 52 52 52 53 54 54 52 51 54 53 50 46 42 39 39 39 43 41 40 44 46 44 43 41 41 44 44 42 40 41 43 42 38 39 43 41 43 43 43 40 40 40 39
53 53 53 53 53 54 55 51 50 51 51 52 52 52 52 53 53 53 52 53 50 52 50 43 44 44 43 44 44 44 47 46 45 43 43 45 46 44 42 40 44 45 45 45 44 45 44 43 42 44 43 40 39 39
53 53 53 53 53 54 54 50 49 50 51 52 52 52 52 52 51 52 50 52 51 56 51 44 43 45 44 45 45 45 46 47 46 45 46 45 43 45 44 40 45 46 46 46 44 44 43 44 42 41 41 42 43 39
53 53 53 53 53 54 53 49 50 50 51 52 52 52 52 52 52 52 54 53 52 53 52 45 45 45 46 43 44 46 46 46 46 46 45 44 43 43 36 42 43 44 43 44 44 44 43 43 42 44 43 42 40 40
52 53 53 52 53 54 51 48 49 50 51 52 52 52 52 51 53 54 55 54 55 55 50 46 43 44 49 49 47 49 48 46 47 44 45 44 40 34 39 43 43 45 43 43 43 43 43 44 44 45 42 42 41 40
52 52 52 53 53 51 48 47 50 51 51 51 50 51 52 54 53 53 54 53 52 53 52 46 45 43 45 48 46 46 46 46 42 43 44 43 40 42 46 46 47 47 44 43 42 44 44 44 44 44 44 42 43 42
52 52 53 52 49 48 48 49 50 51 50 50 52 52 54 55 55 53 49 49 48 46 47 46 46 41 46 42 43 46 45 44 41 42 41 41 41 45 47 47 46 46 46 44 44 44 44 44 44 44 45 44 44 43
52 52 50 48 48 48 49 50 50 49 52 50 50 52 55 53 49 46 48 46 45 44 46 45 45 45 47 48 44 45 42 44 38 43 41 38 43 46 46 42 43 44 44 44 46 45 45 45 44 44 44 45 44 44
49 48 48 47 47 48 51 51 51 51 51 54 52 50 50 50 41 43 42 46 47 46 46 45 46 48 48 47 43 43 38 38 42 41 41 40 46 47 46 47 43 43 45 45 47 45 45 47 46 45 45 46 46 45
48 47 47 47 47 48 50 51 51 51 49 48 46 39 45 44 44 45 44 45 48 44 42 44 43 43 43 43 41 38 40 39 34 35 37 46 47 48 47 44 43 43 43 43 45 46 47 49 47 47 48 48 47 48
51 50 50 50 50 49 50 51 51 51 50 46 44 37 42 45 47 46 47 47 46 44 43 42 43 41 41 42 41 35 34 32 35 36 40 48 49 46 45 44 43 43 42 42 43 42 43 45 46 47 48 48 49 50
51 49 49 50 50 50 50 50 51 52 51 45 44 39 42 43 45 49 46 46 45 43 45 43 41 38 36 37 35 31 28 29 33 42 45 50 49 48 46 44 44 42 41 41 41 42 41 41 43 43 44 46 48 48
48 49 50 51 50 50 50 49 52 48 43 41 40 39 39 48 49 47 50 49 49 43 42 43 35 34 36 30 32 32 32 37 43 45 46 50 50 49 46 44 42 42 43 41 41 43 45 44 43 43 45 47 47 47
51 49 51 50 48 51 52 49 47 44 41 42 39 39 45 47 48 48 50 50 49 46 46 43 45 38 35 32 33 41 39 44 46 48 48 51 51 49 46 44 43 41 42 42 43 43 44 43 43 44 46 47 45 44
47 48 50 50 50 46 44 48 49 41 41 41 41 41 43 48 54 54 54 54 52 52 48 47 42 41 42 43 45 45 41 44 46 48 50 51 50 47 45 44 43 44 44 44 42 42 43 44 43 44 47 45 41 43
50 50 51 51 48 45 44 45 53 47 41 45 45 43 46 50 53 51 50 52 52 50 45 43 42 46 48 49 50 49 46 46 44 47 47 46 46 46 45 43 43 44 42 43 41 41 41 43 42 43 43 42 41 42
50 49 51 51 48 45 43 44 45 46 44 43 44 44 46 50 48 52 49 55 52 50 47 47 46 55 54 51 51 54 49 47 47 46 46 43 43 41 42 41 41 41 39 37 39 39 39 41 43 43 43 43 43 41
50 52 50 52 50 50 47 48 45 46 44 44 45 45 42 42 44 47 50 50 49 48 48 48 51 53 53 54 53 53 53 51 48 41 40 40 38 39 39 38 37 38 38 39 39 39 40 38 38 42 46 45 44 42
50 50 46 47 49 46 45 49 45 46 42 44 44 42 41 41 44 49 44 49 49 52 53 54 56 55 54 56 55 54 53 48 44 43 39 36 41 42 39 37 34 37 38 40 40 41 40 38 38 38 39 40 41 45
48 47 45 44 45 43 44 44 45 45 44 43 41 42 44 51 54 50 46 49 54 55 54 57 56 55 55 55 51 50 49 47 45 41 40 40 35 38 41 37 36 38 39 40 38 38 41 40 39 36 37 37 38 39
43 41 42 38 46 46 42 38 41 41 40 41 43 46 50 52 49 48 48 52 54 55 55 56 54 51 49 49 49 48 50 42 39 37 41 40 38 36 35 36 39 37 37 38 37 37 38 38 37 35 34 32 33 36
40 43 40 39 38 36 36 35 41 43 43 43 47 51 51 48 45 44 49 53 53 53 53 54 51 48 49 48 46 44 43 42 45 36 37 36 37 33 33 35 36 38 37 38 37 35 36 34 33 35 32 30 30 33
41 42 44 45 41 41 40 42 42 39 39 42 48 49 48 44 42 48 55 54 53 55 55 56 51 46 45 45 43 42 39 43 44 40 39 40 37 39 38 35 37 39 38 36 35 34 35 34 34 33 33 35 35 34
44 43 39 41 42 41 38 38 35 37 38 46 48 47 43 42 47 53 55 56 56 56 56 51 50 46 42 36 35 35 35 34 34 36 34 37 39 36 38 38 38 37 39 37 38 37 36 36 35 35 35 35 36 36
42 42 43 41 41 40 40 37 37 37 39 43 48 47 48 54 53 54 57 58 57 52 53 53 53 38 34 35 35 34 33 32 35 37 35 32 33 32 36 37 38 38 37 35 36 37 37 34 34 33 35 36 35 36
41 42 41 40 38 38 39 39 37 36 35 36 48 51 53 54 55 56 56 56 56 55 56 54 52 36 31 31 33 34 34 36 42 37 35 34 33 30 33 36 37 35 37 34 32 33 35 35 34 36 36 37 37 37
41 40 39 38 36 36 37 37 37 36 34 39 49 49 50 51 52 56 55 51 45 43 41 40 36 32 33 35 35 36 39 44 40 41 40 37 34 33 34 38 36 36 37 37 32 32 30 31 32 34 35 37 37 35
40 39 37 37 38 41 41 37 34 34 45 48 48 48 48 53 51 54 50 47 45 42 43 43 43 45 45 43 39 39 40 38 41 41 43 38 38 38 36 35 34 34 37 36 35 32 33 33 34 35 35 37 38 38
40 37 36 36 37 38 36 37 36 45 47 48 50 53 53 51 45 49 50 49 48 46 46 45 44 45 47 44 43 40 40 41 42 39 38 35 34 35 34 34 34 35 34 33 32 31 34 35 34 36 38 38 37 37

GFSWCAN_sfc_dewp_090.txt.gz
Dewpoint
54 54 52 52 54 55 55 56 54 52 53 54 54 55 55 55 55 52 48 52 45 44 44 35 38 36 36 35 32 33 36 34 33 35 37 36 35 37 35 37 33 33 28 30 29 28 27 42 40 37 41 45 48 45
54 54 54 53 54 55 55 55 54 51 53 53 53 54 55 55 55 54 50 52 53 45 43 38 36 36 35 37 35 37 32 32 32 35 38 38 35 36 34 31 36 33 34 37 38 37 41 41 41 42 41 45 45 46
53 54 54 53 53 54 55 55 55 51 52 53 53 53 54 55 55 53 49 52 49 46 43 35 34 35 38 38 39 38 39 39 36 38 38 40 34 38 31 32 34 34 35 40 39 40 39 40 40 41 40 38 40 43
53 53 53 53 53 54 54 55 53 51 52 52 53 53 54 54 54 53 47 51 51 48 41 37 39 38 37 37 37 40 38 40 37 33 32 37 35 40 36 35 33 35 35 29 37 39 40 41 40 39 42 41 38 38
53 53 53 53 53 53 54 55 52 50 52 52 53 53 53 53 53 51 50 50 50 46 44 43 39 39 39 38 40 42 41 41 41 39 40 41 42 41 41 39 39 42 39 36 36 40 39 39 42 41 39 40 40 38
53 53 53 53 53 53 54 55 50 50 51 52 53 53 53 53 52 51 49 52 50 50 46 41 41 39 40 41 41 41 42 43 42 42 42 43 43 41 35 36 42 43 44 43 41 43 42 42 43 43 38 39 39 38
53 53 53 53 53 53 54 53 49 50 51 52 52 53 52 52 49 50 49 51 50 52 49 42 40 44 41 42 43 43 44 44 43 43 42 41 41 42 36 31 42 42 43 43 42 41 40 41 39 41 41 40 43 39
53 53 53 53 53 53 54 51 49 50 51 52 52 52 52 52 51 50 51 51 51 50 50 42 44 43 44 41 41 44 43 44 43 42 42 39 39 39 34 38 41 42 41 41 41 40 41 44 42 40 42 41 38 39
52 53 53 52 53 54 52 49 48 50 50 51 52 52 51 50 51 51 54 53 51 52 47 44 42 40 46 45 46 46 44 41 44 40 40 40 36 31 34 37 41 42 40 41 40 41 42 43 43 43 43 41 38 38
52 53 52 53 53 51 48 48 49 50 50 51 50 51 50 52 55 54 52 49 50 50 50 45 44 41 44 44 42 42 43 40 37 40 41 37 34 38 39 40 43 44 42 40 39 39 40 41 43 43 43 44 42 40
52 52 53 51 48 48 48 48 49 50 50 48 50 50 51 54 52 50 46 47 46 43 45 43 40 41 43 40 41 42 40 41 34 38 37 35 35 42 43 44 45 45 44 41 41 42 43 43 42 42 43 44 44 43
52 50 49 48 48 47 49 51 51 48 50 48 47 50 50 50 46 44 44 45 43 40 43 41 40 41 42 42 40 43 40 40 34 42 37 31 39 42 44 44 44 41 41 43 44 43 43 43 43 42 42 43 44 43
48 48 48 47 47 48 51 51 50 50 50 51 50 48 48 47 38 42 40 42 41 43 44 43 42 40 41 42 39 37 35 36 41 37 33 36 41 44 42 41 40 42 43 44 45 45 44 44 44 44 43 44 44 44
50 48 48 48 48 47 50 51 51 50 48 47 46 38 44 42 44 44 43 43 44 44 43 44 41 37 40 37 38 34 36 38 34 32 33 40 43 43 42 44 40 40 40 42 43 44 45 45 45 45 46 46 46 46
50 51 50 50 50 50 48 50 50 49 49 48 45 35 43 45 48 47 45 44 43 39 36 37 39 37 37 36 37 34 34 32 32 31 37 42 43 44 43 41 40 39 39 40 40 40 41 42 43 43 45 45 46 47
50 50 48 49 50 50 49 48 49 50 50 47 43 39 40 43 46 46 46 44 44 37 39 39 37 35 35 35 33 31 28 28 28 35 41 45 44 42 41 40 40 38 38 37 38 39 39 40 39 40 43 44 44 45
49 48 50 50 50 50 49 48 51 50 47 43 41 41 39 40 46 46 48 48 47 40 37 40 34 28 30 25 26 29 26 30 41 43 46 45 44 43 40 40 37 38 36 37 39 41 41 41 43 43 42 43 43 43
50 48 49 49 48 49 51 48 47 46 43 43 39 39 41 42 44 46 49 49 47 42 43 39 39 30 29 30 32 35 36 44 45 46 47 46 45 42 41 37 38 38 37 39 41 41 41 41 41 41 41 41 41 41
49 49 50 50 49 45 44 49 50 45 43 43 43 42 43 44 49 50 51 50 49 48 44 41 38 37 37 39 41 43 42 46 46 46 46 46 45 42 40 38 37 37 39 38 40 40 41 41 42 42 41 40 39 41
50 50 51 50 48 45 44 45 51 47 45 43 43 41 43 45 48 49 49 49 50 49 47 39 40 40 43 44 46 46 44 47 47 46 45 46 44 41 39 39 39 41 40 39 39 40 40 40 41 41 41 40 39 40
50 50 51 50 48 46 43 44 45 46 44 42 43 43 43 47 44 45 48 51 50 48 47 49 47 47 51 50 50 47 48 47 47 47 46 44 44 41 40 39 41 40 37 37 38 38 40 39 40 41 41 41 40 41
49 52 50 50 50 50 46 47 44 45 42 42 42 43 42 40 40 41 50 49 48 49 48 47 49 52 51 50 51 51 50 42 40 43 45 43 41 39 39 37 37 38 38 37 37 37 38 39 40 42 43 42 42 44
49 50 47 49 50 45 43 49 45 45 41 40 42 40 41 39 44 50 45 47 49 52 53 54 54 54 53 53 53 50 47 41 38 37 42 42 41 40 38 38 36 37 36 36 37 38 37 37 35 40 39 39 41 41
50 47 46 44 45 41 46 44 45 43 44 42 42 39 43 47 50 47 45 47 51 53 52 53 54 53 52 51 50 49 46 41 39 34 34 36 36 35 34 31 36 37 37 37 38 38 38 35 37 35 37 38 40 39
43 41 41 36 45 46 44 42 40 42 39 40 42 44 48 49 46 46 46 50 51 52 53 54 53 53 50 50 50 48 45 41 39 32 34 33 33 35 32 33 37 37 39 38 35 36 37 38 38 36 33 31 33 35
39 44 39 40 40 41 40 37 42 41 42 41 44 48 47 46 46 45 47 51 52 53 53 52 54 54 53 52 50 47 46 43 39 34 36 35 33 32 30 30 35 34 37 37 36 36 36 36 34 33 30 27 32 34
39 43 45 46 43 42 41 42 43 41 37 39 45 47 46 43 44 48 53 53 52 55 55 56 55 54 54 55 54 52 49 43 38 35 35 34 34 34 32 32 33 32 35 35 35 36 34 32 31 32 30 29 30 32
44 44 41 43 44 44 41 41 38 34 38 48 48 44 43 43 45 50 52 55 56 56 57 56 54 52 52 52 51 43 33 34 34 34 34 33 35 36 35 36 37 37 37 36 36 35 35 35 33 34 34 34 33 34
43 44 44 42 43 43 41 40 39 38 39 44 44 44 46 51 53 53 54 55 55 55 54 52 49 46 41 34 34 34 35 35 35 35 35 33 30 32 34 35 34 35 36 36 37 35 32 32 32 33 34 34 34 34
42 42 42 42 41 40 41 40 37 38 38 38 50 52 51 51 52 53 53 51 51 52 50 53 50 33 32 33 33 35 36 35 34 34 35 35 35 34 35 35 35 36 34 32 31 31 35 32 33 32 32 35 35 35
42 42 41 41 40 41 40 40 41 41 43 49 50 50 49 50 51 53 51 50 44 43 42 41 37 33 34 34 35 34 34 38 38 37 38 38 39 38 35 37 35 34 34 32 31 30 29 30 32 31 32 34 35 34
43 42 41 40 40 42 41 38 39 46 48 49 50 50 50 51 50 52 50 47 45 44 44 43 41 43 41 37 36 35 37 39 40 39 38 40 39 37 36 35 34 32 34 35 32 31 29 29 29 31 32 34 35 36
42 41 41 39 38 39 46 47 46 47 48 48 48 50 52 49 45 48 49 49 49 46 45 44 44 45 43 40 40 39 40 39 39 39 39 38 36 36 33 32 32 33 35 35 33 32 32 31 31 33 35 35 35 34

GFSWCAN_sfc_dewp_093.txt.gz
Dewpoint
54 54 54 54 53 53 55 55 55 54 52 53 53 54 54 55 55 52 48 51 44 42 41 37 38 34 35 34 30 31 34 32 34 35 36 34 33 35 33 37 33 32 28 33 28 28 30 41 39 30 37 45 51 50
54 54 54 54 54 53 54 55 55 54 52 53 53 54 54 55 55 53 46 50 52 44 41 44 35 37 37 35 36 37 33 34 34 36 37 36 33 34 32 31 37 32 34 37 36 36 39 41 40 43 45 46 48 49
53 53 54 54 54 54 54 55 55 53 52 52 52 53 54 54 54 52 47 50 49 44 37 34 33 36 37 38 38 37 38 38 36 37 38 38 33 35 29 32 33 34 36 39 37 38 39 39 40 40 46 46 47 49
53 53 54 54 54 54 54 54 55 53 51 52 52 52 53 54 53 52 44 47 49 47 35 36 39 40 38 41 41 39 38 41 37 34 35 37 34 38 35 35 34 39 37 33 37 39 40 40 39 41 40 43 45 46
53 53 53 53 54 53 53 54 55 51 51 52 52 53 53 53 53 49 48 49 50 46 43 41 41 39 40 42 41 41 41 40 40 39 41 39 39 39 39 39 38 41 39 36 36 39 38 39 41 43 40 40 40 40
53 53 53 53 53 53 53 54 54 50 50 51 52 52 53 53 52 51 48 51 49 49 46 37 41 39 41 42 43 43 43 43 42 42 41 41 41 40 33 31 40 41 42 41 39 42 41 41 41 43 40 39 39 40
53 53 53 53 53 53 53 54 52 49 50 51 52 52 52 52 48 48 47 50 50 51 48 40 39 43 43 42 43 42 44 44 44 41 40 39 39 39 34 31 41 42 42 42 43 40 39 41 40 40 41 42 43 41
53 53 53 53 53 53 53 54 49 49 50 51 51 51 51 51 51 50 51 51 50 50 48 41 42 41 44 40 41 44 43 43 43 40 39 37 37 38 30 37 40 41 42 41 40 40 40 42 43 43 41 40 39 39
52 52 53 53 53 53 54 50 48 49 50 50 51 52 51 50 50 51 54 52 51 51 46 43 40 39 44 45 45 44 43 40 42 39 38 38 35 27 32 35 39 41 39 39 41 41 43 41 42 43 44 41 38 38
52 52 52 52 53 53 49 47 48 49 50 50 49 51 49 52 54 54 51 46 49 49 48 42 44 40 43 43 42 41 41 39 35 38 40 35 33 36 36 36 41 43 43 39 37 37 38 39 42 41 42 43 43 42
52 53 53 51 49 48 48 48 49 50 50 49 49 49 50 54 51 49 45 45 45 43 45 46 41 41 43 40 40 41 39 38 32 36 35 33 33 38 41 40 40 41 43 43 40 39 40 41 42 42 41 41 44 44
51 50 49 48 47 47 50 50 50 46 48 47 47 48 50 48 44 42 43 44 42 39 42 40 39 39 40 41 41 41 38 39 33 41 35 29 37 40 43 41 42 44 44 43 42 42 43 43 43 42 42 42 43 44
48 48 47 47 47 47 50 51 50 50 49 49 49 47 46 45 37 40 39 41 40 43 43 42 40 39 40 41 39 37 35 35 40 36 32 35 37 42 43 42 40 41 42 43 44 44 44 43 44 43 43 43 44 44
50 50 49 49 49 48 48 50 50 49 48 46 45 37 43 40 43 43 43 43 44 44 43 42 42 37 40 36 37 34 36 39 35 30 32 38 40 42 43 41 40 40 42 42 42 44 44 45 44 45 45 45 45 45
50 50 50 50 50 50 48 48 49 48 49 47 45 38 43 44 46 47 47 45 44 44 42 40 37 37 36 35 37 35 35 32 33 30 33 38 40 43 42 42 39 40 39 39 39 40 41 41 41 42 43 43 44 44
50 50 48 49 49 50 48 48 49 49 49 47 45 41 40 41 43 47 44 43 43 39 39 38 37 34 34 36 34 32 27 27 28 34 37 39 42 42 42 41 40 39 39 39 39 39 38 39 38 38 42 43 43 43
50 47 49 49 48 49 49 46 50 49 48 44 42 42 40 39 41 45 48 47 44 37 35 38 32 29 31 27 27 32 30 30 32 36 41 43 42 42 41 40 38 37 35 36 39 40 40 41 41 41 39 40 40 40
48 48 50 49 49 49 49 47 46 47 44 44 41 39 41 41 40 43 47 48 46 40 41 38 37 30 26 25 28 32 35 39 43 42 44 44 42 41 39 37 38 35 36 38 40 40 40 39 39 40 39 38 39 39
49 50 50 50 48 43 43 47 48 43 44 43 43 43 43 42 43 45 48 49 49 48 44 40 37 37 35 36 37 39 40 44 43 45 45 44 43 41 38 37 37 35 38 39 40 40 40 40 40 40 39 38 38 39
51 51 51 51 48 44 43 44 50 46 44 43 43 41 41 40 44 47 47 48 49 47 43 39 39 39 40 42 42 43 44 45 46 45 44 44 43 41 38 37 37 37 38 39 40 41 40 40 40 41 40 39 38 39
49 50 50 48 46 44 42 42 43 46 45 43 42 43 42 44 44 44 45 50 50 46 45 46 45 44 48 48 48 46 44 48 47 46 45 45 45 40 38 38 38 39 38 39 38 39 40 39 39 40 40 40 40 39
48 51 50 49 48 48 44 45 42 44 43 40 40 41 40 39 38 39 47 48 47 48 48 47 48 50 49 49 51 50 50 47 47 46 44 44 43 40 39 39 40 40 37 38 38 38 38 39 39 41 41 42 41 41
48 49 47 49 48 44 43 49 46 45 42 39 41 40 39 39 40 48 44 46 47 49 50 51 52 53 52 53 52 52 51 46 44 45 44 45 43 41 39 38 39 39 37 37 38 38 37 37 38 39 41 41 41 41
49 47 45 43 44 40 46 44 45 42 43 41 41 39 40 45 47 44 42 45 48 50 49 50 51 52 52 51 50 49 44 38 39 43 44 41 40 39 38 37 37 39 39 37 37 37 37 37 36 37 38 37 39 38
43 40 41 35 44 46 44 43 40 42 40 40 40 40 46 47 43 43 43 45 48 49 52 53 52 52 50 50 50 49 46 39 34 36 37 41 39 36 35 34 37 37 37 36 37 37 37 37 36 35 36 35 37 38
37 44 38 40 40 43 44 40 43 41 41 40 41 46 47 44 43 42 46 48 49 50 51 50 50 51 52 53 51 50 48 42 34 33 35 34 36 34 31 33 36 36 38 37 36 36 37 37 37 37 35 31 34 35
39 41 44 45 43 42 40 41 43 42 37 40 45 45 43 40 42 46 51 51 50 51 53 54 53 53 53 53 54 55 53 50 45 39 36 34 34 34 34 31 34 35 38 38 37 36 35 36 35 34 32 28 31 34
43 43 41 42 43 45 42 41 40 36 36 48 46 42 43 43 43 48 50 52 53 53 54 55 54 51 50 50 52 49 48 48 47 46 46 39 34 35 36 34 35 36 36 38 37 37 36 35 33 33 31 29 30 33
42 44 43 42 42 43 44 43 40 39 39 44 42 43 44 48 50 50 51 51 51 51 48 49 46 43 39 45 40 42 39 42 46 43 38 34 32 31 34 35 37 36 35 35 36 36 35 35 34 34 33 33 34 35
41 43 41 41 41 40 41 41 39 39 39 41 47 49 49 49 50 52 49 48 46 44 44 46 45 33 34 34 35 38 41 41 39 36 35 35 34 34 33 34 34 34 34 33 32 32 34 32 32 32 34 35 34 34
42 42 40 41 39 41 41 42 44 46 48 49 50 48 47 48 50 51 49 48 45 43 41 40 35 34 34 34 35 36 35 36 36 36 36 36 37 38 38 36 35 34 33 32 31 30 30 31 31 31 33 34 34 34
41 41 41 40 40 42 42 40 44 47 48 48 47 49 49 49 47 48 48 46 45 42 42 39 37 38 37 36 36 36 35 36 39 37 37 37 38 39 38 37 35 34 33 31 31 29 29 30 32 32 32 32 33 34
41 42 42 40 39 37 44 46 45 45 46 46 46 48 50 48 42 46 49 48 47 45 41 42 43 42 39 38 37 39 39 40 39 38 37 38 38 36 35 34 33 34 34 32 32 31 29 29 29 29 30 30 32 33

GFSWCAN_sfc_dewp_096.txt.gz
Dewpoint
53 54 54 54 54 54 54 54 55 55 54 52 53 53 54 54 55 50 49 50 45 38 37 38 37 34 35 34 29 30 33 32 33 34 34 33 32 34 34 36 35 32 29 31 29 29 30 41 39 37 40 46 51 51
52 53 54 54 54 54 54 54 55 55 54 52 52 53 54 54 54 52 46 50 51 42 39 46 37 37 36 35 36 37 33 33 35 36 35 34 32 33 31 31 37 34 34 36 33 34 40 42 41 44 46 48 50 50
52 53 53 54 54 54 54 54 54 55 53 52 52 53 53 54 54 51 46 48 48 41 36 34 35 36 37 38 38 36 38 37 37 36 38 36 32 33 28 31 32 36 37 38 36 38 41 41 42 44 48 49 51 51
53 53 53 54 54 54 54 54 54 55 52 52 52 53 53 54 53 52 44 47 48 44 34 35 42 39 39 42 41 39 38 40 37 36 37 35 35 37 34 34 35 39 38 36 37 39 40 40 41 42 46 49 50 52
53 53 53 53 54 54 54 53 54 55 50 51 52 52 53 53 53 49 48 49 49 45 40 38 40 39 42 41 43 43 41 40 40 41 40 38 38 38 37 38 37 40 38 37 37 39 39 40 42 43 44 45 47 47
53 53 53 53 53 54 53 53 54 54 50 51 52 52 52 52 52 51 46 50 49 48 44 36 41 43 42 42 42 43 43 43 43 42 39 40 40 38 31 30 39 41 42 40 39 42 41 43 43 43 41 43 44 44
53 53 53 53 53 53 53 53 54 51 50 51 51 51 51 51 48 48 46 49 50 50 46 39 38 43 43 42 43 42 44 43 43 40 39 38 38 38 33 32 40 42 42 42 41 41 40 42 41 41 42 42 43 44
53 53 53 53 53 53 53 54 53 49 49 50 51 51 51 52 51 50 51 51 50 50 46 40 40 40 43 39 40 44 42 42 42 39 38 36 36 37 31 36 39 41 42 41 41 40 39 42 43 43 42 41 41 40
52 52 53 53 53 53 53 53 48 48 49 50 51 51 51 50 49 50 54 52 52 49 44 42 39 39 44 44 43 43 42 39 41 38 37 37 36 26 32 35 39 41 39 39 40 41 41 41 42 43 44 43 41 39
52 52 52 52 53 53 51 47 48 49 49 50 49 50 48 51 55 54 50 43 48 48 46 40 43 39 42 41 41 41 40 37 35 37 39 34 33 35 35 36 41 42 41 40 38 38 39 39 41 42 43 44 44 44
52 53 52 51 48 48 47 48 50 50 51 49 49 48 50 52 50 48 45 44 44 42 45 45 42 41 43 40 41 40 37 37 31 35 35 33 33 37 40 38 38 42 43 43 41 40 38 39 41 42 41 42 43 45
50 50 48 47 47 47 50 50 50 47 47 46 47 48 49 47 44 41 42 43 42 40 42 41 40 40 41 41 40 40 37 37 33 39 35 29 36 38 41 40 39 41 42 44 45 43 42 43 43 43 42 42 43 44
49 49 48 48 47 47 49 50 50 50 49 49 49 46 45 44 37 39 38 40 39 42 43 41 39 39 40 41 39 37 34 34 40 35 31 34 37 39 42 43 41 42 44 45 43 44 44 44 44 44 43 44 44 45
50 50 50 50 49 49 48 49 50 49 46 45 44 36 42 39 42 41 41 41 43 43 42 41 41 38 39 35 37 32 36 39 35 31 32 37 39 39 42 43 41 42 43 43 44 45 45 44 45 45 45 46 46 45
50 50 50 50 50 50 50 48 48 47 48 44 45 38 43 44 45 46 46 45 45 44 41 38 37 37 35 35 36 36 36 34 34 32 34 37 38 41 42 42 40 41 42 40 40 42 42 43 42 43 43 44 44 44
51 50 48 50 49 49 49 47 48 49 48 45 44 42 41 41 40 44 45 44 43 41 39 38 35 33 34 35 35 32 33 30 30 35 36 37 39 41 42 42 41 40 40 39 39 39 39 40 39 39 42 43 43 44
50 47 49 49 50 49 48 46 49 48 46 45 43 43 41 40 41 41 47 46 42 38 37 35 32 32 34 33 32 34 31 32 34 34 35 39 40 42 42 41 40 40 39 39 39 40 40 40 42 41 40 41 41 41
49 48 49 50 49 49 48 46 46 47 46 45 41 38 41 42 39 41 49 48 40 38 41 37 38 30 27 26 26 29 32 33 36 38 39 42 42 43 42 40 40 39 38 38 40 40 41 41 41 41 40 40 40 41
49 50 51 51 48 42 41 45 46 41 43 43 43 43 42 42 42 42 44 47 47 46 42 40 38 36 34 34 34 36 37 38 38 42 44 43 43 41 40 39 37 37 37 39 40 40 40 40 41 41 41 40 41 41
51 51 51 51 48 42 42 43 48 45 43 43 43 41 40 39 41 45 47 48 48 46 43 39 39 39 39 40 40 40 43 43 44 44 44 44 42 40 38 38 36 36 37 40 40 40 40 40 41 41 40 39 39 40
50 50 50 48 46 42 41 40 42 45 46 43 42 43 41 43 44 44 44 47 47 46 44 45 44 43 46 46 46 45 46 48 47 47 46 44 43 40 38 38 37 37 37 39 40 40 40 39 39 40 40 41 41 40
49 51 50 49 47 48 43 44 40 41 42 41 40 40 38 38 39 39 46 46 46 47 47 46 47 48 49 48 49 49 51 49 51 48 46 44 42 40 38 38 38 38 38 39 39 39 40 40 40 40 41 41 42 43
48 49 47 49 47 44 42 47 45 45 41 41 41 40 39 39 39 47 43 44 46 48 49 50 50 51 51 51 51 52 52 51 49 49 47 46 45 42 40 39 40 39 38 39 39 39 39 39 39 40 41 42 42 43
49 48 45 42 42 38 44 44 46 43 42 42 40 39 39 43 46 44 42 44 46 49 48 48 50 50 50 50 50 50 51 50 47 47 46 45 43 41 40 39 40 40 40 39 39 39 39 39 38 38 39 40 40 39
43 42 42 36 44 45 43 43 41 43 40 41 41 40 43 46 42 43 42 44 47 48 49 50 50 50 50 50 51 51 46 41 42 43 43 43 41 39 38 38 39 40 40 38 37 38 38 38 38 37 37 38 38 39
36 41 38 39 39 42 43 41 43 41 41 40 40 44 46 43 42 41 44 47 49 50 50 50 50 51 50 52 51 50 49 40 37 39 38 40 39 38 37 36 36 37 39 39 38 37 38 38 37 37 36 36 36 37
38 40 43 44 41 42 40 40 42 41 40 38 45 45 43 39 41 44 48 50 50 51 52 52 52 53 52 52 52 54 50 48 45 42 42 49 50 48 38 35 35 37 39 39 38 38 37 38 38 38 37 37 35 34
42 41 40 42 43 45 43 41 41 40 38 45 46 42 42 42 42 47 49 51 52 52 51 51 51 53 52 51 52 51 48 48 48 49 50 49 47 37 37 37 36 38 40 39 38 38 38 37 37 37 36 35 33 34
41 43 43 41 41 42 43 43 41 41 40 44 41 41 43 47 50 50 51 51 49 48 44 45 46 43 44 45 47 46 44 43 44 44 43 41 40 37 35 36 37 37 37 39 38 39 39 37 37 36 36 34 34 35
41 43 40 40 39 40 42 44 44 42 41 44 46 49 48 49 50 51 49 47 45 44 43 43 44 38 38 42 42 41 42 43 44 43 41 40 37 35 34 36 37 36 36 36 35 35 37 36 36 36 36 35 35 35
42 42 39 39 39 41 41 43 43 47 49 49 49 47 46 47 49 51 49 47 45 43 40 40 37 35 36 37 39 40 40 40 40 41 39 38 36 38 36 36 36 35 35 34 33 32 32 33 34 35 35 35 36 35
41 41 41 40 40 43 43 42 43 47 47 46 46 48 49 48 45 48 48 47 46 41 40 38 35 37 37 37 38 38 37 37 38 38 38 38 39 40 40 39 36 35 35 34 33 32 33 33 33 34 34 36 37 37
41 41 41 40 40 40 42 46 45 44 45 45 46 48 48 48 40 43 48 48 48 45 40 41 41 41 40 39 39 39 39 39 40 37 37 37 37 38 38 37 37 35 35 33 33 31 31 32 33 35 35 35 35 36

GFSWCAN_sfc_dewp_099.txt.gz
Dewpoint
53 52 53 53 54 54 54 55 55 55 54 54 52 53 54 54 55 53 51 53 49 40 39 39 37 38 38 37 34 35 35 34 36 38 39 40 41 42 38 37 36 34 32 35 33 32 29 43 40 37 44 47 52 53
51 52 53 53 54 54 54 54 54 55 55 54 51 53 54 54 54 53 49 51 52 45 41 46 40 38 38 38 39 39 36 36 39 41 41 40 41 37 37 39 38 38 37 42 36 38 43 44 44 46 48 49 52 53
51 53 53 53 54 54 54 54 54 55 55 53 51 52 53 54 54 52 49 50 50 45 40 37 36 39 39 39 39 39 40 39 40 40 40 39 39 39 40 39 35 38 40 39 40 41 41 44 45 48 50 50 52 53
53 53 53 54 54 54 54 54 54 54 55 52 51 52 53 54 53 52 49 50 50 43 37 37 43 40 42 43 43 41 41 39 40 41 39 37 39 40 39 39 38 41 40 40 40 41 41 42 43 45 51 52 52 52
52 53 53 53 53 53 54 54 54 54 55 50 51 52 53 53 52 51 51 50 51 47 39 39 40 41 43 45 44 44 44 44 43 43 41 41 42 42 41 41 41 42 40 41 40 42 43 43 44 43 48 50 51 51
52 53 53 53 53 53 54 54 54 54 54 50 51 52 52 52 51 53 48 51 51 51 44 36 43 42 43 45 45 46 46 45 45 44 43 43 43 43 44 44 43 44 44 43 43 44 43 43 44 43 42 45 48 50
53 53 53 53 53 53 54 53 53 54 51 50 51 51 51 51 50 50 47 51 51 53 49 40 39 44 44 44 44 44 45 44 44 44 46 44 42 42 44 44 45 45 45 44 43 44 43 44 43 44 43 43 45 46
53 53 53 53 53 53 53 53 54 53 49 50 50 50 51 52 51 51 52 51 52 51 47 41 42 42 44 42 43 45 44 44 43 43 42 42 41 40 41 41 44 44 44 43 43 43 42 43 44 45 45 43 41 42
53 53 53 53 53 53 53 53 53 50 48 50 50 51 52 52 51 51 53 53 55 52 50 46 42 42 45 47 46 46 44 45 44 43 44 43 41 37 38 41 45 44 43 43 42 42 40 40 43 44 43 44 43 43
53 53 53 52 52 53 53 52 48 48 49 50 50 51 50 52 55 55 51 46 48 51 49 44 44 41 43 47 44 44 43 45 42 42 42 42 41 41 41 43 47 46 44 43 40 40 37 38 40 42 44 45 46 45
52 51 50 49 49 48 47 48 50 50 51 50 51 50 50 52 52 50 49 46 46 47 48 46 44 43 46 42 43 43 44 44 41 40 40 40 39 40 43 43 46 47 46 44 43 43 41 40 42 41 42 43 44 45
49 49 49 47 48 48 49 50 50 48 49 48 49 50 51 49 47 46 46 46 46 44 46 44 43 43 44 46 43 43 41 43 36 42 41 40 38 45 44 42 43 46 47 46 46 46 45 44 43 44 44 44 45 46
49 50 50 49 48 48 48 50 50 50 50 52 51 48 47 46 41 39 39 45 45 44 44 42 41 42 44 43 42 41 38 36 42 41 41 37 42 44 46 44 42 44 44 45 46 47 46 46 46 46 46 46 46 47
50 50 50 50 50 50 49 48 50 50 48 47 45 36 42 42 43 42 42 43 45 45 44 43 41 41 42 40 40 35 39 41 37 36 35 39 47 46 46 46 43 42 44 45 46 46 47 48 47 48 48 49 48 48
50 51 51 50 50 49 50 48 49 49 49 45 46 40 43 44 46 46 46 46 47 46 42 41 40 40 38 38 39 38 38 36 36 34 35 39 47 47 46 46 45 44 44 45 45 46 47 47 47 46 47 47 46 47
50 51 48 50 50 49 48 48 49 50 49 45 46 44 44 43 42 46 46 46 46 44 42 42 39 37 35 36 36 35 34 34 34 39 40 43 46 46 48 47 46 45 46 44 43 44 44 43 43 43 45 45 46 46
51 49 49 49 49 49 48 48 51 49 44 45 41 45 43 42 43 43 48 48 46 42 41 40 38 35 38 36 36 37 36 35 37 37 40 46 49 49 48 47 46 45 45 43 43 43 43 43 44 44 43 45 44 44
50 48 50 50 49 50 51 48 46 47 45 45 42 39 44 44 43 43 50 48 46 43 42 39 41 34 34 32 33 35 38 40 41 41 41 44 48 49 48 47 47 46 45 44 44 43 43 44 44 41 44 45 44 45
51 51 51 51 50 44 42 47 47 38 40 44 45 45 44 44 45 45 45 49 48 48 44 41 41 37 36 37 37 38 40 39 37 44 44 49 48 48 48 47 46 45 45 44 43 40 42 44 40 41 44 43 39 41
51 51 52 52 49 43 41 43 50 47 44 45 45 43 43 42 43 45 47 47 49 46 47 42 40 41 42 45 45 44 44 45 44 44 45 47 45 46 46 45 43 43 42 42 42 41 41 40 40 40 39 40 39 40
50 51 50 48 46 43 41 41 44 46 47 46 46 45 44 45 43 45 46 50 51 50 48 47 47 47 54 52 52 48 49 49 51 52 54 47 45 45 44 42 42 39 38 39 39 40 39 37 37 39 40 40 40 40
50 51 50 49 48 48 46 46 40 43 42 43 43 43 41 41 41 43 48 51 48 48 49 49 51 53 54 55 55 55 54 54 54 54 49 46 45 46 43 40 38 38 38 38 39 40 40 38 37 39 40 41 42 44
49 50 49 49 48 45 42 49 46 46 43 43 43 41 41 41 43 48 43 45 47 52 52 55 55 55 55 56 56 56 56 55 54 53 51 49 47 48 47 43 39 39 39 39 41 40 40 40 39 39 40 41 41 44
49 48 46 43 44 38 44 45 47 46 44 44 42 41 40 46 50 47 45 46 52 55 55 55 55 55 55 55 54 55 55 55 53 53 52 50 49 48 44 40 40 41 39 40 40 40 40 40 39 39 39 39 39 39
43 42 43 36 45 44 43 43 43 43 41 42 42 43 46 51 47 46 46 49 51 54 55 55 55 55 52 53 55 55 52 47 47 48 48 49 46 43 41 41 42 42 44 40 39 39 40 39 39 38 38 37 37 38
38 42 40 41 41 42 43 42 43 42 41 41 43 47 50 47 43 42 47 51 52 53 53 53 54 54 54 55 54 55 54 44 42 43 45 44 43 42 45 45 46 43 41 40 39 39 40 39 38 38 37 36 37 37
36 39 44 45 42 42 42 42 42 41 40 40 45 46 46 41 40 47 52 53 53 55 56 56 55 54 53 54 56 57 53 49 45 45 46 50 50 50 48 45 42 39 40 40 40 39 39 38 37 36 35 35 36 37
42 42 40 43 44 44 42 41 41 41 41 46 48 41 39 40 43 52 54 55 55 52 52 53 53 53 52 53 56 51 47 49 50 50 50 51 50 47 45 43 40 38 40 40 40 40 39 38 37 36 36 36 37 38
41 44 44 41 43 42 43 42 41 46 44 47 43 42 43 50 52 54 55 54 52 48 43 45 48 46 48 50 51 51 45 44 45 45 44 43 44 43 39 37 37 37 38 39 38 39 41 39 38 37 37 37 37 37
41 43 42 40 37 36 39 44 48 44 43 43 46 48 50 53 54 55 53 50 49 46 45 44 43 44 46 47 46 46 46 45 43 42 42 42 42 42 41 38 37 37 37 38 38 39 38 38 37 37 37 37 36 35
42 42 40 37 35 37 38 40 43 43 47 51 52 49 48 48 51 54 53 49 47 44 39 41 41 40 42 45 44 44 43 43 44 45 44 40 40 40 37 37 37 37 37 37 37 37 37 37 37 38 37 37 36 34
41 41 40 39 39 41 40 38 39 44 50 50 50 51 51 51 47 52 50 48 46 41 40 40 38 37 38 40 42 43 39 42 43 42 43 41 39 39 39 37 36 35 36 35 35 34 35 34 34 35 35 36 36 35
41 41 41 40 41 41 42 46 47 45 46 47 49 51 50 48 45 46 50 50 48 45 40 40 39 39 40 40 40 40 39 40 40 38 38 38 38 39 39 39 39 36 35 34 33 33 34 34 32 34 35 35 36 36

GFSWCAN_sfc_dewp_102.txt.gz
Dewpoint
53 53 52 52 53 54 55 55 55 55 55 55 54 52 53 54 55 52 51 55 50 39 38 38 37 37 37 35 31 37 33 34 30 30 32 38 39 44 38 36 34 33 31 31 31 30 30 45 41 40 48 46 49 53
53 52 52 53 53 54 54 55 55 55 54 55 54 52 54 54 54 53 48 52 54 45 40 42 39 39 39 38 35 38 36 34 35 35 37 39 43 37 38 38 40 39 38 41 39 42 46 47 48 50 50 48 51 53
53 53 53 53 53 54 54 54 55 55 54 55 53 52 53 54 54 53 49 51 51 40 36 37 37 41 40 39 39 37 38 40 41 43 36 36 35 35 36 38 37 41 42 42 42 42 42 44 46 51 53 51 52 53
52 53 53 53 53 54 54 54 54 55 55 55 52 51 53 54 53 53 50 50 51 43 35 36 40 41 43 42 42 41 41 41 41 41 37 33 34 41 35 39 37 40 42 42 42 42 42 43 46 49 52 54 53 53
53 52 52 53 54 54 54 54 54 55 54 55 51 51 52 53 52 52 52 52 52 47 37 36 39 40 41 44 42 42 44 44 40 38 35 35 41 41 40 39 35 39 39 39 43 44 46 45 45 47 49 51 52 53
52 53 53 53 53 54 54 54 54 54 54 55 50 51 52 52 51 52 42 51 52 52 42 33 41 42 43 44 44 45 44 45 44 40 41 43 45 44 42 44 43 43 44 45 45 46 46 45 45 43 46 49 51 52
53 53 53 53 53 53 53 54 54 54 54 52 50 51 51 51 50 48 44 51 51 53 44 35 38 42 43 43 44 44 46 43 41 43 46 44 42 43 45 46 45 46 46 46 46 46 45 44 43 44 43 45 48 49
53 53 53 53 53 53 54 53 53 54 54 50 50 50 51 52 51 48 51 52 52 49 48 38 39 42 43 41 41 46 43 43 43 42 42 42 42 43 46 42 46 46 46 45 44 44 43 44 44 44 44 43 43 45
53 53 53 53 53 53 53 53 53 54 50 49 50 51 52 51 48 50 53 53 55 50 43 41 38 37 43 43 45 44 44 39 44 42 43 42 46 39 39 41 45 47 46 45 43 42 40 39 41 41 40 41 42 43
53 53 53 53 53 53 53 53 53 49 48 50 49 49 48 51 54 54 51 46 46 46 47 43 43 39 42 43 42 42 42 37 40 40 43 42 41 42 43 43 46 47 46 43 41 41 38 37 37 39 40 41 43 44
50 50 50 48 48 48 48 49 50 50 50 47 48 51 51 52 51 48 45 41 40 42 41 41 41 40 45 39 39 43 39 39 40 38 38 37 35 37 41 44 48 47 44 41 39 39 36 38 39 39 40 41 42 42
50 49 49 48 48 48 48 51 50 47 50 49 52 50 53 50 48 45 42 43 43 38 44 43 42 42 45 47 40 42 38 39 34 42 38 41 34 44 42 41 46 46 44 42 41 40 39 39 39 40 41 42 43 45
49 50 50 50 50 49 48 49 50 50 50 51 49 49 46 46 41 38 38 39 40 43 45 44 42 43 44 43 41 38 35 34 41 38 41 35 43 44 45 42 42 44 44 43 42 43 43 43 45 44 44 46 45 47
49 50 51 51 50 50 50 49 50 50 49 47 45 38 41 39 37 35 35 37 43 43 42 41 41 40 41 38 38 34 37 38 34 33 30 29 43 45 46 43 40 42 43 43 43 44 46 47 47 48 47 47 47 47
50 50 51 50 50 50 50 49 48 49 47 42 43 40 36 37 43 43 44 46 47 44 42 41 40 38 36 37 37 37 36 34 34 30 30 33 45 47 47 46 44 41 41 42 43 45 46 46 46 46 48 47 45 45
50 50 49 50 51 50 49 48 48 48 45 41 43 42 43 41 39 43 45 45 46 44 42 40 39 37 35 35 36 34 31 32 31 35 35 42 51 50 51 48 46 45 44 43 45 46 46 45 44 45 45 43 43 43
51 49 49 50 50 49 48 48 49 45 39 39 34 35 39 42 42 43 45 45 48 44 39 39 37 35 38 34 34 36 35 35 38 38 40 48 52 53 52 50 48 48 48 47 47 46 45 43 42 43 43 44 43 45
49 49 51 51 50 50 50 49 44 42 40 37 35 31 38 38 40 42 44 49 46 44 41 39 40 37 34 33 34 36 37 38 39 40 41 46 53 53 51 51 50 49 49 48 47 45 45 43 43 40 43 44 43 45
52 52 52 52 50 45 44 47 46 37 35 35 39 39 40 38 40 42 44 49 48 48 45 42 38 36 35 37 38 38 39 41 41 44 45 51 52 51 52 50 51 50 49 48 46 42 40 43 38 37 37 39 36 38
51 52 52 52 51 43 40 40 50 43 37 39 40 37 38 34 37 41 43 42 45 44 42 42 41 39 38 40 41 42 44 46 46 44 43 45 48 50 50 49 48 48 46 46 44 39 39 39 36 36 35 36 36 37
51 52 51 50 47 44 40 39 42 43 44 43 44 45 42 42 42 37 39 47 46 44 43 43 42 41 46 48 51 51 50 51 48 46 46 46 49 47 49 48 48 51 52 45 39 39 38 36 35 34 36 36 36 36
51 52 50 49 48 48 46 45 39 42 42 41 44 43 41 40 39 38 42 44 43 42 43 43 42 46 48 53 53 56 56 57 57 53 48 48 47 46 46 49 48 48 49 42 39 37 38 36 35 35 35 36 38 38
50 51 50 50 48 46 43 48 45 43 40 40 41 38 38 38 40 45 40 39 39 42 47 49 53 57 56 56 56 56 56 57 53 52 52 51 48 46 47 50 48 47 48 47 46 40 40 38 36 34 35 38 38 37
50 49 46 45 46 41 45 46 48 47 45 43 41 39 38 39 47 42 36 34 37 49 52 57 54 52 52 56 53 54 53 53 52 51 53 52 50 50 46 47 48 47 44 45 49 43 39 40 38 35 36 37 35 35
43 43 44 40 44 42 40 41 41 42 40 40 39 39 44 53 46 44 41 43 47 48 51 53 53 52 50 50 51 52 55 52 48 48 52 51 50 48 46 47 48 49 50 44 42 39 39 40 38 35 34 34 34 35
38 44 41 40 40 39 40 38 41 40 39 41 42 45 49 45 38 39 43 49 52 50 51 51 50 50 51 51 51 50 54 53 47 44 47 48 47 46 46 46 46 49 44 42 40 38 38 39 38 35 32 33 35 34
36 38 42 45 43 42 40 41 42 40 41 40 43 44 44 38 39 41 53 52 51 53 52 50 49 48 47 47 50 54 54 52 48 44 46 47 50 50 47 46 46 44 45 41 39 38 37 37 37 35 32 32 33 33
39 40 38 41 41 41 41 41 39 39 40 44 44 38 38 38 43 54 57 54 51 48 45 45 45 47 46 48 53 50 48 47 47 48 50 51 49 49 49 47 46 39 41 40 39 38 37 37 37 34 32 32 32 33
38 39 39 39 40 43 41 39 39 44 43 43 44 42 42 46 51 52 52 49 47 44 42 41 45 47 50 51 52 48 46 46 46 45 44 44 44 45 44 43 41 39 37 37 38 39 39 36 35 33 33 33 33 34
38 38 37 36 37 37 39 40 46 44 43 42 43 44 45 50 53 52 49 47 44 42 41 40 43 44 43 43 45 46 45 44 44 42 41 41 41 41 40 38 37 37 36 36 36 38 39 39 37 36 35 34 34 34
41 39 37 35 34 34 35 37 39 42 41 42 47 47 45 48 50 51 50 48 45 44 39 39 42 41 43 41 40 40 40 43 45 45 43 39 40 41 41 39 37 35 36 37 35 35 35 35 35 35 35 35 36 35
41 40 38 37 37 38 37 35 37 39 42 50 47 50 50 52 45 46 49 48 43 38 38 41 41 40 41 44 45 43 40 40 42 42 44 41 42 41 39 34 33 34 35 34 35 34 35 36 33 34 34 36 37 36
39 38 39 39 41 41 41 40 42 43 43 47 50 51 48 43 41 44 50 48 44 39 37 39 39 41 41 41 41 42 40 41 41 38 38 38 39 39 35 33 33 33 33 32 31 31 33 33 32 34 35 34 35 35

GFSWCAN_sfc_dewp_105.txt.gz
Dewpoint
54 54 53 53 52 53 54 54 55 55 55 55 55 55 53 54 55 52 51 54 51 36 36 34 32 34 35 33 31 37 30 31 25 28 28 31 32 38 35 33 40 40 41 34 31 37 38 43 40 42 48 46 47 52
54 54 53 53 53 53 54 54 55 55 55 55 55 55 54 54 55 54 49 49 52 47 38 37 36 36 37 34 33 35 33 37 29 31 34 32 38 33 36 33 37 31 37 40 42 45 45 47 47 49 48 46 49 53
54 53 53 53 54 54 54 54 54 54 55 55 55 55 53 54 54 53 49 48 48 39 34 34 36 38 36 36 35 35 37 37 36 38 34 34 33 33 31 31 33 38 40 33 38 41 43 44 47 50 50 48 50 53
53 53 53 53 53 53 54 54 54 54 54 55 55 54 52 54 54 53 50 49 49 44 32 35 38 38 40 40 38 36 37 39 36 35 32 30 30 36 31 33 33 39 41 36 41 41 42 43 45 49 51 53 52 54
52 52 53 53 53 54 54 54 54 54 54 54 55 52 52 53 52 51 50 48 49 48 37 34 37 38 39 42 41 41 41 40 36 35 32 30 36 36 31 33 29 34 37 44 41 46 46 45 45 46 48 51 53 54
52 53 53 53 54 54 54 54 54 54 54 54 55 51 52 52 52 49 41 44 49 49 45 30 39 40 41 43 43 44 41 40 37 36 36 38 43 38 36 37 37 40 41 44 44 45 45 45 44 43 45 47 51 54
52 53 53 54 54 54 54 54 54 54 54 54 53 51 51 51 48 46 47 50 51 52 42 33 35 41 42 43 42 42 43 40 36 38 40 39 40 38 38 43 39 41 44 45 45 46 45 43 43 43 44 45 48 51
53 53 53 53 53 53 54 54 54 53 54 54 50 50 51 51 51 45 49 51 51 47 41 36 38 41 43 40 41 44 38 39 40 38 39 38 41 40 48 43 42 45 45 45 45 44 41 44 45 44 44 44 45 46
53 53 53 53 53 53 53 53 53 54 54 50 50 51 50 50 42 46 55 53 52 49 39 33 35 39 43 39 43 42 41 35 41 36 40 39 45 43 39 41 41 45 45 44 43 42 41 41 42 42 42 42 41 43
51 52 51 52 53 53 53 53 54 52 49 49 48 47 44 46 55 54 48 44 42 39 45 42 36 38 38 39 39 40 39 35 35 38 41 36 43 43 42 42 43 46 46 44 43 42 40 38 38 39 39 40 41 42
49 50 49 48 48 49 48 48 48 49 49 45 46 48 53 53 48 45 41 38 37 36 37 36 39 39 41 38 39 40 38 36 36 38 34 36 34 38 41 42 45 47 47 43 41 40 39 37 38 38 39 40 40 41
49 50 50 49 49 49 48 50 50 47 47 48 53 52 51 46 43 40 39 38 37 36 38 37 38 40 42 44 38 40 37 37 33 40 35 40 35 45 41 40 44 45 42 40 39 39 37 37 38 39 40 40 40 42
49 50 50 50 50 49 48 48 50 50 50 51 49 50 44 42 42 38 35 35 36 37 40 40 40 40 45 40 40 40 34 33 38 33 40 36 44 42 43 41 42 43 41 40 39 39 39 39 40 41 41 43 43 43
49 50 51 51 51 50 49 50 49 50 48 49 46 42 40 37 33 33 32 32 35 39 41 41 40 39 39 38 37 34 36 37 32 32 31 29 46 44 43 41 40 41 41 40 40 40 41 43 43 45 44 44 44 45
50 50 51 51 50 50 50 50 48 49 48 43 43 40 36 35 34 34 33 41 44 41 40 38 38 37 36 36 35 34 35 32 32 31 31 36 46 46 46 43 41 40 41 40 40 41 42 43 44 44 45 44 44 46
51 50 50 50 51 50 49 47 47 48 44 40 40 38 35 34 31 36 39 39 40 41 40 38 37 35 35 33 34 34 31 31 32 33 37 45 49 47 49 47 44 42 42 41 41 42 43 44 44 44 45 44 43 44
50 49 50 50 50 50 49 48 47 44 39 37 34 32 34 38 35 35 37 39 43 40 37 36 38 35 36 33 33 35 33 34 38 38 40 51 51 54 51 49 47 45 45 45 44 45 46 46 45 44 45 44 41 42
50 51 51 51 51 52 52 49 43 38 36 36 34 33 32 33 36 40 43 51 48 40 39 37 42 36 35 34 34 36 37 38 40 40 41 48 53 55 52 52 51 49 48 48 47 48 48 47 45 42 43 45 43 42
52 52 52 52 51 48 46 45 45 38 36 35 34 34 34 34 35 39 43 47 48 52 46 47 43 38 35 35 36 39 40 40 43 46 49 54 55 54 54 51 51 51 50 51 49 47 45 47 42 38 38 40 37 38
51 51 52 52 51 45 41 40 45 39 34 34 34 34 34 33 33 36 41 44 47 46 44 41 40 39 39 45 44 41 44 48 48 47 43 41 43 54 53 50 47 51 51 52 51 47 46 42 38 37 35 36 35 36
51 52 52 52 49 46 41 39 40 40 40 38 39 39 37 36 33 33 37 39 41 43 41 41 41 41 52 50 47 50 50 47 45 44 42 39 39 41 47 49 50 48 46 47 48 48 44 41 38 35 35 34 35 35
52 52 51 50 48 46 43 42 39 43 42 41 45 43 41 40 37 35 33 35 40 41 41 41 42 46 51 52 49 52 54 56 56 52 49 49 49 47 49 48 47 46 47 50 50 48 48 40 35 35 34 34 35 34
51 52 51 49 46 46 45 46 46 42 39 39 39 38 38 38 38 41 34 34 35 41 42 42 50 54 54 53 54 55 56 56 54 51 51 51 52 52 49 48 47 49 51 51 50 49 50 39 36 34 34 34 35 35
50 49 47 46 46 43 46 46 47 45 43 40 38 39 37 38 42 40 37 37 36 34 36 53 49 47 45 56 50 49 53 53 50 49 49 50 55 53 50 49 52 51 50 50 50 48 42 38 37 34 34 34 35 34
44 45 45 41 46 43 40 40 40 43 41 41 39 38 43 45 45 38 37 36 40 42 44 47 48 46 44 48 48 50 57 52 51 49 48 52 54 50 48 48 51 50 50 49 48 43 44 42 38 33 32 34 34 34
40 44 41 40 39 38 36 36 37 37 37 41 41 41 43 41 38 38 48 45 45 47 49 49 48 48 48 49 48 50 54 54 52 48 47 48 52 49 48 49 48 48 51 51 46 41 41 40 38 36 31 33 36 33
37 38 41 42 41 40 38 39 41 40 41 40 45 43 42 37 39 48 53 52 49 50 51 49 46 43 42 43 45 48 51 51 51 49 47 47 48 49 48 47 47 47 49 46 42 41 39 39 37 34 32 32 32 32
37 38 36 39 38 37 38 40 38 39 42 42 41 38 38 40 45 49 55 50 50 48 43 42 44 46 46 47 50 51 50 49 49 48 48 48 48 47 48 47 47 43 47 43 41 41 38 36 36 36 33 31 31 32
38 37 36 37 37 39 38 38 38 40 41 43 43 45 46 45 47 48 50 49 45 42 40 40 43 46 47 50 51 49 48 46 46 46 45 44 45 47 48 47 46 46 45 43 39 40 39 37 37 36 34 31 31 32
35 35 35 35 35 36 39 38 38 41 42 42 43 42 43 53 49 49 47 45 42 38 38 40 43 42 41 41 42 43 43 42 41 40 41 42 43 44 46 47 46 46 45 40 37 37 39 39 37 35 33 31 31 32
38 36 34 34 33 34 35 38 40 41 42 41 40 44 43 45 49 49 47 46 42 41 36 37 40 40 40 38 39 39 38 40 43 43 42 39 39 42 42 40 38 37 36 36 35 34 35 36 34 34 32 32 33 32
39 39 37 36 35 35 35 34 35 36 38 41 41 46 50 51 50 46 44 42 41 35 37 37 37 38 40 40 42 41 39 39 40 42 43 41 41 42 43 39 38 35 35 34 34 33 34 35 32 32 32 34 34 35
40 37 38 38 39 40 36 36 37 39 39 46 47 48 44 44 43 40 43 44 40 34 34 35 35 38 42 42 41 42 41 40 43 40 39 40 39 39 38 36 33 33 34 33 32 32 33 34 33 33 33 34 34 35

GFSWCAN_sfc_dewp_108.txt.gz
Dewpoint
56 56 55 55 54 54 53 53 54 55 55 55 55 55 56 54 55 52 48 54 50 45 40 32 29 32 33 31 31 36 31 31 27 28 25 30 36 43 39 39 41 42 40 36 39 39 38 45 46 41 47 51 51 54
56 56 55 54 54 54 54 54 54 54 54 55 55 55 56 54 54 54 47 50 49 48 42 36 34 32 32 30 31 32 33 35 34 31 34 31 32 31 32 30 37 36 41 44 43 43 52 51 53 49 44 46 51 53
56 55 55 54 54 54 54 54 54 54 54 54 55 55 56 53 54 52 47 51 46 41 35 32 32 34 32 33 33 33 37 39 36 36 32 32 31 33 31 30 31 43 44 35 45 47 49 45 45 48 49 51 53 55
55 55 54 53 53 53 53 54 54 55 55 54 55 55 55 53 53 52 47 50 48 47 40 33 36 37 36 38 36 35 35 36 34 34 30 29 29 36 31 32 32 36 40 34 39 47 47 43 46 48 51 52 53 55
54 53 53 53 53 53 54 54 54 55 54 54 55 55 54 53 52 50 47 49 48 48 44 40 37 37 35 41 39 40 40 40 36 34 32 31 37 38 34 29 30 36 43 38 43 42 49 46 45 46 52 53 53 53
52 53 53 53 53 54 54 54 54 54 54 54 54 55 52 52 51 48 41 44 46 47 45 41 37 38 38 42 42 43 43 39 36 35 33 36 43 40 33 40 37 42 43 46 48 47 50 47 43 43 45 53 53 53
52 52 53 54 54 54 54 54 54 54 54 54 54 54 51 51 47 46 47 50 51 53 46 34 35 40 40 41 41 42 43 39 34 35 37 35 40 40 33 45 41 42 42 42 44 44 44 41 42 42 43 46 53 52
52 53 54 54 54 54 54 54 54 54 54 54 54 51 50 50 50 43 45 51 51 46 38 35 35 41 41 39 38 42 39 39 38 36 38 36 43 42 47 41 42 42 43 42 41 42 40 41 44 43 43 44 44 52
51 53 54 54 54 53 53 54 54 54 54 54 51 50 49 49 44 39 56 55 51 48 41 36 33 40 42 38 43 42 41 35 41 39 35 39 47 44 41 41 42 44 43 42 41 41 40 41 41 42 41 41 41 47
50 51 52 51 52 53 53 53 53 54 53 49 46 45 44 42 55 54 48 42 41 38 46 43 34 41 45 38 38 40 43 35 35 38 42 39 42 48 46 44 44 43 44 42 41 41 40 38 38 39 40 40 40 41
50 49 50 50 48 48 48 51 52 50 48 44 45 47 52 54 49 43 39 35 36 32 33 33 36 41 43 38 38 40 38 37 34 34 37 34 35 44 46 43 45 45 46 44 43 43 41 40 38 37 37 38 40 41
50 50 50 50 50 49 49 49 51 48 45 48 50 54 49 44 43 38 36 36 35 32 34 34 33 39 42 43 40 42 35 37 32 40 37 38 39 50 44 41 43 46 45 43 41 40 39 37 38 39 40 40 40 42
50 50 50 51 51 50 50 49 50 51 49 51 51 50 47 43 40 35 33 33 34 35 35 37 34 43 45 41 37 40 35 33 37 35 36 37 50 47 47 41 42 44 41 40 38 39 38 38 39 40 42 42 41 43
49 50 50 51 51 51 50 50 50 49 47 51 47 42 43 38 37 37 35 36 35 36 36 37 37 39 40 38 37 34 34 35 32 30 32 37 52 49 47 41 40 40 40 38 39 39 39 40 41 44 43 43 43 44
51 50 50 51 51 51 51 50 50 48 48 45 46 41 38 38 37 33 33 35 37 36 38 38 39 37 37 37 35 34 34 32 31 31 33 46 52 52 50 45 42 41 41 41 40 40 40 41 43 44 45 45 45 46
51 51 50 51 51 51 50 50 47 47 45 41 42 41 38 35 35 35 36 35 47 38 41 38 37 35 36 33 33 32 30 30 32 34 43 50 56 55 55 51 49 45 47 43 43 44 45 45 45 45 44 45 47 45
50 49 51 50 51 51 50 49 49 43 43 41 38 38 38 38 40 39 40 35 38 37 38 38 37 34 36 34 31 34 32 34 36 36 45 57 58 58 56 54 50 49 50 49 49 50 49 48 45 47 48 48 46 48
50 51 51 51 51 52 53 50 50 43 40 39 37 37 36 36 35 38 48 53 44 41 41 39 40 37 34 32 33 39 38 38 48 46 54 58 61 59 55 57 56 55 53 52 52 51 50 51 52 48 51 49 48 44
52 52 51 52 52 51 49 49 51 43 39 38 39 40 37 36 39 40 51 53 56 54 52 42 45 39 38 36 40 41 41 41 42 52 53 58 58 59 59 57 57 56 55 55 53 45 48 52 47 44 43 44 43 40
51 52 52 52 52 49 45 47 47 40 37 38 40 37 37 36 37 34 35 50 50 53 51 44 44 42 42 47 47 47 49 53 45 44 45 47 50 52 58 54 50 52 50 53 52 48 49 47 45 44 39 43 41 38
50 52 52 52 51 47 44 43 42 40 39 38 40 38 36 35 33 32 31 34 44 43 45 54 45 45 50 56 51 54 55 56 56 51 46 43 43 41 43 52 52 49 47 49 49 48 45 45 43 40 40 41 38 35
51 53 51 51 49 45 42 41 40 45 42 41 44 49 45 42 40 34 31 31 34 36 40 43 44 42 47 53 53 57 57 59 58 47 43 43 45 47 54 54 55 54 54 52 49 47 47 45 49 49 49 43 38 35
51 52 50 49 46 43 41 45 46 43 42 41 40 40 41 41 40 47 44 33 31 35 38 40 53 58 53 56 58 57 56 58 50 48 49 49 52 54 50 53 57 53 51 50 50 49 49 48 48 44 41 38 35 35
50 49 46 45 44 43 45 46 46 45 43 41 40 38 39 40 40 37 36 38 35 35 39 56 44 44 48 57 45 43 52 55 55 54 55 54 55 58 52 50 51 51 51 51 51 49 49 47 43 42 38 35 34 34
43 44 45 40 46 45 43 41 43 43 41 40 40 40 44 48 43 43 38 37 39 39 40 43 43 43 41 40 43 59 59 56 54 54 53 51 53 52 50 49 50 50 50 51 49 49 47 44 41 38 36 34 34 35
41 45 43 42 42 42 38 35 37 39 40 44 45 46 46 46 39 37 46 53 53 54 53 50 46 45 54 55 54 55 56 53 53 50 48 47 54 49 50 50 50 50 52 51 49 46 44 41 40 38 33 33 36 34
38 40 42 44 41 39 38 38 39 41 42 40 42 41 41 36 36 46 50 54 50 57 56 55 46 41 40 41 43 47 50 50 51 49 49 49 49 50 50 49 48 49 50 49 47 45 42 42 41 38 33 32 33 33
40 38 36 38 39 40 38 39 39 40 43 43 40 41 40 41 45 47 48 49 54 50 45 43 43 43 47 49 49 48 48 48 49 49 48 48 48 47 49 48 49 45 49 49 46 43 43 42 40 38 35 31 32 32
37 36 36 36 37 37 38 37 38 40 46 46 45 45 47 51 53 48 45 48 48 43 41 39 42 44 45 48 47 47 47 46 46 47 46 45 45 46 48 47 47 47 47 47 42 42 43 41 41 40 38 35 32 34
34 34 34 34 33 34 37 38 39 39 44 46 44 45 50 54 53 50 46 45 43 40 38 35 39 40 41 40 40 40 41 42 43 42 41 41 43 45 48 47 47 47 47 43 41 41 40 41 41 38 37 39 36 31
34 34 32 32 32 33 35 37 37 38 39 40 42 43 48 53 53 50 47 46 42 40 35 34 38 37 37 36 37 37 37 39 43 42 41 39 40 44 47 47 45 44 44 44 42 40 40 39 38 38 37 38 38 31
37 36 35 34 33 34 34 32 34 37 40 41 43 45 47 52 50 50 42 41 40 37 36 35 34 37 37 37 38 39 39 38 39 40 42 40 41 42 43 44 45 43 44 44 45 42 38 35 33 34 34 36 34 34
39 38 38 37 37 39 36 34 35 36 39 48 45 43 43 44 46 48 41 41 38 33 33 33 33 35 41 40 39 41 41 39 42 38 40 40 39 40 40 41 40 39 38 35 33 33 35 35 34 34 34 34 35 35

GFSWCAN_sfc_dewp_111.txt.gz
Dewpoint
55 55 56 56 56 55 55 54 54 53 53 54 54 54 56 57 54 52 47 50 55 52 48 46 36 39 40 39 39 40 38 40 40 36 33 38 43 44 41 41 41 40 39 38 38 37 36 48 47 45 49 52 55 56
55 55 56 56 56 55 54 54 54 52 52 54 55 55 56 56 54 54 49 52 51 54 49 46 39 36 41 35 36 38 39 41 41 40 42 40 40 43 41 38 44 40 41 41 42 43 49 52 52 51 52 54 56 54
55 55 55 56 55 54 53 54 52 53 54 54 55 55 55 56 54 53 49 50 54 52 45 40 38 36 32 36 34 40 43 44 46 46 42 39 37 38 34 35 41 44 48 43 45 46 49 51 55 55 54 55 55 54
54 55 55 55 54 53 53 53 54 54 55 55 55 54 55 56 53 52 49 50 51 53 48 42 36 37 44 40 40 41 38 41 40 43 40 38 35 41 36 36 36 44 47 44 45 46 47 50 51 52 55 55 54 53
54 55 54 53 53 53 53 54 55 55 55 55 55 54 55 56 52 50 49 49 51 52 48 47 47 39 36 43 45 44 45 45 44 43 41 38 44 43 43 39 36 43 44 43 43 47 48 47 48 53 53 54 54 53
52 53 53 53 53 54 54 54 54 54 54 54 54 55 55 54 51 49 49 53 53 55 51 46 50 42 40 45 45 48 48 47 46 43 41 46 46 45 39 41 42 48 48 48 47 50 48 47 46 53 53 54 53 53
51 52 53 53 54 54 54 54 54 54 54 54 55 55 55 52 47 47 49 53 50 52 53 46 44 43 43 45 45 46 48 48 43 41 43 43 44 47 39 38 44 48 47 47 50 50 48 47 44 48 53 54 54 53
51 53 54 54 54 54 54 54 54 54 54 54 54 55 53 50 49 46 44 48 51 54 50 42 41 44 44 44 44 47 46 47 46 42 45 43 48 48 44 42 44 47 47 44 46 46 44 45 46 46 46 52 52 52
50 51 53 52 52 53 54 53 54 54 54 54 54 51 47 48 48 49 57 55 56 54 48 40 39 43 50 46 47 47 49 43 48 44 44 46 47 38 45 45 44 48 46 44 44 44 46 45 44 45 46 46 51 51
50 51 50 51 50 50 52 53 53 53 54 52 46 44 46 50 56 56 52 51 51 49 52 48 45 41 46 47 46 47 47 44 40 45 47 45 46 48 49 47 48 49 47 45 44 43 42 42 44 43 42 42 45 51
50 50 50 50 50 49 49 50 51 51 49 44 45 48 58 55 54 52 47 43 44 41 40 40 44 44 50 46 44 47 44 44 39 41 42 42 41 47 51 49 50 49 49 46 49 49 44 43 42 39 40 43 43 48
50 50 50 51 51 51 50 50 51 49 47 47 47 52 56 51 48 43 42 43 42 36 42 33 32 38 50 50 48 48 43 42 37 46 42 42 47 51 49 49 48 49 49 47 49 48 46 44 44 44 44 41 41 48
50 50 50 50 51 51 51 50 50 50 49 49 52 51 50 47 39 38 34 38 39 42 39 42 40 46 50 50 45 45 40 38 43 40 41 43 51 51 50 47 47 50 49 48 45 45 43 43 44 46 47 44 46 47
50 50 50 50 50 51 51 50 51 50 47 50 47 39 45 41 40 40 38 37 42 39 41 43 40 49 49 46 45 43 42 41 37 36 35 44 50 51 50 48 48 47 46 44 45 45 43 46 44 45 46 47 46 45
51 51 51 50 51 51 51 51 50 48 48 46 47 39 41 43 43 41 41 42 44 43 43 44 46 47 44 43 43 42 39 36 37 36 43 49 51 51 50 48 48 46 46 45 45 44 45 45 47 48 47 47 46 46
51 51 50 51 51 51 51 51 48 49 47 44 45 43 43 41 40 40 43 43 47 52 50 47 45 46 44 41 38 36 32 34 37 46 49 52 52 52 53 51 50 48 48 47 48 47 47 46 47 48 49 49 47 48
50 49 51 51 52 51 50 50 52 46 42 40 38 40 41 41 42 42 44 47 52 52 49 46 42 40 43 40 37 37 34 39 45 47 49 53 54 55 55 54 53 52 51 49 50 50 48 49 49 51 49 48 46 48
49 52 51 51 51 52 51 50 49 47 41 41 39 41 42 43 42 42 45 52 52 52 52 45 47 43 39 34 38 40 45 51 54 52 52 57 59 59 56 56 56 55 54 54 52 51 51 50 51 50 49 49 48 49
52 52 52 52 51 51 48 48 50 44 41 41 42 41 42 42 46 46 53 57 55 54 53 52 48 43 43 47 48 50 50 52 52 56 58 60 61 60 59 59 59 58 56 56 55 51 50 50 49 49 47 46 44 45
51 51 52 52 52 50 47 48 51 46 40 43 44 42 42 42 42 41 49 52 53 52 50 49 46 47 48 48 52 54 55 55 53 52 54 54 55 59 59 58 57 57 57 57 57 51 53 50 48 47 45 44 44 44
50 52 52 51 51 49 47 48 48 47 42 41 42 43 41 43 40 40 41 50 51 50 44 54 53 50 53 55 59 56 57 56 53 53 52 51 53 53 49 55 58 56 55 55 53 53 50 50 43 42 46 47 49 50
51 52 51 51 49 49 45 45 42 45 43 43 44 50 46 43 41 41 42 40 44 48 47 47 50 48 46 48 57 59 58 55 54 53 51 51 52 50 50 55 57 56 57 56 56 53 47 46 48 49 49 49 48 47
50 52 50 49 46 44 41 45 43 42 42 44 47 47 46 45 45 51 46 46 44 46 49 50 53 54 51 59 60 58 57 56 54 54 54 53 54 56 55 55 57 56 56 55 51 48 48 46 48 49 49 48 45 43
50 48 46 45 45 41 44 44 45 45 46 43 41 40 42 45 47 45 42 42 45 49 49 54 57 55 56 59 57 56 57 55 55 56 56 56 56 58 55 55 56 55 54 52 49 48 47 48 47 48 46 43 42 41
41 43 44 37 45 43 43 43 44 45 42 44 43 43 48 51 48 44 42 47 50 51 52 51 53 50 47 52 54 58 59 57 53 52 53 56 56 58 54 52 54 53 51 49 49 47 47 47 46 43 41 40 40 38
37 44 39 41 44 43 43 38 40 41 44 44 44 49 50 48 44 42 49 52 53 52 53 54 54 53 54 56 55 55 59 59 55 54 54 54 54 52 53 51 51 52 52 51 50 46 46 45 44 42 40 39 38 37
40 41 46 48 48 45 40 40 42 43 43 44 46 47 46 40 39 50 54 53 52 53 53 54 54 51 50 53 54 55 54 54 55 53 53 52 51 54 53 51 50 50 51 50 49 46 46 43 41 39 39 38 37 37
43 43 40 43 41 40 39 39 38 41 45 47 46 43 41 43 46 48 50 53 56 57 57 55 53 51 51 52 51 50 51 51 52 51 51 50 50 50 51 50 51 45 50 50 49 47 45 41 40 41 41 37 37 37
40 38 37 38 38 38 41 38 37 46 50 48 48 46 49 52 51 50 51 53 55 52 48 46 47 49 49 50 51 50 48 47 48 48 47 46 47 48 50 49 49 49 49 49 43 45 45 42 43 43 43 42 42 38
35 35 35 35 35 36 38 35 38 41 46 45 45 51 52 53 54 56 55 55 51 47 45 42 42 43 43 45 44 45 45 44 44 44 44 44 45 46 49 48 48 48 48 48 47 45 41 43 43 43 43 43 44 41
33 35 34 33 34 34 35 36 38 39 41 43 45 49 51 53 55 56 55 52 49 47 43 39 39 41 41 41 43 42 41 44 46 46 45 43 44 48 49 48 48 48 47 45 45 43 43 42 42 42 42 42 41 38
36 35 34 33 32 36 38 37 36 36 38 42 43 51 50 50 48 53 52 50 46 44 41 40 38 39 41 40 42 43 40 43 46 45 46 43 47 49 49 48 45 45 46 45 44 43 42 42 41 41 41 41 41 39
37 36 36 35 37 37 36 37 34 36 45 47 46 46 46 46 47 50 52 51 45 37 37 38 37 42 47 47 45 44 42 46 44 39 39 39 38 42 44 46 45 45 45 45 44 44 44 42 42 42 41 40 41 41

GFSWCAN_sfc_dewp_114.txt.gz
Dewpoint
55 55 55 55 55 57 56 55 55 54 53 53 53 54 54 55 56 52 46 47 49 50 48 46 43 33 34 37 32 32 33 34 36 33 32 38 39 40 38 39 39 35 34 34 39 37 33 47 46 43 47 50 55 56
55 55 55 55 55 56 56 55 54 54 53 52 53 55 55 55 56 53 47 49 47 51 48 47 43 41 33 31 31 34 32 38 37 40 39 40 41 39 36 33 41 36 37 38 39 40 45 49 48 50 51 54 53 54
54 54 55 55 55 56 55 54 54 53 54 54 53 54 55 55 56 52 46 48 50 51 46 40 34 36 31 30 35 33 37 38 36 40 38 34 31 39 34 33 40 42 45 40 42 45 46 50 49 55 54 55 54 53
54 54 55 55 55 55 54 53 53 54 55 55 55 54 55 55 55 53 46 48 47 49 47 42 46 36 35 36 35 35 35 40 37 37 34 32 30 36 33 32 37 41 43 43 42 45 47 49 52 55 55 54 53 52
54 54 55 54 54 53 53 53 54 55 55 55 55 55 55 55 55 51 48 47 47 48 46 45 47 45 40 37 38 41 41 39 39 37 35 36 39 38 42 40 38 43 42 42 40 45 44 45 51 55 54 53 52 52
53 53 53 53 53 53 54 54 54 54 54 54 54 55 55 55 52 47 45 50 48 52 50 43 49 44 35 39 40 41 42 42 40 38 36 41 43 42 39 37 45 46 44 47 45 46 48 49 55 55 54 53 53 52
51 52 53 53 54 54 54 54 54 54 54 54 55 55 54 54 46 44 45 51 49 46 50 45 43 43 41 41 42 43 44 43 41 35 35 41 40 44 37 35 41 47 43 48 49 48 45 44 52 54 54 53 53 52
50 50 53 54 54 54 54 54 53 54 54 54 54 54 54 52 48 43 43 46 47 49 47 39 36 42 42 40 39 44 42 44 43 34 39 40 44 43 36 37 45 46 48 49 49 46 44 44 53 53 54 53 52 52
50 50 50 51 52 51 53 53 53 53 53 54 54 53 47 45 45 46 56 52 51 48 42 40 35 40 45 41 43 43 43 39 43 37 38 42 40 35 38 41 40 48 47 44 46 42 44 44 47 51 53 53 52 52
51 50 50 50 50 50 50 50 53 53 54 53 46 44 43 48 55 54 47 47 48 47 48 47 43 33 42 43 42 42 42 38 37 41 42 40 40 40 42 42 39 43 44 42 41 39 43 43 43 44 46 52 52 52
51 50 50 50 50 50 49 50 50 51 50 44 43 45 53 55 49 49 46 41 42 39 39 42 44 43 46 43 43 45 41 40 35 36 37 38 38 41 45 42 43 44 45 43 43 41 39 39 41 39 41 47 51 51
50 50 49 50 50 51 51 50 50 49 47 46 45 47 52 50 47 42 41 40 39 35 37 32 33 39 45 50 44 45 39 37 31 40 38 36 40 45 47 44 42 46 45 43 46 46 42 41 39 40 40 44 46 47
51 50 49 50 50 51 51 50 50 49 48 48 48 48 49 47 37 39 36 39 36 40 37 36 34 34 46 45 43 44 39 35 39 37 38 38 44 48 46 45 43 46 46 44 46 45 43 41 44 43 40 42 45 43
51 50 50 50 50 50 51 50 50 50 47 46 46 38 43 42 41 40 39 37 40 38 37 39 37 44 45 43 42 36 38 37 34 33 34 38 45 47 46 44 42 45 46 45 44 42 41 42 43 45 42 41 46 44
51 51 51 51 51 51 50 51 50 48 47 47 46 38 42 43 44 43 42 41 41 42 41 42 43 45 43 39 39 39 36 34 35 33 36 40 46 46 44 43 43 44 43 42 42 40 41 41 41 43 44 44 44 47
51 50 50 51 51 51 50 51 48 47 48 46 45 43 44 43 43 46 47 44 47 49 47 46 46 45 42 41 37 35 33 33 34 37 43 49 46 45 43 43 44 43 42 41 42 41 40 42 41 41 43 43 43 47
50 48 51 51 51 51 51 50 51 46 44 42 40 41 40 42 41 43 44 45 49 49 47 48 45 43 47 42 39 37 33 34 36 44 49 47 45 45 44 44 44 44 43 42 43 42 41 41 42 43 43 46 44 48
49 51 51 51 51 51 50 49 49 46 42 41 40 41 41 43 42 43 43 50 49 50 49 46 50 47 42 38 37 38 40 43 48 48 49 50 49 48 48 46 48 47 46 45 44 45 43 43 43 43 45 45 46 46
51 52 51 51 51 50 47 47 49 43 43 44 43 42 41 41 43 44 50 53 53 52 52 50 46 46 46 48 47 48 48 50 50 52 53 53 54 53 53 52 51 51 50 50 48 46 46 45 43 45 46 45 45 44
50 51 52 52 52 49 46 47 50 46 43 44 43 41 42 41 42 42 47 51 50 48 46 48 48 49 51 51 51 51 51 53 52 51 50 50 52 51 52 54 55 55 55 54 53 49 50 49 48 48 46 44 44 44
50 51 52 51 50 49 47 48 47 46 45 42 42 43 42 43 42 41 41 50 48 46 44 48 48 50 54 52 54 54 54 52 50 51 51 51 51 52 51 51 49 52 55 54 52 51 50 49 50 49 45 45 48 49
50 52 50 50 48 48 47 46 44 44 43 42 43 45 44 43 41 40 43 45 46 46 47 47 46 43 45 47 49 53 55 55 54 52 49 49 45 46 49 51 52 53 53 52 53 53 52 51 51 50 49 50 49 51
51 51 50 49 46 43 41 45 42 42 40 43 46 44 45 45 44 45 43 44 43 44 47 47 46 50 47 46 50 55 54 54 54 52 49 49 51 53 54 55 55 53 53 52 52 49 49 47 48 48 48 50 50 49
50 48 46 45 44 40 45 43 45 43 43 43 42 41 43 45 47 46 42 41 45 48 48 50 53 51 50 53 55 57 57 56 55 54 53 53 52 53 52 51 53 53 53 50 47 47 47 47 46 48 48 48 48 46
41 40 43 37 45 43 41 43 44 45 42 43 42 43 46 48 43 43 42 47 48 48 50 51 52 52 51 52 53 52 53 54 52 49 50 53 54 52 52 54 53 52 49 48 46 46 46 47 47 47 46 46 46 42
35 41 39 41 43 41 42 43 44 44 44 44 45 46 46 45 42 42 46 49 49 48 49 50 50 49 49 52 51 52 54 53 52 51 52 52 53 53 52 49 48 48 50 49 47 46 46 46 45 44 43 42 40 40
37 40 45 46 46 47 47 46 43 42 43 44 47 47 46 42 41 46 52 52 51 52 53 53 54 50 49 50 52 52 53 55 53 50 50 49 51 52 52 50 49 50 51 50 47 46 46 45 44 42 41 40 39 39
42 46 42 46 46 46 43 39 39 41 44 49 49 44 43 43 44 48 49 52 53 54 55 54 54 51 50 51 50 50 50 50 49 48 48 48 48 48 49 50 50 46 50 50 48 47 46 45 43 41 40 39 38 38
44 45 44 40 42 41 41 39 40 46 49 48 46 45 47 51 51 49 51 54 54 53 52 52 53 52 50 48 48 49 49 48 47 46 46 46 46 46 48 49 49 49 49 49 44 46 46 43 41 42 42 41 41 40
37 39 36 37 38 37 38 41 40 47 50 50 50 51 51 50 52 54 53 53 50 49 47 43 48 49 48 47 46 46 47 47 47 47 46 44 46 48 48 48 49 49 49 48 47 45 41 42 42 42 42 42 41 41
35 35 35 36 35 37 39 40 40 43 45 44 49 50 49 51 52 53 54 52 51 50 46 40 39 41 42 46 46 44 43 44 44 42 42 45 47 48 48 48 48 48 48 48 47 45 43 42 42 42 42 41 41 40
39 37 35 35 36 41 40 39 38 39 43 46 48 50 49 46 45 51 50 50 47 44 41 39 37 37 41 42 42 42 41 44 42 42 44 46 48 49 48 47 47 47 47 47 46 44 43 42 42 42 42 42 42 42
38 38 37 37 37 37 37 38 38 44 46 46 45 47 48 46 44 48 50 50 42 37 37 38 38 37 39 39 39 38 41 44 43 41 40 42 42 46 48 47 46 46 46 45 44 43 43 42 42 42 42 42 43 44

GFSWCAN_sfc_dewp_117.txt.gz
Dewpoint
54 55 55 55 55 54 55 56 56 55 54 54 53 53 54 55 56 51 45 48 44 48 49 47 45 39 35 36 31 31 32 33 34 33 31 38 36 39 36 36 36 32 34 34 36 33 30 46 46 40 45 50 54 54
54 54 55 55 55 55 56 56 56 54 54 53 53 53 54 55 55 52 45 47 47 44 46 49 47 46 37 33 32 34 32 36 36 39 38 40 39 39 36 30 39 33 35 36 37 38 44 47 48 49 51 54 54 53
54 54 54 55 55 55 56 56 55 54 54 54 54 54 54 55 55 53 45 46 48 49 49 43 38 35 34 29 33 32 37 39 38 38 37 35 33 39 35 36 38 40 43 38 40 42 45 48 51 53 55 54 54 53
54 54 54 55 55 55 55 55 54 54 54 54 54 55 55 55 55 55 46 46 44 44 46 45 47 44 41 35 35 34 34 39 37 36 34 32 28 36 33 33 37 41 43 41 40 43 46 47 50 54 54 53 52 52
54 54 54 54 54 54 54 54 54 54 54 54 54 54 55 55 54 53 48 47 46 44 45 45 46 45 45 37 41 41 39 38 38 36 34 34 35 38 40 40 37 44 40 41 40 44 43 45 52 55 53 52 52 51
52 52 52 52 53 53 53 54 54 54 54 54 54 54 55 54 54 45 41 48 46 48 49 43 47 47 39 39 41 41 42 42 39 37 36 38 44 41 38 36 41 47 46 46 42 47 46 48 54 55 53 52 52 51
51 51 52 53 54 54 54 54 54 54 54 54 54 55 54 54 47 42 36 47 48 46 49 45 43 43 42 40 42 42 43 43 40 36 35 36 40 41 38 36 39 45 45 44 47 47 46 53 53 55 54 53 53 52
50 50 50 52 53 53 52 53 54 53 54 54 54 54 54 53 50 43 42 47 46 42 48 40 38 40 44 43 39 43 41 43 41 36 40 40 43 40 34 35 36 42 46 47 47 46 46 50 54 54 54 53 52 51
51 51 50 50 50 51 50 52 53 53 53 53 54 53 46 44 41 43 54 51 45 45 40 40 35 38 43 42 42 43 42 39 43 38 36 41 38 36 38 38 40 43 45 45 48 47 46 51 52 53 53 52 51 51
52 51 50 50 50 50 50 50 50 52 53 53 46 43 40 45 52 54 46 45 45 45 47 45 44 30 42 42 41 41 41 38 35 38 42 39 38 41 39 40 43 45 46 45 45 42 44 50 51 53 52 52 52 51
53 52 50 50 50 50 51 50 50 51 49 44 42 43 49 52 48 48 43 40 42 38 42 46 45 42 44 42 41 43 40 40 34 36 38 36 38 40 41 41 41 45 47 44 43 42 44 47 48 50 50 53 53 52
52 51 50 50 50 50 51 51 50 49 47 46 46 47 48 49 46 42 42 41 39 34 37 35 41 43 43 49 43 44 38 37 32 38 37 34 39 40 44 43 41 43 45 44 44 42 43 43 43 43 45 47 51 52
51 51 50 49 50 50 50 51 50 50 48 47 47 48 46 44 36 39 36 39 37 39 37 32 28 41 46 44 44 43 39 35 39 38 37 38 38 44 47 43 41 43 45 44 46 45 42 42 42 42 44 47 49 50
51 51 50 50 50 50 50 51 50 50 47 44 46 40 40 40 42 40 40 38 40 39 37 34 32 36 42 41 41 37 39 36 33 31 32 36 39 42 46 44 42 45 45 44 45 45 43 43 42 42 44 46 45 44
51 51 51 50 51 51 51 50 51 49 47 46 45 36 40 43 43 43 43 42 42 42 40 42 44 45 42 39 40 37 35 33 33 33 36 38 37 44 45 43 41 43 45 44 43 43 42 42 43 42 41 44 44 44
51 50 49 50 50 50 50 50 49 47 47 47 45 43 44 43 44 45 46 46 47 47 45 46 45 44 40 38 36 35 34 34 34 37 38 42 44 45 44 43 41 42 44 43 42 40 40 40 41 42 43 43 44 45
51 48 51 51 51 51 50 50 50 47 44 43 41 43 43 42 43 42 44 45 48 47 45 45 41 42 46 41 38 38 34 35 37 37 42 47 46 45 43 43 42 43 43 41 41 40 39 39 40 41 41 42 43 46
49 51 51 51 51 51 50 49 48 46 41 42 40 41 42 43 43 42 42 48 50 47 47 45 48 43 43 41 38 40 41 39 41 39 41 48 46 44 43 42 43 43 43 42 41 41 40 40 40 40 40 41 43 45
51 51 51 51 51 50 47 47 48 43 42 43 43 43 42 41 42 43 45 52 52 53 49 46 44 44 44 48 48 48 49 50 48 49 50 49 48 47 46 46 45 45 44 43 43 42 43 41 40 40 41 44 43 46
49 50 52 52 52 49 46 46 49 44 41 43 44 42 42 41 42 42 44 51 51 47 45 45 45 47 48 51 52 51 52 52 51 49 48 49 52 53 53 51 52 51 51 51 49 46 46 47 46 43 45 45 45 46
49 51 52 51 50 48 47 47 46 45 45 43 42 42 41 42 41 40 41 49 46 45 42 47 48 48 49 50 54 54 54 51 50 50 51 51 54 53 51 50 50 49 50 51 52 52 50 51 52 50 49 47 47 48
50 52 50 50 48 48 47 47 44 45 44 42 42 43 41 42 41 41 44 45 44 43 44 43 44 46 49 50 51 53 54 54 54 53 50 50 50 46 46 48 49 50 51 51 51 51 51 49 50 50 49 49 48 49
51 51 49 48 45 43 40 45 42 42 41 41 46 43 43 43 44 45 41 43 43 45 45 46 45 46 45 47 49 52 55 53 52 52 54 53 50 49 49 52 53 52 51 51 51 50 49 46 47 48 48 48 48 48
50 48 45 45 44 40 44 42 44 43 41 41 41 38 41 44 47 44 40 41 43 47 47 48 51 50 50 50 53 53 53 53 52 53 54 52 52 52 52 52 52 52 52 50 48 47 47 47 46 48 48 47 47 48
40 38 41 36 44 42 40 41 43 43 41 41 41 41 43 48 44 44 44 47 48 48 49 50 50 52 51 51 52 52 52 53 51 51 52 52 51 51 51 50 50 50 49 47 46 46 45 47 47 47 47 47 47 48
36 40 38 40 42 40 40 41 43 44 45 44 45 46 46 44 41 40 43 48 48 47 48 49 49 49 49 50 51 51 52 52 51 50 50 50 52 52 50 49 48 49 50 49 47 46 47 47 47 47 46 47 43 46
36 39 43 45 45 45 45 46 46 45 45 44 46 45 44 41 41 44 50 50 49 50 50 51 50 48 48 50 50 50 54 52 52 50 50 51 52 53 53 50 49 50 50 48 47 46 46 46 46 46 45 45 46 45
41 44 41 44 43 46 43 43 40 42 45 48 47 46 44 43 42 46 49 51 52 52 52 52 54 54 52 51 52 51 51 50 49 48 48 47 48 48 48 50 50 46 50 49 47 47 46 45 45 43 42 42 42 41
43 47 46 43 45 45 44 41 39 45 47 48 47 43 45 50 50 47 50 52 51 52 50 50 51 52 50 50 49 49 49 47 46 45 44 45 46 46 47 47 48 48 49 48 44 45 46 45 44 42 41 41 40 40
42 44 42 38 40 37 38 40 40 45 51 51 50 50 49 48 50 51 50 51 50 47 48 47 48 50 47 46 46 47 48 48 47 46 45 45 46 47 47 47 47 47 47 48 47 43 41 41 41 42 41 41 41 41
36 35 34 35 34 36 38 40 41 47 47 46 49 48 47 49 49 51 52 52 50 51 41 38 39 45 48 47 45 45 44 45 47 47 48 46 45 48 48 48 48 48 48 48 46 44 42 42 41 41 41 41 41 40
37 36 34 33 35 38 40 38 38 39 44 46 48 49 47 44 43 48 49 48 43 40 39 37 39 40 42 44 45 46 42 44 44 42 41 44 46 48 48 48 48 49 48 48 47 45 43 43 42 42 41 41 41 41
37 37 37 36 36 35 36 37 40 41 44 45 46 48 47 44 42 45 49 49 41 37 35 35 36 39 38 37 39 37 41 44 41 39 40 41 43 46 47 47 47 47 47 47 47 45 44 43 42 42 42 42 42 43

GFSWCAN_sfc_dewp_120.txt.gz
Dewpoint
54 54 55 55 55 55 55 55 55 56 56 55 54 53 53 54 55 53 48 48 43 46 46 48 45 40 36 35 32 31 33 33 33 31 30 36 35 39 35 34 34 30 32 32 35 32 30 47 47 43 44 50 55 54
54 54 54 55 55 55 55 55 56 56 55 54 54 54 54 55 55 53 46 46 47 41 41 50 48 48 45 41 32 34 32 35 35 37 37 39 38 37 34 30 38 32 33 34 35 35 41 45 46 49 51 53 55 53
54 54 54 54 55 55 55 55 56 55 54 54 54 55 55 55 55 54 47 46 48 48 48 46 45 40 44 39 34 33 37 40 38 37 37 36 32 38 34 35 36 39 41 39 40 40 45 47 50 52 55 55 53 53
54 54 54 54 55 55 55 55 55 54 54 54 54 54 55 55 55 54 49 46 44 42 45 45 48 45 44 37 34 34 35 38 38 37 34 32 28 37 34 35 36 39 43 39 40 41 45 46 48 54 54 53 52 52
53 54 53 53 53 53 54 54 54 54 54 54 54 54 55 55 54 54 52 50 46 43 43 44 46 45 46 35 37 39 38 38 37 35 33 32 33 37 39 39 37 43 41 41 38 42 41 44 51 55 53 53 52 51
53 52 52 52 53 53 53 54 54 54 54 54 54 54 55 55 54 46 43 47 48 45 45 42 45 47 39 41 41 40 41 41 38 37 36 37 41 40 37 35 39 43 44 45 41 45 46 49 55 54 53 52 52 51
52 52 51 51 53 54 54 54 54 54 54 54 54 54 55 54 50 43 37 43 47 46 46 44 42 44 42 41 42 42 43 42 39 37 35 35 41 41 37 35 37 45 48 46 47 48 49 53 53 54 53 53 52 51
52 51 50 50 51 52 52 52 53 54 53 54 54 54 54 53 51 47 46 50 47 41 48 42 39 39 44 42 39 43 42 43 40 37 39 40 42 39 34 35 37 40 46 44 47 48 47 53 55 53 53 52 51 50
52 52 51 51 51 51 51 51 51 51 53 53 53 53 47 46 41 40 52 51 45 44 40 39 36 36 43 44 44 43 42 38 42 39 37 40 37 35 39 39 39 41 43 42 47 46 52 53 54 53 53 52 50 50
52 53 52 50 50 50 50 51 50 51 51 52 47 41 37 41 51 52 47 44 44 45 45 43 43 35 41 42 42 41 41 39 36 39 41 38 37 40 41 40 40 42 44 47 45 44 49 51 52 52 52 52 50 50
52 52 53 51 50 50 51 51 51 50 50 43 40 41 48 50 49 47 42 40 41 39 41 43 45 40 44 42 41 43 40 40 35 37 39 36 36 40 41 41 41 43 46 47 47 47 47 51 52 52 52 52 52 51
52 52 52 50 50 50 50 50 51 48 47 46 45 48 47 49 45 43 42 41 39 34 38 40 42 43 43 47 44 44 39 37 33 38 37 34 37 40 41 43 43 43 47 46 46 46 46 49 52 53 53 53 53 52
51 51 51 51 50 50 50 50 51 50 49 47 47 47 47 44 37 39 37 39 37 40 38 33 32 40 44 45 44 43 37 35 40 38 37 38 39 40 44 46 42 43 46 46 45 45 45 46 49 50 50 51 52 53
51 51 51 51 51 50 50 50 51 50 48 43 46 39 41 39 41 40 39 39 41 39 38 33 31 37 41 41 43 38 40 37 33 31 32 37 39 40 45 44 41 42 45 45 46 46 44 44 45 46 47 48 50 51
51 51 51 51 51 51 51 51 50 51 46 44 46 37 40 42 43 44 43 42 43 42 40 41 43 43 41 39 40 37 36 34 33 33 35 38 38 41 45 44 41 43 45 44 45 45 45 44 43 43 45 47 48 49
52 51 49 50 50 50 50 50 50 49 47 47 46 43 43 42 43 43 46 47 48 47 45 45 44 42 39 37 37 35 34 33 34 37 39 39 39 41 45 45 43 43 46 44 44 44 44 43 43 42 43 46 46 46
51 47 50 51 51 51 50 49 50 46 44 44 43 43 43 44 43 44 45 44 48 47 45 46 42 39 45 40 38 37 35 36 38 38 39 41 43 45 45 45 43 43 45 45 44 43 43 43 43 43 43 43 45 46
49 51 51 51 51 50 49 48 48 45 42 43 41 40 42 43 46 48 43 47 48 47 48 45 46 42 41 40 38 41 44 46 46 45 43 41 46 47 45 44 44 44 44 44 44 43 41 41 41 42 43 44 44 45
51 50 51 51 51 50 47 46 48 42 42 42 43 43 42 41 42 44 44 46 52 52 49 46 43 43 43 46 45 46 48 49 49 49 49 49 49 47 45 44 44 44 44 44 43 43 43 42 41 41 41 43 43 44
50 50 51 51 52 48 46 46 49 43 41 42 44 42 41 41 42 42 41 44 50 48 45 44 44 44 47 49 50 50 51 50 50 49 49 50 51 50 49 48 48 46 46 46 46 43 44 45 44 42 42 43 42 43
49 49 51 52 50 48 46 46 46 44 43 43 43 43 41 42 41 41 41 48 46 45 42 45 46 46 49 50 52 53 53 52 52 52 51 50 52 50 51 51 52 52 52 51 52 52 50 50 50 51 48 47 48 50
49 52 50 50 47 48 47 46 45 46 44 44 42 44 42 41 41 41 43 44 44 43 44 43 43 43 47 48 49 51 52 52 53 52 48 50 51 52 50 50 50 50 51 52 52 52 52 52 52 52 51 50 50 50
50 51 49 48 45 43 40 45 43 42 41 41 45 44 42 42 43 45 41 43 44 45 44 43 43 44 44 46 50 51 53 53 53 53 53 52 51 50 48 50 52 51 52 52 52 52 52 46 48 49 49 49 49 49
50 48 45 44 43 39 44 42 44 43 42 40 39 39 40 43 46 44 41 40 44 45 45 45 47 48 49 48 50 51 53 54 53 53 52 52 50 51 53 53 53 53 53 52 51 50 50 49 47 49 48 47 48 47
41 39 41 36 44 41 40 40 42 43 41 40 40 39 41 45 42 41 42 45 48 47 48 50 51 51 50 51 52 51 52 53 52 51 51 52 52 52 51 52 51 51 50 49 48 48 48 48 48 48 47 47 46 47
36 40 37 40 41 40 40 39 41 43 44 44 44 47 45 42 41 39 42 47 48 49 50 50 50 50 51 52 52 52 53 53 53 52 52 51 51 51 50 50 50 51 50 50 49 48 48 47 48 48 47 46 44 47
35 38 41 43 44 44 43 45 45 43 44 43 45 44 44 40 40 43 50 52 49 51 52 51 51 48 47 49 50 52 52 52 51 51 51 51 51 53 53 52 50 51 51 50 48 48 47 47 47 47 47 47 47 48
37 40 38 43 42 44 41 42 42 44 46 48 46 44 44 43 43 46 48 51 52 52 52 53 54 53 52 51 51 53 52 51 48 48 48 48 48 48 49 50 50 45 50 50 49 48 47 47 47 47 47 47 47 47
42 45 45 41 44 44 43 41 41 45 49 48 46 43 45 49 49 47 49 52 52 52 49 48 51 52 50 51 50 50 50 48 46 46 45 44 45 45 48 48 49 49 50 49 43 46 47 46 46 46 45 46 46 45
42 46 43 43 42 41 43 45 42 48 51 51 51 48 46 47 49 52 51 50 50 47 48 48 48 49 48 48 48 49 49 48 47 45 44 44 45 47 48 48 49 49 49 49 47 46 42 44 42 43 43 42 42 41
38 42 41 37 35 38 39 40 42 46 48 47 48 47 45 48 48 51 53 52 52 50 42 40 41 48 48 47 46 46 46 47 48 49 48 48 48 47 48 48 49 49 49 48 46 44 44 43 43 42 42 42 42 41
37 36 35 33 35 38 40 39 39 41 45 46 47 49 46 44 44 48 49 50 45 41 39 40 41 41 45 47 48 48 43 46 46 47 48 48 47 47 48 48 48 48 49 48 47 44 43 43 42 42 42 43 42 42
37 37 37 36 36 36 37 39 41 41 43 45 46 48 46 43 41 44 48 48 43 37 37 38 39 41 41 41 41 40 39 44 44 39 39 39 41 45 48 48 48 49 48 48 48 46 44 44 43 43 42 42 43 44

GFSWCAN_sfc_dewp_123.txt.gz
Dewpoint
54 54 55 54 54 55 55 55 55 55 56 57 55 54 54 54 55 54 50 50 44 43 44 48 48 43 41 37 36 36 35 36 36 34 31 37 40 44 40 37 37 36 36 37 39 37 31 47 47 44 48 52 54 54
54 54 53 54 55 55 55 55 55 55 56 56 54 54 55 55 55 54 50 46 48 45 42 45 42 43 45 46 41 36 38 41 39 39 42 44 41 42 41 33 41 36 35 37 37 36 45 49 48 49 52 53 55 54
52 53 54 54 55 55 55 55 55 56 55 55 54 54 55 55 55 54 50 49 47 45 43 46 39 45 47 48 44 38 40 42 41 41 40 41 40 40 37 38 37 42 42 39 42 43 43 48 50 51 54 56 56 55
51 53 54 54 54 54 55 55 55 54 54 54 54 54 54 55 55 54 52 48 46 41 41 44 48 47 47 41 43 39 40 41 41 42 39 37 34 41 37 38 37 40 44 43 43 44 45 48 50 53 56 56 55 55
51 53 53 53 53 53 53 54 54 54 54 54 54 54 54 55 54 55 54 52 49 44 41 41 44 45 46 42 38 39 40 42 41 38 37 35 37 39 44 42 42 43 44 41 35 46 46 45 51 56 55 55 55 53
52 53 53 52 53 54 54 54 54 54 54 54 54 54 54 55 54 50 43 50 51 49 41 41 46 48 43 41 41 42 44 43 42 40 40 39 42 41 44 41 44 44 46 49 44 47 48 49 53 56 54 55 53 52
52 53 52 50 50 52 52 52 53 54 54 54 53 54 54 54 52 47 41 46 49 48 44 43 44 45 43 43 43 44 46 44 43 41 40 39 44 44 43 44 43 48 48 49 48 51 51 54 54 54 53 53 52 52
53 53 52 50 50 50 51 51 51 52 53 53 54 54 54 54 53 49 49 51 48 44 47 45 42 40 43 44 42 45 45 45 44 43 41 41 43 42 46 45 45 43 47 49 48 50 49 54 55 53 53 52 51 51
53 52 52 51 51 51 50 51 51 51 51 52 54 52 50 50 46 42 51 53 49 45 42 43 39 37 44 46 46 45 45 41 45 42 42 44 46 43 45 48 46 44 46 47 46 48 50 54 53 52 52 50 49 50
53 52 52 52 51 50 50 51 51 51 50 51 49 42 39 41 49 51 49 42 43 43 46 42 45 39 42 44 46 47 44 41 40 43 43 42 42 48 51 51 51 48 47 48 48 48 52 53 53 52 50 50 48 49
52 52 52 53 51 50 50 50 51 50 50 46 41 41 48 50 51 49 44 39 39 41 43 42 42 38 45 44 47 47 43 43 40 41 41 41 39 45 45 47 50 48 49 49 49 50 53 54 54 52 51 51 51 51
52 51 52 52 51 50 50 50 50 48 48 47 47 48 48 50 47 45 43 42 41 37 39 40 40 40 44 52 50 49 44 41 37 41 40 41 41 48 47 45 47 48 48 50 50 50 53 55 54 54 54 53 52 52
51 51 51 52 51 50 50 50 50 50 50 47 46 47 48 46 40 40 37 41 39 40 40 38 40 43 47 48 49 48 41 39 41 39 40 39 47 47 48 49 47 47 48 49 49 50 50 52 55 54 55 55 54 54
51 51 51 51 51 51 51 51 50 50 48 43 44 39 44 42 41 41 40 40 43 42 40 36 37 42 43 45 46 40 42 41 37 35 35 40 50 48 47 49 46 46 47 48 49 49 50 51 52 55 55 56 55 55
51 51 51 51 51 52 51 51 51 51 46 43 45 41 42 43 43 43 44 44 45 44 42 39 40 43 46 43 43 40 39 36 35 32 36 42 49 48 49 49 47 46 48 48 49 48 48 48 49 51 52 54 54 55
51 51 50 50 50 50 50 50 50 50 47 46 46 43 43 43 44 45 46 47 48 48 45 45 44 44 39 39 39 37 35 35 33 40 43 45 49 49 50 51 49 46 48 48 49 50 49 49 48 49 50 50 51 53
51 49 50 51 51 50 50 50 49 46 44 43 43 43 43 43 43 44 45 46 50 50 47 48 38 37 46 41 38 40 35 35 42 45 46 50 51 52 51 50 50 48 50 50 50 51 50 50 49 48 48 50 49 52
50 52 51 51 51 51 50 49 47 45 43 43 42 41 43 44 45 49 49 47 51 48 50 45 50 45 39 38 39 41 43 47 50 51 52 53 53 54 51 52 51 50 51 52 51 51 50 48 48 46 50 51 49 50
51 51 52 51 51 50 46 46 47 42 42 42 42 42 42 41 43 45 51 50 53 54 50 50 45 44 45 50 49 48 49 50 50 53 53 55 55 54 53 51 51 50 50 51 50 47 47 50 46 45 45 46 44 44
51 50 51 51 51 48 46 46 49 44 40 42 44 43 43 42 43 42 41 43 51 50 47 47 46 46 50 52 54 54 55 55 54 53 54 54 56 52 51 48 47 49 47 49 48 45 46 46 46 45 44 44 43 43
49 49 50 52 50 48 46 46 46 44 43 42 43 43 42 43 42 42 41 42 44 45 39 44 46 48 51 52 55 57 57 56 56 55 55 54 54 53 54 54 52 50 51 51 53 53 48 48 46 50 47 45 44 44
49 51 50 50 47 47 46 46 44 46 44 43 43 45 41 41 42 42 43 42 41 41 44 43 45 46 47 50 50 54 56 57 57 55 50 51 54 54 51 50 53 54 56 56 56 56 56 56 56 56 56 55 51 50
49 51 49 47 44 42 41 46 44 44 41 41 45 43 44 42 43 45 41 42 42 45 46 46 49 51 49 50 50 53 55 55 55 54 54 54 53 52 50 52 54 55 54 55 56 55 55 50 52 53 54 53 54 53
49 47 45 44 43 39 44 42 44 43 43 41 39 38 40 44 46 45 41 42 44 46 46 51 48 46 47 51 52 49 54 54 54 57 57 57 55 54 55 55 56 56 57 57 55 54 54 54 49 52 51 50 50 49
41 40 42 36 44 41 39 39 41 42 40 41 40 40 44 49 46 44 43 49 49 49 49 50 49 50 48 53 54 55 56 57 55 54 56 56 56 55 55 56 56 56 54 53 53 51 51 51 51 51 50 49 49 49
36 40 37 38 41 40 39 37 39 40 42 42 44 47 48 46 43 41 46 51 51 52 53 52 53 53 54 55 55 55 56 56 57 55 55 54 53 54 52 52 54 55 53 53 52 51 51 51 50 50 50 48 44 48
36 38 41 43 43 43 43 44 45 43 39 41 45 45 44 40 39 46 52 54 50 55 55 54 55 53 53 54 55 55 56 55 55 54 53 52 52 53 53 50 48 52 53 52 52 51 50 49 49 49 49 49 48 48
39 40 38 41 42 43 39 39 39 43 44 48 46 43 42 41 44 49 52 52 53 54 55 55 56 56 55 55 54 53 52 50 50 49 49 48 49 49 51 50 50 43 51 52 52 51 50 50 49 48 49 48 49 49
39 43 44 40 41 43 43 40 42 48 50 48 46 46 47 51 52 48 52 55 55 55 51 50 54 52 52 52 53 53 52 48 46 45 43 42 44 45 48 49 50 50 51 51 44 47 50 48 48 48 48 49 49 48
40 44 41 42 42 41 43 44 47 50 51 52 52 52 50 52 54 56 55 54 51 49 49 48 50 50 48 47 47 49 50 49 47 44 43 43 45 47 49 49 49 49 50 50 49 48 43 46 43 47 47 47 47 46
42 44 42 41 39 39 42 44 47 43 48 48 48 49 48 51 53 56 56 55 53 49 43 43 48 50 49 48 48 48 46 49 50 50 49 48 48 48 49 49 49 49 49 49 48 48 47 46 45 45 44 43 44 44
39 38 36 35 36 39 41 40 41 43 46 47 50 51 47 47 47 50 50 50 45 42 41 42 42 43 46 48 49 49 44 47 48 47 49 48 49 50 49 48 49 48 48 48 48 47 48 47 45 44 43 42 43 43
38 38 39 38 38 38 40 42 42 42 45 48 49 50 46 44 44 46 46 45 46 39 39 41 41 42 46 47 46 45 43 46 45 39 39 39 39 42 45 48 48 48 48 47 47 47 47 47 46 45 43 43 43 43

GFSWCAN_sfc_dewp_126.txt.gz
Dewpoint
54 54 54 55 54 54 55 55 55 55 55 56 57 56 54 54 54 53 51 52 47 40 38 41 45 46 42 36 32 38 32 33 30 31 28 30 32 36 34 31 30 30 30 27 29 29 27 44 44 41 49 51 50 53
51 52 53 53 54 55 55 55 55 55 56 56 56 55 54 55 55 54 50 48 49 44 38 43 43 43 45 45 44 38 39 36 32 32 37 35 38 37 36 29 40 31 32 32 30 31 45 47 45 49 49 50 54 54
50 51 52 54 55 55 55 55 55 56 56 55 55 54 55 55 55 54 50 51 47 42 39 37 36 37 38 39 40 42 38 42 41 44 38 34 38 35 31 33 33 36 41 35 37 35 39 45 48 48 50 51 55 53
49 50 52 54 54 54 54 54 54 55 54 54 54 54 55 55 55 55 52 51 49 41 35 35 46 46 47 44 44 43 41 43 43 42 32 30 29 38 29 33 33 34 43 39 39 40 44 46 47 48 52 56 55 54
49 50 52 53 53 53 54 54 54 54 54 54 54 54 54 54 55 54 53 51 50 44 39 38 35 34 42 45 45 45 41 41 39 38 35 32 35 37 35 37 33 37 38 34 30 39 41 42 48 52 55 56 55 54
50 51 53 53 51 52 54 54 54 54 55 54 54 53 53 54 54 52 47 50 51 50 41 33 39 44 45 44 44 44 43 41 39 36 37 40 41 38 33 35 38 36 38 39 41 46 45 48 50 55 54 53 54 52
51 52 53 53 51 51 51 52 52 52 54 54 53 53 54 54 54 47 46 47 51 50 39 37 35 43 44 42 41 41 43 40 38 38 39 37 39 41 35 37 40 42 44 45 47 49 49 48 50 53 53 53 52 50
50 51 53 53 51 51 51 51 51 51 51 52 53 53 53 53 53 51 50 50 51 44 41 42 39 40 44 38 40 43 40 41 42 38 43 39 43 43 44 43 43 42 42 46 48 48 44 50 54 52 52 51 50 50
50 51 53 52 52 51 51 50 51 51 51 51 53 53 52 51 48 45 52 52 50 45 40 42 37 33 44 42 42 43 42 37 44 40 40 43 44 48 45 46 44 45 46 45 47 48 48 51 53 51 50 49 47 48
50 51 53 52 53 51 50 50 51 51 51 51 51 46 44 43 53 53 48 43 42 42 44 40 41 38 42 41 39 39 39 35 37 38 45 41 40 47 48 48 47 44 47 42 46 49 49 50 52 50 48 46 45 47
50 51 52 52 53 52 50 50 50 51 50 49 43 41 48 51 50 47 43 40 40 38 37 34 36 36 43 41 38 42 38 38 36 36 39 36 37 40 45 49 52 50 49 47 46 46 49 51 52 49 47 46 46 48
50 52 52 52 52 51 50 50 49 49 49 47 47 49 48 49 47 43 40 39 39 36 40 39 37 35 39 48 47 45 38 40 34 42 38 38 38 46 46 46 48 51 49 47 45 47 48 50 52 50 47 47 47 50
51 52 51 51 52 52 51 50 49 50 50 49 47 47 48 47 41 36 34 35 34 35 38 38 37 38 40 43 49 49 40 37 41 37 37 34 45 49 49 48 48 49 47 47 47 50 51 53 53 50 49 49 48 50
51 51 51 51 51 51 51 50 50 50 48 44 44 39 43 40 37 36 35 36 37 42 41 38 35 37 34 36 42 40 39 40 35 33 33 34 45 47 49 49 48 47 47 46 47 50 51 53 53 52 51 51 50 51
51 51 51 51 51 51 51 51 51 50 47 43 44 40 40 39 42 42 41 42 43 44 42 39 35 38 35 33 39 38 38 34 33 33 34 39 52 52 50 50 47 47 47 47 46 49 50 49 51 53 54 53 54 54
51 51 51 51 50 50 51 51 51 51 48 45 44 43 44 42 42 43 43 45 46 46 46 44 38 33 32 29 33 33 29 28 30 33 40 47 53 52 53 52 50 48 49 46 47 48 50 50 50 48 51 53 54 55
51 49 50 51 51 50 51 49 49 47 45 44 43 43 43 42 44 46 45 48 49 49 46 44 37 34 37 30 28 29 29 32 35 40 43 54 56 57 55 53 52 50 50 49 49 50 50 50 48 48 51 54 52 55
50 52 51 51 51 51 50 49 47 45 43 42 41 40 42 43 43 47 51 45 53 46 46 44 48 40 34 30 30 31 34 34 44 47 48 54 58 59 56 55 55 52 51 51 51 51 52 51 51 48 52 53 52 52
51 52 52 51 51 50 47 46 47 42 42 41 42 42 43 43 43 44 47 54 55 53 49 49 44 37 36 42 42 44 44 43 44 47 50 55 58 58 58 56 55 53 52 52 52 48 48 52 46 42 44 47 45 44
51 51 51 52 52 48 46 46 48 44 40 42 42 42 42 42 42 42 41 42 48 50 47 45 46 44 40 42 43 44 47 51 49 47 50 50 53 55 55 53 50 52 49 51 49 45 45 47 47 45 43 44 44 43
49 50 50 52 50 49 47 46 46 43 42 43 44 44 43 44 44 42 41 41 41 41 40 42 43 45 48 49 51 50 51 51 50 52 51 47 51 51 51 49 50 46 43 44 44 44 44 43 43 43 44 44 44 43
49 51 51 51 47 47 46 46 44 47 46 41 42 42 41 40 41 42 43 41 40 40 41 41 42 43 45 50 50 52 51 53 54 52 48 49 49 50 49 49 48 46 45 45 46 46 48 47 49 51 51 49 50 49
49 50 49 47 44 43 41 48 44 45 40 40 44 42 43 42 42 45 41 41 42 43 43 43 48 51 48 48 49 49 52 53 47 46 48 49 49 51 49 50 50 50 49 49 51 49 50 50 51 52 52 54 53 53
49 47 45 43 43 40 44 43 43 42 43 40 37 36 38 40 46 42 40 40 42 43 44 51 46 45 46 50 46 44 47 48 47 47 50 48 51 51 52 51 51 52 52 53 53 53 54 55 50 52 52 51 51 51
41 40 42 37 44 41 38 37 39 40 39 40 39 39 39 49 44 42 41 43 46 50 47 48 48 47 44 43 43 45 54 51 50 50 53 54 51 52 52 52 53 54 54 52 52 53 52 52 52 51 51 51 51 51
36 40 39 37 40 39 37 35 37 38 40 40 41 45 49 46 41 40 47 52 54 52 54 51 47 48 54 55 56 55 55 55 55 53 55 53 51 50 51 50 51 53 54 53 52 51 51 51 51 52 51 51 45 49
36 38 40 41 40 42 42 43 43 42 39 39 44 45 43 40 39 47 55 56 50 51 53 52 51 49 51 53 56 57 56 54 55 55 55 53 52 51 47 44 42 46 48 48 50 51 51 51 51 51 50 50 50 49
38 39 37 39 39 39 38 38 39 40 43 46 46 42 42 42 45 51 52 52 52 54 53 52 54 54 54 56 56 58 58 55 53 51 48 48 47 47 48 47 48 43 48 47 47 49 50 50 50 50 49 49 49 49
39 40 41 38 38 40 41 42 42 45 49 47 45 46 48 53 53 49 51 52 52 51 52 52 52 53 52 53 53 53 49 47 44 42 38 38 40 42 45 46 46 47 47 46 43 45 49 49 48 47 48 48 49 50
37 38 38 39 40 39 44 48 47 48 50 50 50 53 53 54 52 54 52 51 49 47 47 47 47 47 43 42 43 47 47 44 43 42 41 41 42 44 45 45 45 45 47 46 45 46 43 47 46 48 48 48 48 49
41 42 40 40 40 41 48 48 47 47 45 45 48 51 48 49 53 56 52 52 50 45 45 44 44 46 44 44 44 44 44 46 48 48 48 46 46 46 46 47 46 45 46 46 45 44 45 46 46 47 47 47 47 46
40 40 38 37 37 38 40 40 40 42 43 46 49 51 44 49 46 46 46 48 42 40 42 41 40 41 40 40 41 42 42 42 44 44 45 44 45 47 48 47 47 46 45 45 44 44 46 46 45 45 45 45 45 46
38 38 39 38 38 38 39 41 41 42 42 46 48 47 43 41 42 42 43 44 41 39 40 41 42 44 46 44 44 43 42 43 42 38 38 38 38 39 41 42 44 46 46 47 46 45 46 46 45 45 45 44 45 44